[[[{"header":{"parameterUnit":"kt","parameterCategory":2,"dx":1,"dy":1,"la1":29.285339999999998,"la2":30.599998999999997,"lo1":-89.70041500000002,"lo2":-87.6738589999976,"nx":112,"ny":82,"refTime":"2022-10-19T18:00:00:Z","depth":0,"parameterNumber":1,"parameterNumberName":"U-component_of_WINDS"},"data":[-7.2669,-7.1383,-7.0066,-6.8779,-6.812,-6.7401,-6.5968,-6.4621,-6.3185,-6.154,-5.9775,-5.8159,-5.6843,-5.5856,-5.4779,-5.3462,-5.2864,-5.1953,0.0,-4.8974,-4.8896,-5.0538,-5.5078,-5.9598,-6.3632,-6.6585,-6.9211,-7.173,-7.5272,-7.7719,-7.8645,-8.2093,-8.4888,-8.6684,-8.9213,-9.1218,-9.2504,-9.3821,-9.4509,-9.4509,-9.4509,-9.4509,-9.4509,-9.4509,-9.4509,-9.4509,-9.4509,-9.4509,-9.4509,-9.4509,-9.4509,-9.4509,-9.4509,-9.4509,-9.4509,-9.4509,-9.4509,-9.4509,-9.4509,-9.483,-9.5388,-9.5388,-9.5704,-9.6175,-9.6487,-9.6565,-9.6642,-9.6951,-9.6951,-9.6951,-9.6951,-9.6951,-9.6951,-9.6951,-9.6797,-9.6409,-9.594,-9.5546,-9.515,-9.4589,-9.4509,-9.4509,-9.4509,-9.4509,-9.48,-9.594,-9.6097,-9.6097,-9.6097,-9.5625,-9.5388,-9.5388,-9.483,-9.4509,-9.4509,-9.4509,-9.4509,-9.4509,-9.4509,-9.4509,-9.4509,-9.4509,-9.4509,-9.4509,-9.4509,-9.409,-9.3222,-9.2774,-9.1667,-8.9991,-8.9064,-8.8166,-7.0036,-6.863,-6.7284,-6.6024,-6.5365,-6.4676,-6.3275,-6.1959,-6.0403,-5.8199,-5.7063,-5.5975,-5.421,-5.427,-5.3821,-5.1577,-5.1966,-5.2086,0.0,-5.0257,-5.1338,-5.4831,-5.9376,-6.3314,-6.614,-6.9003,-7.1409,-7.3059,-7.6642,-7.9124,-8.002,-8.3439,-8.6235,-8.7927,-9.0111,-9.1876,-9.3192,-9.406,-9.4509,-9.4509,-9.4509,-9.4509,-9.4509,-9.4509,-9.4509,-9.4509,-9.4509,-9.4509,-9.4509,-9.4509,-9.4509,-9.4509,-9.4509,-9.4509,-9.4509,-9.4509,-9.4509,-9.4509,-9.4509,-9.491,-9.5467,-9.5704,-9.6175,-9.672,-9.7258,-9.7411,-9.7487,-9.7822,-9.7867,-9.7867,-9.7867,-9.7867,-9.7867,-9.7867,-9.764,-9.7228,-9.6689,-9.6409,-9.6019,-9.5467,-9.5309,-9.5309,-9.5309,-9.5309,-9.5704,-9.6797,-9.6951,-9.6951,-9.6951,-9.6331,-9.5862,-9.5862,-9.499,-9.4509,-9.4509,-9.4509,-9.4509,-9.4509,-9.4509,-9.4509,-9.4509,-9.4509,-9.4509,-9.4509,-9.406,-9.3402,-9.2534,-9.1637,-9.032,-8.8615,-8.8166,-8.7478,-6.7311,-6.5878,-6.4472,-6.3185,-6.1899,-6.0612,-5.9305,-5.805,-5.6765,-5.5497,-5.5227,-5.445,-5.1936,-5.2535,-5.2116,-4.8257,-4.977,0.0,0.0,-5.1208,-5.4371,-5.9459,-6.3475,-6.7183,-7.0664,-7.222,-7.4105,-7.6613,-7.8077,-7.999,-8.2751,-8.5324,-8.7897,-9.05,-9.1846,-9.3163,-9.4479,-9.4509,-9.4509,-9.4509,-9.4509,-9.4509,-9.4509,-9.4509,-9.4509,-9.4509,-9.4509,-9.4509,-9.4509,-9.4509,-9.4509,-9.4509,-9.4509,-9.4509,-9.4509,-9.4509,-9.4509,-9.4509,-9.4509,-9.4509,-9.467,-9.5625,-9.594,-9.6253,-9.776,-9.8213,-9.8362,-9.9241,-9.9492,-9.9492,-9.9492,-9.9492,-9.9492,-9.9492,-9.884,-9.8213,-9.8213,-9.7533,-9.7059,-9.6951,-9.6951,-9.6951,-9.6951,-9.7028,-9.7105,-9.7105,-9.7105,-9.7105,-9.7105,-9.6409,-9.5862,-9.5862,-9.507,-9.4509,-9.4509,-9.4509,-9.4509,-9.4509,-9.4509,-9.4509,-9.4509,-9.4449,-9.4419,-9.4419,-9.3133,-9.2474,-9.2415,-8.9842,-8.8585,-8.8525,-8.7313,-8.6714,-6.4711,-6.3096,-6.1779,-6.0493,-5.9873,-5.9275,-5.796,-5.7392,-5.6765,-5.5497,-5.5227,0.0,0.0,0.0,-5.6035,-5.5838,0.0,-5.786,-5.6555,-5.8488,-6.1277,-6.4703,-6.6877,-6.926,-7.2101,-7.4404,-7.6439,-7.8047,-8.0319,-8.2452,-8.4169,-8.667,-8.8854,-9.053,-9.1846,-9.3163,-9.4479,-9.4509,-9.4509,-9.4509,-9.4509,-9.4509,-9.4509,-9.4509,-9.4509,-9.4509,-9.4509,-9.4509,-9.4509,-9.4509,-9.4509,-9.4509,-9.4509,-9.4509,-9.4509,-9.4509,-9.4509,-9.4509,-9.4509,-9.488,-9.5704,-9.7074,-9.7987,-9.8574,-9.902,-9.9167,-9.9167,-9.9419,-9.9492,-9.9492,-9.9492,-9.9492,-9.9492,-9.9492,-9.9346,-9.8914,-9.8288,-9.7987,-9.7685,-9.7105,-9.6951,-9.6951,-9.6951,-9.8018,-9.8797,-9.8797,-9.8797,-9.8797,-9.8797,-9.8062,-9.7304,-9.672,-9.594,-9.5229,-9.4509,-9.4509,-9.4509,-9.4509,-9.4509,-9.4509,-9.4509,-9.3581,-9.3073,-9.3073,-9.1786,-9.0649,-8.9692,-8.8974,-8.8136,-8.7179,-8.6894,-8.6714,-6.1271,-5.9176,-5.7591,-5.6843,-5.6663,-5.6484,-5.5706,-5.5945,-5.5975,-5.4659,0.0,0.0,0.0,0.0,0.0,0.0,-6.0313,-6.139,-6.0104,-6.2138,-6.501,-6.8329,-6.9827,-7.1443,-7.3507,-7.6045,-7.8376,-8.0328,-8.2422,-8.4157,-8.5517,-8.8017,-9.0051,-9.1368,-9.2684,-9.3731,-9.4509,-9.4509,-9.4509,-9.4509,-9.4509,-9.4509,-9.4509,-9.4509,-9.4509,-9.4509,-9.4509,-9.4509,-9.4509,-9.4509,-9.4509,-9.4509,-9.4509,-9.4509,-9.4509,-9.4509,-9.4509,-9.4509,-9.491,-9.5388,-9.6019,-9.7228,-9.8244,-9.902,-9.9419,-9.9492,-9.9492,-9.9492,-9.9492,-9.9492,-9.9492,-9.9492,-9.9492,-9.9492,-9.9492,-9.9419,-9.884,-9.8766,-9.8617,-9.8124,-9.8049,-9.8049,-9.8049,-9.8872,-9.9492,-9.9492,-9.9492,-9.9492,-9.9492,-9.8692,-9.7987,-9.7533,-9.6797,-9.594,-9.515,-9.504,-9.491,-9.4479,-9.4509,-9.467,-9.507,-9.4059,-9.3093,-9.2194,-9.0947,-8.9742,-8.8615,-8.8047,-8.7463,-8.6714,-8.6714,-8.6714,-5.7441,-5.4898,-5.3013,-5.3013,-5.3133,-5.3283,-5.3462,0.0,-5.5197,-5.433,0.0,-5.7352,-5.6484,0.0,0.0,-5.8638,-6.1301,-6.3185,-6.1922,-6.4203,-6.7374,-7.0964,-7.24,-7.3716,-7.5152,-7.733,-7.9901,-8.2811,-8.4187,-8.5547,-8.6894,-8.9363,-9.1338,-9.2504,-9.3821,-9.4509,-9.4509,-9.4509,-9.4509,-9.4509,-9.4509,-9.4509,-9.4509,-9.4509,-9.4509,-9.4509,-9.4509,-9.4509,-9.4509,-9.4509,-9.4509,-9.4509,-9.4509,-9.4509,-9.4509,-9.4589,-9.467,-9.475,-9.5625,-9.6019,-9.6253,-9.6874,-9.7716,-9.8437,-9.9241,-9.9492,-9.9492,-9.9492,-9.9492,-9.9492,-9.9492,-9.9492,-9.9492,-9.9492,-9.9492,-9.9492,-9.9492,-9.9492,-9.9492,-9.9492,-9.9492,-9.9492,-9.9492,-9.9492,-9.9492,-9.9492,-9.9492,-9.9492,-9.9492,-9.884,-9.8288,-9.8213,-9.7533,-9.6797,-9.6019,-9.594,-9.5625,-9.48,-9.475,-9.5059,-9.5697,-9.5204,-9.3828,-9.1599,-9.0234,-8.9198,-8.8406,-8.7283,-8.6818,-8.6935,-8.6935,-8.6935,-5.4719,-5.2804,-5.1533,-5.1637,-5.2475,-5.3522,0.0,0.0,0.0,-5.9147,-5.9924,-6.0852,-6.2707,-6.3664,-6.4382,-6.5066,-6.6683,-6.7401,-6.6084,-6.9947,-7.3238,-7.4015,-7.4315,-7.5422,-7.7719,-7.8406,-8.0328,-8.4139,-8.5606,-8.6924,-8.8166,-9.0739,-9.2265,-9.2534,-9.3821,-9.4509,-9.4509,-9.4509,-9.4509,-9.4509,-9.4509,-9.4509,-9.4509,-9.4509,-9.4509,-9.4509,-9.4509,-9.4509,-9.4509,-9.4509,-9.4509,-9.4509,-9.4509,-9.4509,-9.4589,-9.5309,-9.5546,-9.5704,-9.6487,-9.7182,-9.776,-9.7912,-9.8543,-9.9314,-9.9492,-9.9492,-9.9492,-9.9492,-9.9492,-9.9492,-9.9492,-9.9492,-9.9492,-9.9492,-9.9492,-9.9492,-9.9492,-9.9492,-9.9492,-9.9492,-9.9492,-9.9492,-9.9492,-9.9492,-9.9492,-9.9492,-9.9492,-9.9492,-9.9492,-9.9419,-9.902,-9.8213,-9.8062,-9.7609,-9.6874,-9.6797,-9.672,-9.6565,-9.6487,-9.6045,-9.5066,-9.4881,-9.3399,-9.0204,-8.887,-8.7809,-8.7104,-8.6834,-8.7374,-8.8596,-8.8596,-8.824,-5.1757,-5.0667,-5.0158,-5.0231,-5.2266,0.0,0.0,-5.7232,-5.9446,-6.0732,-6.2049,-6.3395,-6.4681,-6.6057,-6.7194,-6.794,-6.9648,-7.0934,-7.0934,-7.3776,-7.608,-7.6672,-7.7456,-7.8653,-8.0627,-8.1375,-8.2542,-8.4618,-8.6595,-8.8495,-9.047,-9.1816,-9.2833,-9.3492,-9.415,-9.4509,-9.4509,-9.4509,-9.4509,-9.4509,-9.4509,-9.4509,-9.4509,-9.4509,-9.4509,-9.4509,-9.4509,-9.4509,-9.4509,-9.4509,-9.4509,-9.4509,-9.4509,-9.475,-9.5229,-9.5625,-9.6097,-9.6565,-9.7335,-9.7836,-9.8213,-9.8692,-9.9167,-9.9492,-9.9492,-9.9492,-9.9492,-9.9492,-9.9492,-9.9492,-9.9492,-9.9492,-9.9492,-9.9492,-9.9492,-9.9492,-9.9492,-9.9492,-9.9492,-9.9492,-9.9492,-9.9492,-9.9492,-9.9492,-9.9492,-9.9492,-9.9492,-9.9492,-9.9492,-9.9492,-9.9346,-9.8946,-9.884,-9.8543,-9.764,-9.7533,-9.738,-9.7028,-9.6276,-9.5828,-9.5525,-9.4135,-9.2807,-9.1582,-8.9808,-8.8566,-8.7881,-8.7881,-8.824,-8.9021,-8.9021,-8.8596,-4.9142,-4.8963,-4.9232,-4.9501,-5.2445,0.0,-5.6185,-5.8967,-6.163,-6.2461,-6.4232,-6.5788,-6.6057,-6.8092,-6.9737,-6.9737,-7.1742,-7.3836,-7.5392,-7.6977,-7.8317,-7.9393,-8.0567,-8.1764,-8.308,-8.4337,-8.5247,-8.5517,-8.7658,-9.0021,-9.2415,-9.2774,-9.3402,-9.4479,-9.4509,-9.4509,-9.4509,-9.4509,-9.4509,-9.4509,-9.4509,-9.4509,-9.4509,-9.4509,-9.4509,-9.4509,-9.4509,-9.4509,-9.4509,-9.4509,-9.4559,-9.475,-9.475,-9.5309,-9.6097,-9.6253,-9.672,-9.7335,-9.8138,-9.8437,-9.8512,-9.9272,-9.9492,-9.9492,-9.9492,-9.9492,-9.9492,-9.9492,-9.9492,-9.9492,-9.9492,-9.9492,-9.9492,-9.9492,-9.9492,-9.9492,-9.9492,-9.9492,-9.9492,-9.9492,-9.9492,-9.9492,-9.9492,-9.9492,-9.9492,-9.9492,-9.9492,-9.9492,-9.9492,-9.9492,-9.9492,-9.9492,-9.9492,-9.9314,-9.8778,-9.8586,-9.8088,-9.7464,-9.6081,-9.547,-9.5621,-9.341,-9.2451,-9.2883,-9.1006,-8.9657,-8.9021,-8.9301,-8.9441,-8.9441,-8.9441,-8.9021,-4.7808,-4.8275,-4.9513,-5.074,-5.3163,0.0,-5.9565,-6.16,-6.3754,-6.7344,-6.8331,-6.887,-7.0066,-7.1472,-7.246,-7.246,-7.3686,-7.5511,-7.7928,-8.0537,-8.2213,-8.2362,-8.2512,-8.311,-8.4439,-8.5756,-8.7014,-8.8077,-8.9543,-9.0979,-9.2474,-9.3641,-9.4359,-9.4509,-9.4509,-9.4509,-9.4509,-9.4509,-9.4509,-9.4509,-9.4509,-9.4509,-9.4509,-9.4509,-9.4509,-9.4509,-9.4509,-9.4509,-9.4509,-9.4509,-9.499,-9.5704,-9.5704,-9.6175,-9.6951,-9.7609,-9.7987,-9.8138,-9.9093,-9.9419,-9.9419,-9.9492,-9.9492,-9.9492,-9.9492,-9.9492,-9.9492,-9.9492,-9.9492,-9.9492,-9.9492,-9.9492,-9.9492,-9.9492,-9.9492,-9.9492,-9.9492,-9.9492,-9.9492,-9.9492,-9.9492,-9.9492,-9.9492,-9.9492,-9.9492,-9.9492,-9.9492,-9.9492,-9.9492,-9.9492,-9.9492,-9.9492,-9.9492,-9.9866,-10.0702,-9.9938,-9.9184,-9.8744,-9.7669,-9.6069,-9.3751,-9.3343,-9.2625,-9.1403,-9.0507,-8.9657,-8.9021,-9.0308,-9.095,-9.095,-9.095,-9.0512,-4.8275,-4.9393,-5.0919,-5.3043,0.0,0.0,-6.16,-6.4437,-6.6955,-6.8689,-7.0186,-7.1413,-7.1981,-7.3148,-7.4045,-7.4045,-7.7097,-7.9879,-8.0986,-8.2751,-8.3918,-8.3918,-8.5264,-8.6401,-8.7014,-8.8166,-8.9184,-8.9722,-9.0979,-9.1936,-9.2504,-9.3791,-9.4509,-9.4509,-9.4509,-9.4509,-9.4509,-9.4509,-9.4509,-9.4509,-9.4509,-9.4509,-9.4509,-9.4509,-9.4509,-9.4509,-9.4509,-9.4509,-9.4509,-9.507,-9.5467,-9.5862,-9.6331,-9.7028,-9.7685,-9.8062,-9.8512,-9.902,-9.9419,-9.9492,-9.9492,-9.9492,-9.9492,-9.9492,-9.9492,-9.9492,-9.9492,-9.9492,-9.9492,-9.9492,-9.9492,-9.9492,-9.9492,-9.9492,-9.9492,-9.9492,-9.9492,-9.9492,-9.9492,-9.9492,-9.9492,-9.9492,-9.9492,-9.9492,-9.9753,-10.0339,-9.9898,-9.9753,-10.0339,-9.9866,-9.9753,-10.0339,-10.041,-10.0875,-10.1889,-10.0249,-9.9374,-9.9825,-9.6785,-9.5009,-9.5008,-9.3714,-9.2684,-9.208,-9.1785,-9.1155,-9.0239,-9.0851,-9.112,-9.1218,-9.1785,-9.1951,-4.8813,0.0,0.0,0.0,0.0,0.0,-6.4173,-6.6922,-6.9228,-6.9917,-7.1562,-7.3028,-7.3357,-7.4823,-7.6199,-7.6947,-8.0597,-8.335,-8.335,-8.4756,-8.5846,-8.5846,-8.7777,-8.9154,-8.9154,-9.035,-9.1128,-9.1128,-9.2355,-9.3073,-9.3073,-9.4,-9.4509,-9.4509,-9.4509,-9.4509,-9.4509,-9.4509,-9.4509,-9.4509,-9.4509,-9.4509,-9.4509,-9.4509,-9.4509,-9.4509,-9.4509,-9.4589,-9.491,-9.5783,-9.6253,-9.6534,-9.7074,-9.7836,-9.8512,-9.8512,-9.8914,-9.9492,-9.9492,-9.9492,-9.9492,-9.9492,-9.9492,-9.9492,-9.9492,-9.9492,-9.9492,-9.9492,-9.9492,-9.9492,-9.9492,-9.9492,-9.9492,-9.9492,-9.9492,-9.9492,-9.9492,-9.9492,-9.9492,-9.9492,-9.9492,-9.9492,-9.9492,-9.9753,-10.0195,-10.0984,-10.0695,-10.0624,-10.1404,-10.0875,-10.0695,-10.1404,-10.1543,-10.1796,-10.2419,-10.0609,-9.947,-9.971,-9.6165,-9.4553,-9.555,-9.3979,-9.2954,-9.273,-9.273,-9.2211,-9.112,-9.1687,-9.1919,-9.1984,-9.273,-9.3241,0.0,0.0,0.0,-5.799,-6.0972,-6.3933,-6.7882,-6.8958,-6.9707,-7.225,-7.2849,-7.3297,-7.4554,-7.6852,-7.9452,-8.2183,-8.3739,-8.4708,-8.4708,-8.6954,-8.8495,-8.8495,-8.9692,-9.053,-9.053,-9.1697,-9.2474,-9.2474,-9.3701,-9.4449,-9.4449,-9.4479,-9.4509,-9.4509,-9.4509,-9.4509,-9.4509,-9.4509,-9.4509,-9.4509,-9.4509,-9.4509,-9.4509,-9.4509,-9.4509,-9.4509,-9.4509,-9.499,-9.5862,-9.6642,-9.738,-9.8138,-9.8138,-9.8692,-9.9492,-9.9492,-9.9492,-9.9492,-9.9492,-9.9492,-9.9492,-9.9492,-9.9492,-9.9492,-9.9492,-9.9492,-9.9492,-9.9492,-9.9492,-9.9492,-9.9492,-9.9492,-9.9492,-9.9492,-9.9492,-9.9492,-9.9492,-9.9492,-9.9492,-9.9492,-9.9492,-9.9492,-9.9492,-10.0339,-10.1055,-10.1055,-10.1958,-10.257,-10.257,-10.257,-10.257,-10.257,-10.257,-10.2453,-10.2113,-10.1081,-9.9709,-9.798,-9.6733,-9.5518,-9.4212,-9.4052,-9.3649,-9.273,-9.273,-9.2211,-9.112,-9.3049,-9.399,-9.399,-9.402,-9.402,-5.1278,-5.3223,-5.5706,-6.0493,-6.2976,-6.51,-6.83,-7.0336,-7.1831,-7.2729,-7.4285,-7.5836,-7.7151,-8.0328,-8.2991,-8.3918,-8.5217,-8.6385,-8.7253,-8.8047,-8.8944,-8.9812,-9.1068,-9.1876,-9.1876,-9.3073,-9.3821,-9.3821,-9.424,-9.4509,-9.4509,-9.4509,-9.4509,-9.4509,-9.4509,-9.4509,-9.4509,-9.4509,-9.4509,-9.4509,-9.4509,-9.4509,-9.4509,-9.4509,-9.4509,-9.4509,-9.515,-9.5546,-9.594,-9.7228,-9.7912,-9.8213,-9.884,-9.9241,-9.9492,-9.9492,-9.9492,-9.9492,-9.9492,-9.9492,-9.9492,-9.9492,-9.9492,-9.9492,-9.9492,-9.9492,-9.9492,-9.9492,-9.9492,-9.9492,-9.9492,-9.9492,-9.9492,-9.9492,-9.9492,-9.9492,-9.9492,-9.9492,-9.9784,-10.041,-10.0521,-10.0734,-10.1506,-10.1889,-10.2367,-10.314,-10.2907,-10.2907,-10.3701,-10.314,-10.2907,-10.3701,-10.3767,-10.3662,-10.3242,-10.1403,-9.9796,-9.8868,-9.6308,-9.5188,-9.6105,-9.551,-9.4999,-9.4637,-9.4637,-9.4147,-9.3113,-9.3804,-9.4082,-9.4114,-9.4786,-9.512,-5.3103,-5.5257,-5.777,-6.2497,-6.504,-6.6955,-6.9169,-7.1353,-7.3028,-7.3507,-7.5691,-7.7868,-7.9213,-8.2362,-8.4918,-8.5397,-8.6565,-8.7658,-8.8495,-8.9423,-9.035,-9.1188,-9.2445,-9.3252,-9.3252,-9.4,-9.4509,-9.4509,-9.4509,-9.4509,-9.4509,-9.4509,-9.4509,-9.4509,-9.4509,-9.4509,-9.4509,-9.4509,-9.4509,-9.4509,-9.4509,-9.4509,-9.4509,-9.4509,-9.4509,-9.4509,-9.5704,-9.6409,-9.6766,-9.8062,-9.8692,-9.8692,-9.9314,-9.9492,-9.9492,-9.9492,-9.9492,-9.9492,-9.9492,-9.9492,-9.9492,-9.9492,-9.9492,-9.9492,-9.9492,-9.9492,-9.9492,-9.9492,-9.9492,-9.9492,-9.9492,-9.9492,-9.9492,-9.9492,-9.9492,-9.9492,-9.9492,-9.9825,-10.0267,-10.0914,-10.1404,-10.1889,-10.2503,-10.2974,-10.3537,-10.4256,-10.4093,-10.406,-10.4866,-10.4287,-10.4158,-10.4866,-10.4464,-10.3817,-10.3053,-10.1036,-9.9509,-9.8597,-9.6485,-9.5779,-9.7123,-9.6543,-9.6013,-9.5654,-9.5654,-9.551,-9.5179,-9.5179,-9.5179,-9.5179,-9.5896,-9.6221,-5.421,-5.7292,-6.0202,-6.4083,-6.7015,-6.9318,-7.0725,-7.2071,-7.3387,-7.4793,-7.7097,-7.9273,-8.0777,-8.311,-8.5307,-8.6595,-8.7807,-8.8645,-8.8795,-9.0979,-9.2564,-9.2624,-9.3731,-9.4509,-9.4509,-9.4509,-9.4509,-9.4509,-9.4509,-9.4509,-9.4509,-9.4509,-9.4509,-9.4509,-9.4509,-9.4509,-9.4509,-9.4509,-9.4509,-9.4509,-9.4509,-9.4509,-9.4509,-9.4509,-9.4479,-9.464,-9.6331,-9.7487,-9.8213,-9.9167,-9.9492,-9.9492,-9.9492,-9.9492,-9.9492,-9.9492,-9.9492,-9.9492,-9.9492,-9.9492,-9.9492,-9.9492,-9.9492,-9.9492,-9.9492,-9.9492,-9.9492,-9.9492,-9.9492,-9.9492,-9.9492,-9.9492,-9.9492,-9.9492,-9.9492,-9.9492,-9.9492,-10.0339,-10.1125,-10.1195,-10.2095,-10.2773,-10.2773,-10.3767,-10.4449,-10.4449,-10.5308,-10.5962,-10.5962,-10.5962,-10.5962,-10.5962,-10.4655,-10.318,-10.1579,-10.0105,-9.8755,-9.7313,-9.7213,-9.7213,-9.7213,-9.7213,-9.6749,-9.5746,-9.5746,-9.6188,-9.7213,-9.7213,-9.7213,-9.7213,-9.7213,-9.7179,-5.5317,-5.9296,-6.2707,-6.5784,-6.7791,-6.9588,-7.1861,-7.3417,-7.5003,-7.724,-7.9131,-8.1016,-8.329,-8.5127,-8.6654,-8.7897,-8.8406,-8.9303,-9.1248,-9.2115,-9.2893,-9.3881,-9.4299,-9.4509,-9.4509,-9.4509,-9.4509,-9.4509,-9.4509,-9.4509,-9.4509,-9.4509,-9.4509,-9.4509,-9.4509,-9.4509,-9.4509,-9.4509,-9.4509,-9.4509,-9.4509,-9.4509,-9.4509,-9.4509,-9.48,-9.5546,-9.7151,-9.7987,-9.8213,-9.9167,-9.9492,-9.9492,-9.9492,-9.9492,-9.9492,-9.9492,-9.9492,-9.9492,-9.9492,-9.9492,-9.9492,-9.9492,-9.9492,-9.9492,-9.9492,-9.9492,-9.9492,-9.9492,-9.9492,-9.9492,-9.9492,-9.9492,-9.9492,-9.9492,-9.9492,-9.9492,-9.9492,-10.0339,-10.1543,-10.3206,-10.3767,-10.4158,-10.4959,-10.537,-10.5591,-10.5591,-10.5744,-10.5962,-10.5962,-10.5962,-10.5962,-10.5962,-10.4655,-10.318,-10.1579,-10.0105,-9.8755,-9.7313,-9.7213,-9.7213,-9.7213,-9.7213,-9.7066,-9.6806,-9.6806,-9.6919,-9.7213,-9.7213,-9.7213,-9.7213,-9.7213,-9.6576,-5.5168,-5.9984,-6.4472,-6.7252,-6.887,-7.0366,-7.243,-7.3896,-7.5601,-7.8167,-8.0358,-8.2512,-8.5157,-8.6235,-8.688,-8.7628,-8.8735,-8.9991,-9.1457,-9.2654,-9.3671,-9.4419,-9.4509,-9.4509,-9.4509,-9.4509,-9.4509,-9.4509,-9.4509,-9.4509,-9.4509,-9.4509,-9.4509,-9.4509,-9.4509,-9.4509,-9.4509,-9.4509,-9.4509,-9.4509,-9.4509,-9.4509,-9.4509,-9.491,-9.5674,-9.6921,-9.7729,-9.8362,-9.8766,-9.9314,-9.9492,-9.9492,-9.9492,-9.9492,-9.9492,-9.9492,-9.9492,-9.9492,-9.9492,-9.9492,-9.9492,-9.9492,-9.9492,-9.9492,-9.9492,-9.9492,-9.9492,-9.9492,-9.9492,-9.9492,-9.9492,-9.9492,-9.9492,-9.9492,-9.9492,-9.9607,-10.0083,-10.1016,-10.2299,-10.4061,-10.4738,-10.5245,-10.5839,-10.5962,-10.5962,-10.5962,-10.5962,-10.5962,-10.5962,-10.5962,-10.5727,-10.509,-10.3682,-10.2174,-10.0641,-9.9224,-9.8051,-9.7246,-9.7213,-9.7213,-9.7213,-9.7213,-9.7213,-9.7213,-9.7213,-9.7213,-9.7213,-9.7213,-9.7213,-9.7179,-9.6509,-9.5682,-5.4719,-5.9835,-6.513,-6.8211,-6.9947,-7.1323,-7.2819,-7.4045,-7.5691,-7.8645,-8.1196,-8.3619,-8.6235,-8.6714,-8.6774,-8.688,-8.8974,-9.0649,-9.0829,-9.2953,-9.4509,-9.4509,-9.4509,-9.4509,-9.4509,-9.4509,-9.4509,-9.4509,-9.4509,-9.4509,-9.4509,-9.4509,-9.4509,-9.4509,-9.4509,-9.4509,-9.4509,-9.4509,-9.4509,-9.4509,-9.4509,-9.4509,-9.467,-9.5625,-9.6689,-9.8062,-9.8213,-9.8766,-9.9492,-9.9492,-9.9492,-9.9492,-9.9492,-9.9492,-9.9492,-9.9492,-9.9492,-9.9492,-9.9492,-9.9492,-9.9492,-9.9492,-9.9492,-9.9492,-9.9492,-9.9492,-9.9492,-9.9492,-9.9492,-9.9492,-9.9492,-9.9492,-9.9492,-9.9492,-9.9784,-10.0227,-10.1265,-10.2231,-10.3206,-10.4385,-10.5308,-10.5962,-10.5962,-10.5962,-10.5962,-10.5962,-10.5962,-10.5962,-10.5962,-10.5794,-10.5191,-10.3951,-10.2241,-10.0641,-9.9459,-9.8017,-9.7213,-9.7213,-9.7213,-9.7213,-9.7213,-9.7213,-9.7213,-9.7213,-9.7213,-9.7213,-9.7213,-9.7213,-9.7079,-9.6844,-9.5448,-9.4644,-5.5826,-5.9206,-6.2856,-6.782,-6.9947,-7.1562,-7.3986,-7.4704,-7.6229,-8.1106,-8.2482,-8.3619,-8.6235,-8.6714,-8.7,-8.8107,-8.9572,-9.0949,-9.2056,-9.3522,-9.4509,-9.4509,-9.4509,-9.4509,-9.4509,-9.4509,-9.4509,-9.4509,-9.4509,-9.4509,-9.4509,-9.4509,-9.4509,-9.4509,-9.4509,-9.4509,-9.4509,-9.4509,-9.4509,-9.4509,-9.4509,-9.491,-9.5625,-9.6409,-9.6951,-9.7258,-9.8723,-9.9419,-9.9492,-9.9492,-9.9492,-9.9492,-9.9492,-9.9492,-9.9492,-9.9492,-9.9492,-9.9492,-9.9492,-9.9492,-9.9492,-9.9492,-9.9492,-9.9492,-9.9492,-9.9492,-9.9492,-9.9492,-9.9492,-9.9492,-9.9492,-9.9492,-9.9492,-9.9492,-10.0837,-10.2468,-10.357,-10.3996,-10.4385,-10.5495,-10.5839,-10.5962,-10.5962,-10.5962,-10.5962,-10.5962,-10.5962,-10.5962,-10.5962,-10.4923,-10.4085,-10.3817,-10.1336,-9.9626,-9.9392,-9.8017,-9.7213,-9.7213,-9.7213,-9.7213,-9.7213,-9.7213,-9.7213,-9.7213,-9.7213,-9.7213,-9.7213,-9.7213,-9.6542,-9.5247,-9.4945,-9.3572,-5.7063,-6.0583,-6.3844,-6.7192,-6.9468,-7.1622,-7.4255,-7.4853,-7.617,-8.0837,-8.2362,-8.338,-8.5367,-8.6265,-8.6924,-8.7553,-8.8705,-9.0021,-9.1338,-9.2654,-9.3731,-9.4419,-9.4509,-9.4509,-9.4509,-9.4509,-9.4509,-9.4509,-9.4509,-9.4509,-9.4509,-9.4509,-9.4509,-9.4509,-9.4509,-9.4509,-9.4509,-9.4509,-9.4509,-9.4509,-9.4509,-9.475,-9.515,-9.6409,-9.7518,-9.835,-9.9198,-9.9492,-9.9492,-9.9492,-9.9492,-9.9492,-9.9492,-9.9492,-9.9492,-9.9492,-9.9492,-9.9492,-9.9492,-9.9492,-9.9492,-9.9492,-9.9492,-9.9492,-9.9492,-9.9492,-9.9492,-9.9492,-9.9492,-9.9492,-9.9492,-9.997,-10.0339,-10.0339,-10.199,-10.3701,-10.4256,-10.4802,-10.5308,-10.5839,-10.5962,-10.5962,-10.5962,-10.5962,-10.5962,-10.5962,-10.5962,-10.5962,-10.5962,-10.4722,-10.3515,-10.271,-10.0666,-9.9057,-9.8285,-9.7582,-9.7213,-9.7213,-9.7213,-9.7213,-9.7213,-9.7213,-9.7213,-9.7213,-9.7213,-9.7213,-9.7213,-9.7213,-9.6408,-9.4811,-9.4074,-9.2567,-5.793,-6.1749,-6.4921,-6.6653,-6.9048,-7.1622,-7.4255,-7.4853,-7.59,-7.964,-8.1704,-8.32,-8.4529,-8.5846,-8.6714,-8.6714,-8.7748,-8.9064,-9.038,-9.1697,-9.3013,-9.4359,-9.4509,-9.4509,-9.4509,-9.4509,-9.4509,-9.4509,-9.4509,-9.4509,-9.4509,-9.4509,-9.4509,-9.4509,-9.4509,-9.4509,-9.4509,-9.4509,-9.4509,-9.4509,-9.4509,-9.4509,-9.4509,-9.6019,-9.7564,-9.902,-9.9346,-9.9492,-9.9492,-9.9492,-9.9492,-9.9492,-9.9492,-9.9492,-9.9492,-9.9492,-9.9492,-9.9492,-9.9492,-9.9492,-9.9492,-9.9492,-9.9492,-9.9492,-9.9492,-9.9492,-9.9492,-9.9492,-9.9492,-9.9492,-9.9492,-10.0267,-10.1195,-10.1682,-10.3273,-10.4705,-10.4705,-10.537,-10.5962,-10.5962,-10.5962,-10.5962,-10.5962,-10.5962,-10.5962,-10.5962,-10.5962,-10.5828,-10.5526,-10.4219,-10.2744,-10.1202,-9.976,-9.842,-9.7313,-9.7213,-9.7213,-9.7213,-9.7213,-9.7213,-9.7213,-9.7213,-9.7213,-9.7213,-9.7213,-9.7213,-9.7213,-9.6878,-9.5939,-9.4342,-9.2902,-9.1461,-5.7691,-6.1091,-6.3754,-6.6413,-6.9048,-7.1622,-7.4255,-7.4853,-7.5631,-7.8346,-8.1046,-8.32,-8.4529,-8.5846,-8.6714,-8.6714,-8.7748,-8.9064,-9.038,-9.1697,-9.3013,-9.4359,-9.4509,-9.4509,-9.4509,-9.4509,-9.4509,-9.4509,-9.4509,-9.4509,-9.4509,-9.4509,-9.4509,-9.4509,-9.4509,-9.4509,-9.4509,-9.4509,-9.4509,-9.4509,-9.4509,-9.4509,-9.4509,-9.5437,-9.6409,-9.7335,-9.8872,-9.9492,-9.9492,-9.9492,-9.9492,-9.9492,-9.9492,-9.9492,-9.9492,-9.9492,-9.9492,-9.9492,-9.9492,-9.9492,-9.9492,-9.9492,-9.9492,-9.9492,-9.9492,-9.9492,-9.9492,-9.9492,-9.9492,-9.9492,-9.9492,-10.0267,-10.1613,-10.3636,-10.4993,-10.5839,-10.5839,-10.59,-10.5962,-10.5962,-10.5962,-10.5962,-10.5962,-10.5962,-10.5962,-10.5962,-10.5962,-10.5493,-10.4185,-10.2643,-10.1076,-9.9693,-9.8252,-9.7347,-9.7213,-9.7213,-9.7213,-9.7213,-9.7213,-9.7213,-9.7213,-9.7213,-9.7213,-9.7213,-9.7213,-9.7213,-9.7213,-9.5805,-9.4309,-9.2835,-9.1447,-8.992,-5.7871,-6.1001,-6.3634,-6.6383,-6.8449,-7.0216,-7.2071,-7.3118,-7.4434,-7.7001,-7.976,-8.2033,-8.332,-8.4678,-8.5786,-8.6595,-8.7089,-8.7897,-8.9213,-9.053,-9.1846,-9.3163,-9.4,-9.4509,-9.4509,-9.4509,-9.4509,-9.4509,-9.4509,-9.4509,-9.4509,-9.4509,-9.4509,-9.4509,-9.4509,-9.4509,-9.4509,-9.4509,-9.4509,-9.4509,-9.4509,-9.475,-9.5309,-9.6175,-9.6951,-9.776,-9.902,-9.9492,-9.9492,-9.9492,-9.9492,-9.9492,-9.9492,-9.9492,-9.9492,-9.9492,-9.9492,-9.9492,-9.9492,-9.9492,-9.9492,-9.9492,-9.9492,-9.9492,-9.9492,-9.9492,-9.9492,-9.9492,-9.9938,-10.0481,-10.0481,-10.1783,-10.3273,-10.4191,-10.5182,-10.5962,-10.5962,-10.5962,-10.5962,-10.5962,-10.5962,-10.5962,-10.5962,-10.5962,-10.5962,-10.5962,-10.5962,-10.5426,-10.3984,-10.2476,-10.0909,-9.9492,-9.8051,-9.7213,-9.7213,-9.7213,-9.7213,-9.7213,-9.7213,-9.7213,-9.7213,-9.7213,-9.7213,-9.7213,-9.7213,-9.6743,-9.5783,-9.5146,-9.3672,-9.1447,-9.0877,-8.9771,-5.79,-6.0732,-6.3126,-6.6293,-6.806,-6.9377,-7.0635,-7.1652,-7.2938,-7.5182,-7.8114,-8.0537,-8.1465,-8.2991,-8.4618,-8.5936,-8.6145,-8.6744,-8.8376,-8.9752,-9.1068,-9.2385,-9.3701,-9.4509,-9.4509,-9.4509,-9.4509,-9.4509,-9.4509,-9.4509,-9.4509,-9.4509,-9.4509,-9.4509,-9.4509,-9.4509,-9.4509,-9.4509,-9.4509,-9.4509,-9.4509,-9.499,-9.5862,-9.6874,-9.7609,-9.8213,-9.9167,-9.9492,-9.9492,-9.9492,-9.9492,-9.9492,-9.9492,-9.9492,-9.9492,-9.9492,-9.9492,-9.9492,-9.9492,-9.9492,-9.9492,-9.9492,-9.9492,-9.9492,-9.9492,-9.9492,-9.9565,-9.9866,-10.0553,-10.1125,-10.1474,-10.3206,-10.4866,-10.4866,-10.5433,-10.5962,-10.5962,-10.5962,-10.5962,-10.5962,-10.5962,-10.5962,-10.5962,-10.5962,-10.5962,-10.5962,-10.5962,-10.5426,-10.3984,-10.2476,-10.0708,-9.8922,-9.7816,-9.7213,-9.7213,-9.7213,-9.7213,-9.7213,-9.7213,-9.7213,-9.7213,-9.7213,-9.7213,-9.7213,-9.7213,-9.6442,-9.4845,-9.4409,-9.2935,-9.0576,-9.014,-8.9283,-5.7661,-6.0074,-6.2041,-6.6054,-6.806,-6.9377,-7.0635,-7.0934,-7.1323,-7.2669,-7.605,-7.8735,-7.8735,-8.0947,-8.326,-8.4588,-8.4798,-8.5696,-8.8256,-8.9752,-9.1068,-9.2385,-9.3701,-9.4509,-9.4509,-9.4509,-9.4509,-9.4509,-9.4509,-9.4509,-9.4509,-9.4509,-9.4509,-9.4509,-9.4509,-9.4509,-9.4509,-9.4509,-9.4509,-9.4509,-9.4509,-9.499,-9.5862,-9.7457,-9.8138,-9.8213,-9.9167,-9.9492,-9.9492,-9.9492,-9.9492,-9.9492,-9.9492,-9.9492,-9.9492,-9.9492,-9.9492,-9.9492,-9.9492,-9.9492,-9.9492,-9.9492,-9.9492,-9.9492,-9.9492,-9.9492,-9.9753,-10.0805,-10.1055,-10.1335,-10.2367,-10.4254,-10.5962,-10.5962,-10.5962,-10.5962,-10.5962,-10.5962,-10.5962,-10.5962,-10.5962,-10.5962,-10.5962,-10.5962,-10.5962,-10.5962,-10.5962,-10.5426,-10.3984,-10.2476,-10.0397,-9.7548,-9.7213,-9.7213,-9.7213,-9.7213,-9.7213,-9.7213,-9.7213,-9.7213,-9.7213,-9.7213,-9.7213,-9.7213,-9.7213,-9.6442,-9.4845,-9.3404,-9.1964,-9.0576,-8.8982,-8.8278,-5.5497,-5.807,-6.0463,-6.3485,-6.5994,-6.803,-6.9289,-7.0276,-7.1293,-7.2609,-7.3896,-7.5571,-7.8227,-7.9423,-8.0807,-8.305,-8.4199,-8.5067,-8.5876,-8.7837,-8.9722,-9.1038,-9.2355,-9.3522,-9.4419,-9.4509,-9.4509,-9.4509,-9.4509,-9.4509,-9.4509,-9.4509,-9.4509,-9.4509,-9.4509,-9.4509,-9.4509,-9.4509,-9.4509,-9.4509,-9.515,-9.5862,-9.6642,-9.7685,-9.8512,-9.9093,-9.9419,-9.9492,-9.9492,-9.9492,-9.9492,-9.9492,-9.9492,-9.9492,-9.9492,-9.9492,-9.9938,-10.045,-9.9753,-10.0011,-10.0481,-9.9753,-9.9492,-9.9638,-10.0339,-10.0592,-10.0805,-10.1889,-10.2705,-10.357,-10.4608,-10.54,-10.5962,-10.5962,-10.5962,-10.5962,-10.5962,-10.5962,-10.5962,-10.5962,-10.5962,-10.5962,-10.5962,-10.5962,-10.5962,-10.5962,-10.5124,-10.4319,-10.3884,-10.1604,-9.9693,-9.8755,-9.7783,-9.7213,-9.7213,-9.7213,-9.7213,-9.7213,-9.7213,-9.7213,-9.7213,-9.7213,-9.7213,-9.7213,-9.6174,-9.4845,-9.3371,-9.193,-9.0456,-8.8948,-8.8479,-8.8245,-5.4509,-5.7093,-5.9694,-6.2348,-6.4287,-6.5874,-6.7134,-6.887,-7.0425,-7.1263,-7.1831,-7.3058,-7.602,-7.73,-7.8675,-8.0926,-8.2811,-8.4157,-8.4708,-8.7014,-8.9094,-9.041,-9.1727,-9.3043,-9.4359,-9.4509,-9.4509,-9.4509,-9.4509,-9.4509,-9.4509,-9.4509,-9.4509,-9.4509,-9.4509,-9.4509,-9.4509,-9.4509,-9.4509,-9.4509,-9.5704,-9.6565,-9.7028,-9.8169,-9.8988,-9.9492,-9.9492,-9.9492,-9.9492,-9.9492,-9.9492,-9.9492,-9.9492,-9.9492,-9.9565,-9.9938,-10.0521,-10.0984,-10.0339,-10.0553,-10.1016,-10.0339,-10.0083,-10.0267,-10.1335,-10.1682,-10.1889,-10.2974,-10.3832,-10.4577,-10.5682,-10.5962,-10.5962,-10.5962,-10.5962,-10.5962,-10.5962,-10.5962,-10.5962,-10.5962,-10.5962,-10.5962,-10.5962,-10.5962,-10.5794,-10.5224,-10.4386,-10.3414,-10.2275,-10.0498,-9.9124,-9.8587,-9.7749,-9.7213,-9.7213,-9.7213,-9.7213,-9.7213,-9.7213,-9.7213,-9.7213,-9.7213,-9.6945,-9.6341,-9.5314,-9.3873,-9.1916,-9.1045,-8.9805,-8.8245,-8.8245,-8.8245,-5.424,-5.6884,-5.9544,-6.2078,-6.2826,-6.3305,-6.4621,-6.6955,-6.8898,-6.9018,-6.9947,-7.1203,-7.249,-7.4823,-7.6942,-7.8346,-8.0768,-8.2991,-8.4439,-8.673,-8.8884,-9.041,-9.1667,-9.2953,-9.4359,-9.4509,-9.4509,-9.4509,-9.4509,-9.4509,-9.4509,-9.4509,-9.4509,-9.4509,-9.4509,-9.4509,-9.4509,-9.4509,-9.4509,-9.4509,-9.6145,-9.6905,-9.6982,-9.8649,-9.9419,-9.9419,-9.9492,-9.9492,-9.9492,-9.9492,-9.9492,-9.9492,-9.9492,-9.9565,-9.9753,-10.0805,-10.1265,-10.1265,-10.1125,-10.1125,-10.1195,-10.1125,-10.1055,-10.1265,-10.2435,-10.2773,-10.2974,-10.4191,-10.4482,-10.4705,-10.5715,-10.5962,-10.5962,-10.5962,-10.5962,-10.5962,-10.5962,-10.5962,-10.5962,-10.5962,-10.5962,-10.5962,-10.5962,-10.5895,-10.5359,-10.4018,-10.3615,-10.2476,-9.9693,-9.9258,-9.8688,-9.7347,-9.7213,-9.7213,-9.7213,-9.7213,-9.7213,-9.7213,-9.7213,-9.7213,-9.7213,-9.7213,-9.6475,-9.4878,-9.4744,-9.3337,-9.0609,-9.0475,-8.9704,-8.8245,-8.8245,-8.8245,-5.2056,-5.4868,-5.796,-5.9574,-6.151,-6.3305,-6.4621,-6.6237,-6.782,-6.875,-6.9199,-6.9827,-7.1143,-7.2729,-7.4584,-7.6822,-7.8586,-8.0469,-8.2931,-8.4636,-8.6924,-9.0171,-9.0859,-9.1936,-9.4269,-9.4509,-9.4509,-9.4509,-9.4509,-9.4509,-9.4509,-9.4509,-9.4509,-9.4509,-9.4509,-9.4509,-9.4509,-9.4509,-9.4509,-9.4509,-9.5625,-9.6097,-9.6175,-9.776,-9.8437,-9.8512,-9.9241,-9.9492,-9.9492,-9.9492,-9.9492,-9.9492,-9.9492,-10.0011,-10.0875,-10.1889,-10.2872,-10.3372,-10.1682,-10.1613,-10.2131,-10.1335,-10.1055,-10.1474,-10.3438,-10.3963,-10.4158,-10.5308,-10.5558,-10.562,-10.59,-10.5962,-10.5962,-10.5962,-10.5962,-10.5962,-10.5962,-10.5962,-10.5962,-10.5962,-10.5962,-10.5962,-10.5962,-10.5023,-10.4185,-10.385,-10.1872,-10.0129,-9.9459,-9.8386,-9.7582,-9.7246,-9.7213,-9.7213,-9.7213,-9.7213,-9.7213,-9.7213,-9.7213,-9.7213,-9.7213,-9.7213,-9.6475,-9.4878,-9.3773,-9.2332,-9.0609,-8.935,-8.858,-8.8245,-8.8245,-8.8245,-5.2026,-5.4629,-5.7452,-5.8767,-6.0612,-6.2408,-6.3724,-6.507,-6.6323,-6.6955,-6.7613,-6.8539,-6.9857,-7.0605,-7.1951,-7.4584,-7.7061,-7.9662,-8.2452,-8.3888,-8.6235,-9.0111,-9.059,-9.1607,-9.424,-9.4509,-9.4509,-9.4509,-9.4509,-9.4509,-9.4509,-9.4509,-9.4509,-9.4509,-9.4509,-9.4509,-9.4509,-9.4509,-9.4509,-9.4509,-9.5783,-9.6331,-9.6409,-9.8093,-9.8766,-9.884,-9.9314,-9.9825,-10.0227,-10.0227,-10.0227,-10.0227,-10.0227,-10.0592,-10.1125,-10.1751,-10.3006,-10.4191,-10.3006,-10.3006,-10.3339,-10.2805,-10.2603,-10.2939,-10.4577,-10.5119,-10.5245,-10.5777,-10.5962,-10.5962,-10.5962,-10.5962,-10.5962,-10.5962,-10.5962,-10.5962,-10.5962,-10.5962,-10.5962,-10.5962,-10.5426,-10.4956,-10.4956,-10.375,-10.2509,-10.1872,-10.0397,-9.9124,-9.8453,-9.7682,-9.7213,-9.7213,-9.7213,-9.7213,-9.7213,-9.7213,-9.7213,-9.7213,-9.7213,-9.7213,-9.7213,-9.6509,-9.5381,-9.3873,-9.2433,-9.0992,-8.9484,-8.8647,-8.8245,-8.8245,-8.8245,-8.8245,-5.2954,-5.5317,-5.7751,-5.9066,-6.0224,-6.1413,-6.2677,-6.3844,-6.4681,-6.4891,-6.5878,-6.7222,-6.8749,-6.9018,-6.9827,-7.222,-7.5571,-7.8884,-8.2093,-8.3619,-8.5863,-8.9812,-9.047,-9.1547,-9.397,-9.4389,-9.4509,-9.4509,-9.4509,-9.4509,-9.4509,-9.4509,-9.4509,-9.4509,-9.4509,-9.4509,-9.4509,-9.4509,-9.4589,-9.475,-9.6175,-9.6874,-9.7028,-9.8649,-9.9314,-9.9346,-9.9492,-10.0083,-10.1055,-10.1055,-10.1195,-10.1335,-10.1335,-10.1404,-10.1613,-10.1613,-10.284,-10.4611,-10.4611,-10.4546,-10.4385,-10.4385,-10.4385,-10.4577,-10.562,-10.5962,-10.5962,-10.5962,-10.5962,-10.5962,-10.5962,-10.5962,-10.5962,-10.5962,-10.5962,-10.5962,-10.5962,-10.5962,-10.5895,-10.566,-10.4655,-10.3716,-10.3515,-10.2174,-10.0708,-9.9526,-9.9157,-9.8587,-9.7347,-9.7213,-9.7213,-9.7213,-9.7213,-9.7213,-9.7213,-9.7213,-9.7213,-9.7213,-9.7213,-9.7213,-9.7213,-9.5738,-9.4074,-9.2399,-9.1212,-8.9786,-8.8245,-8.8245,-8.8245,-8.8245,-8.8245,-8.8245,-5.3193,-5.5975,-5.9096,-6.0403,-6.0852,-6.1413,-6.2677,-6.3126,-6.3574,-6.4711,-6.51,-6.5998,-6.8511,-6.9018,-6.9468,-7.0994,-7.2669,-7.5511,-8.0448,-8.2303,-8.4546,-8.8436,-8.9902,-9.1158,-9.2684,-9.3851,-9.4509,-9.4509,-9.4509,-9.4509,-9.4509,-9.4509,-9.4509,-9.4509,-9.4509,-9.4509,-9.4509,-9.4509,-9.491,-9.5625,-9.5862,-9.6331,-9.7059,-9.7912,-9.8362,-9.8437,-9.9167,-10.0083,-10.1055,-10.1055,-10.1613,-10.2435,-10.2435,-10.3006,-10.3898,-10.3898,-10.4641,-10.5682,-10.5682,-10.5119,-10.4385,-10.4385,-10.4385,-10.4577,-10.562,-10.5962,-10.5962,-10.5962,-10.5962,-10.5962,-10.5962,-10.5962,-10.5962,-10.5962,-10.5962,-10.5962,-10.5962,-10.5962,-10.5593,-10.4386,-10.3951,-10.3381,-10.2073,-10.0574,-9.9593,-9.9392,-9.8319,-9.7447,-9.7213,-9.7213,-9.7213,-9.7213,-9.7213,-9.7213,-9.7213,-9.7213,-9.7213,-9.7213,-9.7213,-9.7213,-9.7213,-9.5738,-9.3605,-9.0978,-9.071,-8.9786,-8.8245,-8.8245,-8.8245,-8.8245,-8.8245,-8.8245,-5.5168,-5.7711,-6.0283,-6.0852,-6.154,-6.2228,-6.2826,-6.2976,-6.3155,-6.3754,-6.3873,-6.4472,-6.6416,-6.7461,-6.8389,-6.9648,-7.1592,-7.4015,-7.7157,-8.0627,-8.4277,-8.8166,-8.9782,-9.1098,-9.2415,-9.3731,-9.4509,-9.4509,-9.4509,-9.4509,-9.4509,-9.4509,-9.4509,-9.4509,-9.4509,-9.4509,-9.4509,-9.4509,-9.491,-9.5862,-9.6253,-9.6874,-9.7685,-9.8543,-9.9178,-9.9771,-10.0163,-10.1297,-10.2872,-10.2872,-10.314,-10.357,-10.357,-10.3898,-10.4385,-10.4385,-10.5056,-10.5962,-10.5962,-10.562,-10.5245,-10.5245,-10.5245,-10.5308,-10.5839,-10.5962,-10.5962,-10.5962,-10.5962,-10.5962,-10.5962,-10.5962,-10.5962,-10.5962,-10.5962,-10.5727,-10.4956,-10.4789,-10.4353,-10.2844,-10.1939,-10.1168,-10.0406,-9.9124,-9.8185,-9.8185,-9.7649,-9.7213,-9.7213,-9.7213,-9.7213,-9.7213,-9.7213,-9.7213,-9.7213,-9.7426,-9.7593,-9.7593,-9.7889,-9.8019,-9.8019,-9.6631,-9.4646,-9.2223,-9.0296,-8.8948,-8.8245,-8.8245,-8.8245,-8.8245,-8.8245,-8.8245,-5.7711,0.0,-6.1532,-6.1532,-6.2228,-6.2976,0.0,-6.2976,-6.2976,-6.2976,-6.2976,-6.3365,-6.4681,-6.6057,-6.7491,-6.8809,-7.0904,-7.2998,-7.4614,-7.8892,-8.3559,-8.8077,-8.9782,-9.1098,-9.2415,-9.3731,-9.4509,-9.4509,-9.4509,-9.4509,-9.4509,-9.4509,-9.4509,-9.4509,-9.4509,-9.4509,-9.4509,-9.467,-9.5199,-9.6097,-9.6874,-9.7685,-9.8512,-9.9429,-10.0339,-10.1125,-10.1335,-10.257,-10.4385,-10.4385,-10.4513,-10.4738,-10.4738,-10.4738,-10.4738,-10.4738,-10.5245,-10.5962,-10.5962,-10.5962,-10.5962,-10.5962,-10.5962,-10.5962,-10.5962,-10.5962,-10.5962,-10.5962,-10.5962,-10.5962,-10.5962,-10.5962,-10.5895,-10.5526,-10.5459,-10.5057,-10.3582,-10.328,-10.2811,-10.1244,-10.0129,-9.9224,-9.8922,-9.7917,-9.7213,-9.7213,-9.7213,-9.7213,-9.7213,-9.7213,-9.7213,-9.7213,-9.7213,-9.7213,-9.7213,-9.7703,-9.8053,-9.8128,-9.8523,-9.8616,-9.8223,-9.6721,-9.4965,-9.3026,-8.9862,-8.8245,-8.8245,-8.8245,-8.8296,-8.8416,-8.8416,-8.8517,0.0,-6.1749,-6.2826,-6.2826,-6.2886,-6.2976,-6.2976,-6.2976,0.0,-6.2976,-6.2976,-6.3365,-6.4681,-6.6057,-6.7491,-6.8809,-7.0156,-7.1951,-7.4494,-7.7211,-8.1365,-8.7867,-8.9782,-9.1098,-9.2415,-9.3731,-9.4509,-9.4509,-9.4509,-9.4509,-9.4509,-9.4509,-9.4509,-9.4509,-9.4509,-9.4509,-9.4509,-9.5309,-9.6097,-9.6951,-9.7685,-9.8543,-9.9492,-10.0481,-10.0984,-10.1125,-10.2095,-10.3273,-10.4385,-10.4385,-10.4929,-10.5839,-10.5839,-10.5839,-10.5839,-10.5839,-10.59,-10.5962,-10.5962,-10.5962,-10.5962,-10.5962,-10.5962,-10.5962,-10.5962,-10.5962,-10.5962,-10.5962,-10.5962,-10.5962,-10.5962,-10.5962,-10.5627,-10.4286,-10.3951,-10.3548,-10.2006,-10.1612,-10.1235,-9.9794,-9.9425,-9.8922,-9.7582,-9.728,-9.7213,-9.7213,-9.7213,-9.7213,-9.7213,-9.7213,-9.7213,-9.7213,-9.7213,-9.7213,-9.7213,-9.7703,-9.8182,-9.8682,-9.87,-9.812,-9.6824,-9.4794,-9.301,-9.1555,-8.9358,-8.8245,-8.8245,-8.8245,-8.8517,-8.8951,-8.8951,-8.9246,-6.3544,-6.4442,-6.5545,-6.5545,-6.4831,-6.4173,-6.4173,-6.3544,-6.2976,-6.2976,-6.2976,-6.3126,-6.3604,-6.5575,-6.7222,-6.7731,-6.9587,-7.1861,-7.4494,-7.7061,-8.0259,-8.4516,-8.8316,-9.0769,-9.1248,-9.3252,-9.4509,-9.4509,-9.4509,-9.4509,-9.4509,-9.4509,-9.4509,-9.4509,-9.4509,-9.475,-9.5309,-9.5625,-9.6487,-9.776,-9.8778,-9.9699,-10.0553,-10.1543,-10.2435,-10.314,-10.3537,-10.4385,0.0,-10.537,-10.5558,-10.5962,-10.5962,-10.5962,-10.5962,-10.5962,-10.5962,-10.5962,-10.5962,-10.5962,-10.5962,-10.5962,-10.5962,-10.5962,-10.5962,-10.5962,-10.5962,-10.5962,-10.5962,-10.5962,-10.5962,-10.5292,-10.4487,-10.3951,-10.3079,-10.1914,-10.0498,-10.0105,-9.976,-9.8285,-9.8017,-9.785,-9.7313,-9.7213,-9.7213,-9.7213,-9.7213,-9.7213,-9.7213,-9.7213,-9.7213,-9.7213,-9.7213,-9.746,-9.8128,-9.8716,-9.9134,-9.9341,-9.8753,-9.811,-9.7608,-9.5036,-9.3215,-9.2328,-9.0597,-8.9572,-8.9231,-8.9231,-8.9295,-8.9538,-8.9538,-8.9635,-6.5728,-6.6353,-6.7072,-6.7072,-6.6353,-6.5579,-6.5579,-6.4562,-6.3604,-6.3604,-6.3275,-6.3096,-6.3514,-6.5515,-6.7222,-6.7611,-6.9827,-7.234,-7.4554,-7.7516,-8.02,-8.2542,-8.7418,-9.059,-9.059,-9.2953,-9.4509,-9.4509,-9.4509,-9.4509,-9.4509,-9.4509,-9.4509,-9.4509,-9.472,-9.5229,-9.5862,-9.6658,-9.7623,-9.8746,-10.01,-10.1023,-10.1613,-10.2705,-10.3636,-10.4385,-10.4738,-10.5308,-10.5962,-10.5962,-10.5962,-10.5962,-10.5962,-10.5962,-10.5962,-10.5962,-10.5962,-10.5962,-10.5962,-10.5962,-10.5962,-10.5962,-10.5962,-10.5962,-10.5962,-10.5962,-10.5962,-10.5962,-10.5627,-10.5258,-10.5258,-10.4185,-10.2979,-10.2509,-10.1604,-10.0373,-9.8989,-9.8654,-9.8386,-9.738,-9.7213,-9.7213,-9.7213,-9.7348,-9.746,-9.746,-9.7593,-9.767,-9.767,-9.767,-9.767,-9.767,-9.767,-9.8053,-9.8944,-9.9478,-9.9611,-9.9244,-9.8551,-9.7738,-9.6766,-9.4616,-9.307,-9.218,-9.0974,-9.0157,-8.9826,-8.9826,-8.9826,-8.9826,-8.9969,-8.987,-6.6713,-6.7102,-6.7102,-6.7102,-6.7102,-6.7102,-6.7102,-6.5938,-6.4951,-6.4951,-6.3903,-6.3395,-6.4711,-6.6087,-6.7521,-6.8809,-7.1173,-7.3357,-7.4674,-7.8324,-8.1345,-8.2662,-8.7388,-9.056,-9.059,-9.2953,-9.4479,-9.4509,-9.4509,-9.4509,-9.4509,-9.4509,-9.4509,-9.4509,-9.5388,-9.5862,-9.5862,-9.8567,-9.9884,-9.9956,-10.1788,-10.2638,-10.2705,-10.3832,-10.4418,-10.4449,-10.5495,-10.5962,-10.5962,-10.5962,-10.5962,-10.5962,-10.5962,-10.5962,-10.5962,-10.5962,-10.5962,-10.5962,-10.5962,-10.5962,-10.5962,-10.5962,-10.5962,-10.5962,-10.5962,-10.5962,-10.5962,-10.5962,-10.4923,-10.3817,-10.3817,-10.2643,-10.1043,-9.9693,-9.9325,-9.8956,-9.7514,-9.7213,-9.7213,-9.7213,-9.7213,-9.7213,-9.7213,-9.7648,-9.7999,-9.7999,-9.8416,-9.8753,-9.8753,-9.8753,-9.8753,-9.8753,-9.8787,-9.9048,-9.9682,-9.9732,-9.9278,-9.821,-9.8154,-9.6766,-9.3829,-9.3185,-9.218,-9.0644,-9.0063,-8.9826,-8.9826,-8.9826,-8.9826,-8.9826,-9.0378,-9.0044,-6.8569,-6.9138,-6.9767,-6.9767,-6.9138,-6.8449,-6.8449,-6.7401,-6.6443,-6.6443,-6.6144,-6.5994,-6.6383,-6.7551,-6.8569,-6.8958,-7.1173,-7.3357,-7.4674,-7.8324,-8.1345,-8.2662,-8.6581,-8.9543,-9.047,-9.2115,-9.3492,-9.4419,-9.4509,-9.4509,-9.4509,-9.4509,-9.4509,-9.4509,-9.5388,-9.6097,-9.6642,-9.882,-10.0172,-10.0773,-10.2872,-10.3832,-10.3898,-10.4959,-10.5495,-10.5495,-10.5839,-10.5962,-10.5962,-10.5962,-10.5962,-10.5962,-10.5962,-10.5962,-10.5962,-10.5962,-10.5962,-10.5962,-10.5962,-10.5962,-10.5962,-10.5962,-10.5962,-10.5962,-10.5962,-10.5962,-10.5962,-10.5962,-10.4923,-10.3817,-10.3817,-10.1906,-9.9837,-9.9459,-9.8587,-9.7716,-9.7313,-9.7213,-9.7213,-9.7213,-9.7213,-9.7213,-9.7213,-9.7648,-9.7999,-9.7999,-9.8416,-9.8753,-9.8753,-9.8753,-9.8753,-9.8753,-9.946,-10.0261,-10.0903,-9.9533,-9.8735,-9.8982,-9.6501,-9.4627,-9.3725,-9.2469,-9.1582,-9.1143,-9.0974,-9.0883,-9.0883,-9.0883,-9.0883,-9.0918,-9.1053,-9.0356,-6.9827,-7.0336,-7.0934,-7.0934,-7.0336,-6.9767,-6.9767,-6.8779,-6.785,-6.785,-6.7431,-6.7222,-6.7761,-6.8509,-6.9318,-7.0366,-7.231,-7.4315,-7.6075,-7.943,-8.2123,-8.3409,-8.7,-8.9722,-9.05,-9.2235,-9.3641,-9.4449,-9.4509,-9.4509,-9.4509,-9.483,-9.499,-9.499,-9.6145,-9.7228,-9.8181,-10.0028,-10.1442,-10.2468,-10.4158,-10.4993,-10.5056,-10.562,-10.5962,-10.5962,-10.5962,-10.5962,-10.5962,-10.5962,-10.5962,-10.5962,-10.5962,-10.5962,-10.5962,-10.5962,-10.5962,-10.5962,-10.5962,-10.5962,-10.5962,-10.5962,-10.5962,-10.5962,-10.5962,-10.556,-10.509,-10.509,-10.4018,-10.2744,-10.2174,-10.0699,-9.9224,-9.8621,-9.785,-9.7213,-9.7213,-9.7213,-9.7213,-9.7213,-9.7213,-9.7213,-9.7213,-9.7648,-9.8053,-9.8236,-9.8734,-9.9204,-9.9409,-9.946,-9.946,-9.946,-10.031,-10.0693,-10.0171,-9.9241,-9.8148,-9.7144,-9.497,-9.3413,-9.2823,-9.1886,-9.1356,-9.1356,-9.1356,-9.1356,-9.1356,-9.1356,-9.1356,-9.1321,-9.0697,-8.9934,-7.0605,-7.0934,-7.0934,-7.0934,-7.0934,-7.0934,-7.0934,-7.0007,-6.9198,-6.9198,-6.827,-6.7791,-6.8988,-6.9318,-7.0126,-7.249,-7.4105,-7.59,-7.8376,-8.1106,-8.329,-8.4618,-8.8166,-9.059,-9.059,-9.2953,-9.4509,-9.4509,-9.4509,-9.4559,-9.472,-9.5674,-9.6223,-9.6223,-9.7729,-9.8968,-10.0028,-10.1857,-10.3339,-10.4418,-10.5433,-10.5962,-10.5962,-10.5962,-10.5962,-10.5962,-10.5962,-10.5962,-10.5962,-10.5962,-10.5962,-10.5962,-10.5962,-10.5962,-10.5962,-10.5962,-10.5962,-10.5962,-10.5962,-10.5962,-10.5962,-10.5962,-10.5861,-10.5761,-10.5761,-10.4755,-10.3582,-10.3582,-10.2476,-10.0942,-9.9693,-9.9258,-9.8822,-9.7514,-9.7213,-9.7213,-9.7213,-9.7213,-9.7213,-9.7213,-9.7213,-9.7213,-9.7213,-9.7648,-9.8128,-9.8629,-9.9289,-9.9883,-10.038,-10.0478,-10.0457,-10.0367,-10.0835,-10.0311,-9.8321,-9.8552,-9.7339,-9.4,-9.3597,-9.2858,-9.1391,-9.1356,-9.1356,-9.1356,-9.1356,-9.1356,-9.1356,-9.1306,-9.1236,-9.1078,-8.9639,-8.8798,-7.0844,-7.0934,-7.0934,-7.0934,-7.0934,-7.0934,-7.0934,-7.0725,-7.0515,-7.0515,-7.0276,-7.0186,-7.0455,-7.1353,-7.225,-7.2789,-7.4853,-7.6882,-7.8496,-8.1106,-8.329,-8.4618,-8.8166,-9.059,-9.059,-9.2953,-9.4509,-9.4509,-9.4509,-9.504,-9.6395,-9.7982,-9.9031,-9.9292,-10.0259,-10.0927,-10.1137,-10.304,-10.4126,-10.4418,-10.5433,-10.5962,-10.5962,-10.5962,-10.5962,-10.5962,-10.5962,-10.5962,-10.5962,-10.5962,-10.5962,-10.5962,-10.5962,-10.5962,-10.5962,-10.5962,-10.5962,-10.5962,-10.5962,-10.5962,-10.5962,-10.5962,-10.5191,-10.4286,-10.4286,-10.3213,-10.2006,-10.2006,-10.0967,-9.976,-9.9425,-9.852,-9.7582,-9.728,-9.7213,-9.7213,-9.7213,-9.7213,-9.7213,-9.7213,-9.7213,-9.7213,-9.7213,-9.7648,-9.7999,-9.8128,-9.9065,-9.9732,-9.9883,-10.0232,-10.0233,-9.9507,-9.9078,-9.8635,-9.8066,-9.6134,-9.4756,-9.4454,-9.2821,-9.1712,-9.1356,-9.1356,-9.1356,-9.1356,-9.1356,-9.1356,-9.1356,-9.066,-9.0024,-8.9483,-8.8468,-8.7102,-7.0934,-7.0934,-7.0934,-7.0934,-7.0934,-7.0934,-7.0934,-7.0934,-7.0934,-7.0934,-7.0934,-7.0934,-7.0934,-7.2011,-7.3118,-7.3746,-7.5511,-7.7659,-8.0289,-8.1944,-8.3529,-8.5487,-8.8555,-9.059,-9.059,-9.2953,-9.4509,-9.4509,-9.4509,-9.5613,-9.8132,-9.9396,-10.0227,-10.0863,-10.1622,-10.2302,-10.2842,-10.3898,-10.4641,-10.5119,-10.5715,-10.5962,-10.5962,-10.5962,-10.5962,-10.5962,-10.5962,-10.5962,-10.5962,-10.5962,-10.5962,-10.5962,-10.5962,-10.5962,-10.5962,-10.5962,-10.5962,-10.5962,-10.5962,-10.5962,-10.5828,-10.5157,-10.442,-10.3682,-10.2911,-10.1671,-10.0406,-10.0406,-9.9425,-9.8319,-9.8319,-9.7783,-9.7213,-9.7213,-9.7213,-9.7213,-9.7213,-9.7213,-9.7213,-9.7213,-9.7213,-9.7236,-9.7537,-9.7593,-9.7868,-9.8697,-9.903,-9.9443,-10.0034,-9.9707,-9.9029,-9.8113,-9.7783,-9.7244,-9.6437,-9.5304,-9.4318,-9.3582,-9.2436,-9.1846,-9.1846,-9.1498,-9.1532,-9.1802,-9.1846,-9.159,-9.1079,-9.0349,-8.9415,-8.8351,-8.6892,-8.5614,-7.0934,-7.0934,-7.0934,-7.0934,-7.0934,-7.0934,-7.0934,-7.0934,-7.0934,-7.0934,-7.1113,-7.1263,-7.1263,-7.255,-7.3926,-7.5033,-7.6499,-7.8742,-8.2332,-8.3021,-8.4008,-8.6371,-8.8974,-9.059,-9.059,-9.319,-9.488,-9.488,-9.5248,-9.6767,-9.9973,-10.0511,-10.1212,-10.2069,-10.2842,-10.3669,-10.4641,-10.4675,-10.5119,-10.5962,-10.5962,-10.5962,-10.5962,-10.5962,-10.5962,-10.5962,-10.5962,-10.5962,-10.5962,-10.5962,-10.5962,-10.5962,-10.5962,-10.5962,-10.5962,-10.5962,-10.5962,-10.5962,-10.5962,-10.5962,-10.5694,-10.3984,-10.3247,-10.2811,-10.1445,-10.0129,-9.8989,-9.8989,-9.8118,-9.7213,-9.7213,-9.7213,-9.7213,-9.7213,-9.7213,-9.7213,-9.7213,-9.7213,-9.7213,-9.7213,-9.7213,-9.7348,-9.7889,-9.7593,-9.7814,-9.9324,-9.9186,-9.9187,-9.9886,-9.8695,-9.7429,-9.6502,-9.6441,-9.5889,-9.4551,-9.4798,-9.4274,-9.2424,-9.2402,-9.2479,-9.2354,-9.1931,-9.1834,-9.2057,-9.1975,-9.1372,-9.0227,-8.9547,-8.8491,-8.707,-8.5202,-8.4223,-7.0934,-7.0934,-7.0934,-7.0934,-7.0934,-7.0934,-7.0934,-7.0934,-7.0934,-7.0934,-7.1831,-7.2639,-7.2639,-7.4644,-7.6284,-7.6463,-7.8683,-8.0896,-8.2572,-8.3769,-8.5067,-8.6565,-8.8974,-9.059,-9.059,-9.43,-9.6658,-9.6658,-9.8101,-9.9829,-10.1654,-10.2308,-10.334,-10.4799,-10.5274,-10.5558,-10.5682,-10.5682,-10.5839,-10.5962,-10.5962,-10.5962,-10.5962,-10.5962,-10.5962,-10.5962,-10.5962,-10.5962,-10.5962,-10.5962,-10.5962,-10.5962,-10.5962,-10.5962,-10.5962,-10.5962,-10.5962,-10.5962,-10.5962,-10.5962,-10.5493,-10.271,-10.0967,-9.9928,-9.9693,-9.8621,-9.7481,-9.7481,-9.7347,-9.7213,-9.7213,-9.7213,-9.7213,-9.7213,-9.7213,-9.7213,-9.7213,-9.7213,-9.7213,-9.7213,-9.7213,-9.7348,-9.7889,-9.7889,-9.8107,-9.8787,-9.9289,-9.9149,-9.7942,-9.6863,-9.5818,-9.5039,-9.4462,-9.3965,-9.3516,-9.3048,-9.2648,-9.2354,-9.2852,-9.2932,-9.2354,-9.2771,-9.242,-9.1008,-9.0533,-8.9594,-8.8089,-8.6641,-8.5626,-8.4959,-8.3765,-8.2954,-7.0934,-7.0934,-7.0934,-7.0934,-7.0934,-7.0934,-7.0934,-7.0934,-7.0934,-7.0934,-7.1981,-7.2909,-7.2909,-7.5063,-7.6762,-7.6762,-7.9101,-8.1315,-8.2632,-8.3888,-8.5247,-8.6565,-8.8974,-9.059,-9.059,-9.4454,-9.7013,-9.7013,-9.95,-10.176,-10.357,-10.4124,-10.4733,-10.5682,-10.5839,-10.5962,-10.5962,-10.5962,-10.5962,-10.5962,-10.5962,-10.5962,-10.5962,-10.5962,-10.5962,-10.5962,-10.5962,-10.5962,-10.5962,-10.5962,-10.5962,-10.5962,-10.5962,-10.5962,-10.5962,-10.5962,-10.5962,-10.5828,-10.5023,-10.4185,-10.3113,-10.1001,-9.9861,-9.9191,-9.8386,-9.7716,-9.7213,-9.7213,-9.7213,-9.7213,-9.7213,-9.7213,-9.7213,-9.7213,-9.7213,-9.7213,-9.7213,-9.7213,-9.7213,-9.7213,-9.746,-9.778,-9.8343,-9.7717,-9.7488,-9.829,-9.7651,-9.6683,-9.5454,-9.4893,-9.4478,-9.397,-9.3329,-9.314,-9.3674,-9.3214,-9.2892,-9.2892,-9.3131,-9.3171,-9.2892,-9.1965,-9.1238,-9.0914,-8.9835,-8.8598,-8.7337,-8.637,-8.5482,-8.4636,-8.3223,-8.2602,-7.0934,-7.0934,-7.0934,-7.0934,-7.0934,-7.0934,-7.0934,-7.0934,-7.0934,-7.0934,-7.1981,-7.2998,-7.3327,-7.5272,-7.6917,-7.7211,-7.958,-8.1704,-8.2691,-8.4187,-8.5636,-8.6595,-8.9322,-9.0991,-9.0637,-9.4807,-9.7743,-9.815,-10.1029,-10.3438,-10.4866,-10.5308,-10.562,-10.5962,-10.5962,-10.5962,-10.5962,-10.5962,-10.5962,-10.5962,-10.5962,-10.5962,-10.5962,-10.5962,-10.5962,-10.5962,-10.5962,-10.5962,-10.5962,-10.5962,-10.5962,-10.5962,-10.5962,-10.5962,-10.5928,-10.5526,-10.5426,-10.5124,-10.3314,-10.1906,-10.0674,-9.9291,-9.8822,-9.8621,-9.7548,-9.7213,-9.7213,-9.7213,-9.7213,-9.7213,-9.7213,-9.7213,-9.7213,-9.7213,-9.7213,-9.7213,-9.7213,-9.6911,-9.6609,-9.6609,-9.6607,-9.6795,-9.7347,-9.6774,-9.6478,-9.7422,-9.6214,-9.475,-9.3523,-9.3369,-9.3318,-9.3277,-9.2852,-9.2977,-9.4013,-9.36,-9.3366,-9.3485,-9.313,-9.2917,-9.2917,-9.1124,-9.0172,-9.0223,-8.894,-8.7694,-8.6497,-8.5952,-8.5348,-8.4514,-8.3246,-8.2794,-7.0934,-7.0934,-7.0934,-7.0934,-7.0934,-7.0934,-7.0934,-7.0934,-7.0934,-7.0934,-7.1981,-7.3268,-7.4524,-7.587,-7.7181,-7.8406,-8.0956,-8.2751,-8.2811,-8.4965,-8.6654,-8.6714,-9.0274,-9.2259,-9.0714,-9.5803,-9.9812,-10.1297,-10.3504,-10.4866,-10.4929,-10.5591,-10.59,-10.5962,-10.5962,-10.5962,-10.5962,-10.5962,-10.5962,-10.5962,-10.5962,-10.5962,-10.5962,-10.5962,-10.5962,-10.5962,-10.5962,-10.5962,-10.5962,-10.5962,-10.5962,-10.5962,-10.5962,-10.5962,-10.5794,-10.442,-10.3917,-10.3515,-10.0598,-9.9526,-9.9224,-9.7783,-9.7313,-9.7313,-9.7213,-9.7213,-9.7213,-9.7213,-9.7213,-9.7213,-9.7213,-9.7213,-9.7213,-9.7213,-9.7213,-9.7213,-9.7213,-9.604,-9.4945,-9.4945,-9.3928,-9.317,-9.3699,-9.4521,-9.534,-9.591,-9.5853,-9.4973,-9.2677,-9.2411,-9.2632,-9.3249,-9.3289,-9.3485,-9.4049,-9.36,-9.3524,-9.4013,-9.2655,-9.1797,-9.1797,-9.0884,-8.9703,-8.8256,-8.7484,-8.6392,-8.4886,-8.4352,-8.4073,-8.4002,-8.3896,-8.3539,-7.0695,-7.0934,-7.0934,-7.0934,-7.0934,-7.0934,-7.0934,-7.0934,-7.0934,-7.0934,-7.1981,-7.3297,-7.4614,-7.593,-7.7181,-7.8496,-8.0358,-8.1854,-8.2691,-8.4307,-8.5786,-8.6625,-8.9545,-9.168,-9.2018,-9.6468,-9.9683,-10.0468,-10.2152,-10.3701,-10.5182,-10.5433,-10.5682,-10.5962,-10.5962,-10.5962,-10.5962,-10.5962,-10.5962,-10.5962,-10.5962,-10.5962,-10.5962,-10.5962,-10.5962,-10.5962,-10.5962,-10.5962,-10.5962,-10.5962,-10.5962,-10.5861,-10.4956,-10.4554,-10.4386,-10.2878,-10.2342,-10.1906,-9.8989,-9.795,-9.7883,-9.738,-9.7213,-9.7213,-9.7213,-9.7213,-9.7213,-9.7213,-9.7213,-9.7213,-9.7213,-9.7213,-9.6945,-9.5917,-9.5738,-9.547,-9.4531,-9.3873,-9.3471,-9.3471,-9.3036,-9.2988,-9.3843,-9.4317,-9.4519,-9.4443,-9.3936,-9.311,-9.1855,-9.2444,-9.2892,-9.269,-9.337,-9.3865,-9.4086,-9.301,-9.2402,-9.2547,-9.1081,-9.0118,-8.9793,-8.879,-8.7849,-8.694,-8.6039,-8.515,-8.4244,-8.4072,-8.4002,-8.3932,-8.3206,-8.2908,-6.9437,-6.9677,-6.9677,-6.9677,-6.9947,-7.0276,-7.0276,-7.0605,-7.0934,-7.0934,-7.1622,-7.2639,-7.3956,-7.5272,-7.6523,-7.7838,-7.967,-8.1166,-8.2033,-8.4085,-8.5827,-8.6631,-9.0002,-9.2413,-9.2889,-9.6386,-9.8995,-9.9907,-10.0951,-10.2453,-10.4508,-10.4761,-10.518,-10.5928,-10.5962,-10.5962,-10.5962,-10.5962,-10.5962,-10.5962,-10.5962,-10.5962,-10.5962,-10.5962,-10.5962,-10.5962,-10.5962,-10.5694,-10.5224,-10.5224,-10.4923,-10.4353,-10.3414,-10.3046,-10.2844,-10.1277,-10.0406,-9.9794,-9.7883,-9.7213,-9.7213,-9.7213,-9.7213,-9.7213,-9.7213,-9.7213,-9.7079,-9.6576,-9.6442,-9.6308,-9.5838,-9.5704,-9.5436,-9.4376,-9.4141,-9.3873,-9.2902,-9.2386,-9.1964,-9.1964,-9.174,-9.1754,-9.2633,-9.2929,-9.3009,-9.293,-9.2378,-9.1889,-9.1585,-9.2402,-9.2972,-9.2897,-9.3602,-9.3944,-9.3656,-9.2476,-9.1617,-9.1324,-8.9612,-8.858,-8.8441,-8.7244,-8.6384,-8.6085,-8.5381,-8.4844,-8.4516,-8.4516,-8.4516,-8.4483,-8.3683,-8.3431,-6.6922,-6.6982,-6.7012,-6.7012,-6.8,-6.8988,-6.8988,-6.9947,-7.0874,-7.0874,-7.0904,-7.1323,-7.2669,-7.3956,-7.5242,-7.6523,-7.9042,-8.0777,-8.0837,-8.4256,-8.6807,-8.6869,-9.1745,-9.4555,-9.305,-9.5625,-9.8132,-9.9891,-10.033,-10.1266,-10.3064,-10.3502,-10.4386,-10.5794,-10.5828,-10.5828,-10.5828,-10.5828,-10.5828,-10.5828,-10.5828,-10.5828,-10.5895,-10.5895,-10.5895,-10.5895,-10.5828,-10.5023,-10.3716,-10.3716,-10.2844,-10.1445,-10.1411,-10.1378,-10.121,-9.9827,-9.8386,-9.7213,-9.7213,-9.7213,-9.7213,-9.7213,-9.7179,-9.7112,-9.7112,-9.7112,-9.6743,-9.5213,-9.4778,-9.4443,-9.3069,-9.2701,-9.2667,-9.2634,-9.2634,-9.2634,-9.2567,-9.1514,-9.0508,-9.0508,-8.9679,-8.9148,-8.9683,-9.0204,-9.0701,-9.1277,-9.1321,-9.1454,-9.1897,-9.2151,-9.2736,-9.3868,-9.3943,-9.3585,-9.2694,-9.2039,-9.1254,-9.0349,-8.8271,-8.7308,-8.7895,-8.6374,-8.5508,-8.5508,-8.5508,-8.5508,-8.5508,-8.5508,-8.5508,-8.5478,-8.5478,-8.5194,-6.3844,-6.4771,-6.5489,-6.5489,-6.6593,-6.7611,-6.7611,-6.8629,-6.9587,-6.9587,-7.0276,-7.1323,-7.2669,-7.3178,-7.4165,-7.6374,-7.7456,-7.8623,-8.0597,-8.2608,-8.4681,-8.6654,-9.0003,-9.2492,-9.3292,-9.5769,-9.7919,-9.9165,-10.0009,-10.0955,-10.1895,-10.2081,-10.2249,-10.2651,-10.2651,-10.2651,-10.2651,-10.2651,-10.2651,-10.2651,-10.2651,-10.3314,-10.4386,-10.4386,-10.4386,-10.4353,-10.3213,-10.245,-10.2081,-10.2081,-10.1813,-10.1344,-10.0306,-9.9904,-9.9703,-9.8319,-9.7548,-9.7213,-9.7213,-9.7213,-9.7213,-9.7213,-9.6442,-9.5481,-9.5481,-9.4799,-9.3894,-9.3404,-9.3304,-9.3203,-9.2801,-9.2701,-9.2433,-9.1447,-9.1126,-9.0824,-8.9719,-8.9149,-8.8881,-8.8881,-8.8667,-8.8618,-8.9148,-8.9344,-8.9839,-9.1039,-9.0667,-9.0575,-9.1525,-9.1733,-9.1787,-9.1664,-9.1544,-9.1131,-9.0393,-8.9553,-8.8756,-8.802,-8.6709,-8.5687,-8.5126,-8.5029,-8.4973,-8.4973,-8.4973,-8.4973,-8.4973,-8.4973,-8.4779,-8.438,-8.3895,-8.3896,-5.9506,-6.0702,-6.1839,-6.2378,-6.3514,-6.4706,-6.5245,-6.6327,-6.7434,-6.809,-6.9258,-7.0336,-7.1113,-7.2161,-7.3387,-7.4943,-7.5631,-7.6738,-7.8862,-8.0791,-8.2976,-8.5766,-8.798,-9.0112,-9.2268,-9.435,-9.5972,-9.6827,-9.8041,-9.9224,-10.0507,-10.054,-10.0808,-10.1411,-10.1445,-10.1445,-10.1445,-10.1445,-10.1445,-10.1445,-10.1445,-10.1973,-10.2844,-10.2844,-10.2844,-10.2777,-10.1813,-10.1168,-10.054,-10.054,-10.0263,-9.9626,-9.8788,-9.8453,-9.8285,-9.6777,-9.6241,-9.6084,-9.557,-9.5336,-9.5336,-9.5336,-9.4677,-9.394,-9.394,-9.3371,-9.262,-9.1964,-9.1849,-9.1662,-9.1025,-9.0824,-9.0623,-8.9786,-8.9585,-8.935,-8.8446,-8.8245,-8.8245,-8.8245,-8.8416,-8.8685,-8.8951,-8.9197,-8.9492,-8.9906,-8.9161,-8.8934,-9.0073,-9.0401,-9.0405,-8.9843,-8.9937,-8.9661,-8.8915,-8.8345,-8.758,-8.6501,-8.5854,-8.5257,-8.4647,-8.4908,-8.5068,-8.5068,-8.5068,-8.4745,-8.4098,-8.4098,-8.3617,-8.2652,-8.2285,-8.2285,-5.4779,-5.5616,-5.6843,-5.811,-5.9535,-6.0882,0.0,-6.3455,-6.4891,-6.6323,-6.7671,-6.86,-6.8988,-7.0874,-7.255,-7.2849,-7.3992,-7.5254,-7.6574,-7.9072,-8.1729,-8.4128,-8.5698,-8.7654,-9.0319,-9.1988,-9.3175,-9.3805,-9.5058,-9.6652,-9.8673,-9.8798,-9.9468,-10.0909,-10.0976,-10.0976,-10.0976,-10.0976,-10.0976,-10.0976,-10.0976,-10.1043,-10.121,-10.121,-10.121,-10.121,-10.121,-10.0431,-9.9124,-9.9124,-9.8353,-9.7213,-9.7213,-9.7012,-9.6542,-9.5113,-9.461,-9.4409,-9.3136,-9.2701,-9.2701,-9.2701,-9.2567,-9.252,-9.252,-9.2332,-9.193,-9.071,-9.0341,-9.0039,-8.8613,-8.8245,-8.8245,-8.8245,-8.8245,-8.8245,-8.8245,-8.8245,-8.8245,-8.8245,-8.8585,-8.8951,-8.8951,-8.9208,-8.9075,-8.8043,-8.7258,-8.7073,-8.8048,-8.8757,-8.894,-8.8328,-8.8869,-8.8848,-8.7854,-8.7741,-8.7096,-8.555,-8.5508,-8.5508,-8.5447,-8.5447,-8.5339,-8.5189,-8.5189,-8.4431,-8.2844,-8.2909,-8.2217,-8.0845,-8.0816,-8.0419,0.0,0.0,0.0,0.0,0.0,0.0,0.0,-6.0104,-6.2138,-6.3485,-6.4801,-6.6387,-6.8629,-6.9378,-7.0425,-7.255,-7.3921,-7.5107,-7.6481,-7.8907,-8.0702,-8.1121,-8.3443,-8.5849,-8.7905,-9.0298,-9.1998,-9.2644,-9.2911,-9.3766,-9.5313,-9.5604,-9.6419,-9.7984,-9.8051,-9.8051,-9.8051,-9.8051,-9.8051,-9.8051,-9.8051,-9.8654,-9.9703,-9.9703,-9.9703,-9.9703,-9.9703,-9.8956,-9.7615,-9.7615,-9.7447,-9.7213,-9.7213,-9.5738,-9.3592,-9.3237,-9.3103,-9.3069,-9.2801,-9.2701,-9.2701,-9.2701,-9.1983,-9.1011,-9.1011,-9.0087,-8.9049,-8.8781,-8.868,-8.8647,-8.8312,-8.8245,-8.8245,-8.8245,-8.8245,-8.8245,-8.8245,-8.8245,-8.8245,-8.8245,-8.8347,-8.8398,-8.8398,-8.7542,-8.6589,-8.5877,-8.5658,-8.6118,-8.7465,-8.8279,-8.8406,-8.7442,-8.7945,-8.7688,-8.6152,-8.6008,-8.571,-8.4941,-8.5288,-8.5319,-8.4941,-8.4908,-8.4331,-8.3039,-8.3008,-8.2219,-8.0672,-8.1103,-8.1133,-8.0845,-8.0428,-7.7697,0.0,0.0,0.0,0.0,0.0,0.0,0.0,0.0,0.0,0.0,0.0,-6.2856,-6.5489,0.0,-6.7823,-7.0515,-7.1948,-7.335,-7.5345,-7.7248,-7.8881,-8.0051,-8.1476,-8.3045,-8.4685,-8.7391,-8.9273,-8.9871,-9.1235,-9.2478,-9.352,-9.3718,-9.4141,-9.4967,-9.4967,-9.4967,-9.4967,-9.5704,-9.604,-9.6073,-9.6844,-9.7582,-9.8285,-9.8285,-9.8285,-9.8252,-9.7424,-9.6654,-9.6006,-9.5269,-9.4967,-9.4967,-9.4967,-9.4062,-9.2634,-9.195,-9.1682,-9.1447,-8.9939,-8.9402,-8.9302,-8.8564,-8.7827,-8.7257,-8.7257,-8.6721,-8.6117,-8.6117,-8.6117,-8.6117,-8.6117,-8.6117,-8.6117,-8.6117,-8.6117,-8.6117,-8.6117,-8.6117,-8.6117,-8.6117,-8.6117,-8.6117,-8.6117,-8.5692,-8.5335,-8.5243,-8.4697,-8.4734,-8.5946,-8.6414,-8.6513,-8.6329,-8.6517,-8.6354,-8.5525,-8.5478,-8.5355,-8.498,-8.5266,-8.4964,-8.4017,-8.3725,-8.2746,-8.0977,-8.1171,-7.9866,-7.7066,-7.7779,-7.7351,-7.5768,-7.4075,-7.1722,0.0,0.0,0.0,0.0,0.0,0.0,0.0,0.0,0.0,0.0,0.0,0.0,0.0,0.0,0.0,-6.8108,-6.9975,-7.1893,-7.4203,-7.553,-7.7008,-7.9038,-7.986,-8.0677,-8.1873,-8.4362,-8.6104,-8.66,-8.8812,-9.0657,-9.1635,-9.1776,-9.2098,-9.2667,-9.2701,-9.2701,-9.2701,-9.384,-9.4443,-9.4443,-9.5738,0.0,-9.6341,-9.6341,-9.6341,-9.6274,-9.4979,-9.4443,-9.4342,-9.317,-9.2701,-9.2567,-9.1481,-9.1045,-9.0911,-8.9737,-8.9302,-8.8933,-8.657,-8.5697,-8.5496,-8.4356,-8.3953,-8.3953,-8.3953,-8.3953,0.0,-8.3953,-8.3953,-8.3953,-8.3953,-8.3953,-8.3953,-8.3953,-8.3953,-8.3953,-8.3953,-8.3953,-8.3953,-8.3953,-8.4099,-8.4209,-8.4223,-8.4057,-8.4192,-8.486,-8.4027,-8.3648,-8.4713,-8.4716,-8.4915,-8.5416,-8.5391,-8.5365,-8.536,-8.5447,-8.5416,-8.5244,-8.501,-8.4268,-8.2794,-8.2358,-8.0957,-7.8491,-7.884,-7.7115,-7.317,-7.3666,-7.2713,-7.0279,-6.6376,-6.4567,0.0,0.0,0.0,0.0,0.0,0.0,0.0,0.0,0.0,0.0,0.0,0.0,0.0,0.0,0.0,0.0,-6.9881,-7.2752,-7.3959,-7.5121,-7.6006,-7.628,-7.8581,-8.0342,-8.0956,-8.2265,-8.3207,-8.3461,-8.4163,-8.5546,-8.7954,-8.854,0.0,0.0,0.0,-9.2701,-9.2701,-9.2835,-9.2935,-9.2935,-9.3157,-9.3203,-9.3203,-9.3203,-9.3203,-9.317,-9.3002,-9.2935,-9.2935,-9.2768,-9.2701,-9.2218,-8.7006,-8.496,-8.496,-8.4758,-8.4725,-8.4658,-8.4322,0.0,0.0,-8.402,-8.3953,-8.3953,-8.3953,-8.3953,-8.3953,-8.3953,-8.3953,-8.3953,-8.3953,-8.3953,-8.3953,-8.3953,-8.3953,-8.3953,-8.3953,-8.3953,-8.3953,-8.3953,-8.4556,-8.5058,-8.5138,-8.3296,-8.2229,-8.357,-8.3647,-8.3895,-8.4984,-8.5084,-8.5144,-8.5329,-8.5329,0.0,-8.5478,-8.5539,-8.5508,-8.5478,-8.4209,-8.2729,-8.117,-8.1105,-7.9028,-7.4748,-7.5186,-7.3628,-6.9905,-6.898,-6.8695,-6.885,-6.1135,-5.7759,0.0,0.0,0.0,0.0,0.0,0.0,0.0,0.0,0.0,0.0,0.0,0.0,0.0,0.0,0.0,0.0,-6.6319,-6.9441,-7.0999,-7.242,-7.3617,-7.4471,-7.6345,-7.7692,-7.7902,-7.9883,-8.1303,-8.1719,-8.2682,-8.3863,-8.5348,-8.5649,-8.6318,-8.7559,-8.7626,-8.8028,-8.8866,-8.9737,-9.0556,-9.1514,-9.2299,-9.2701,-9.2701,-9.2701,-9.2701,-9.2667,-9.1883,-9.1514,-9.1347,-8.957,-8.8866,-8.8531,0.0,0.0,0.0,0.0,-8.3953,-8.3853,-8.2914,-8.2612,-8.2478,-8.1639,-8.1371,-8.1371,-8.1371,-8.1371,-8.1371,-8.1371,-8.1371,-8.1371,-8.1371,-8.1371,-8.1371,-8.1371,-8.1371,-8.1371,-8.1371,-8.1371,-8.1371,-8.1371,-8.1815,0.0,-8.3376,-8.342,-8.3612,-8.4381,-8.4278,-8.4414,-8.5176,-8.5016,-8.4948,-8.5386,-8.5391,-8.536,-8.5422,-8.5478,0.0,0.0,0.0,-8.182,-8.0583,-7.8353,0.0,0.0,0.0,-6.7913,-6.3167,-6.3583,0.0,0.0,-5.4656,-5.2541,0.0,0.0,0.0,0.0,0.0,0.0,0.0,0.0,0.0,0.0,0.0,0.0,0.0,0.0,0.0,0.0,-6.2827,-6.5496,-6.6387,-6.8358,-7.0361,-7.2236,-7.3715,-7.4814,-7.5303,-7.715,-7.8729,-7.9627,-8.0656,-8.1816,-8.3138,-8.3301,-8.3517,-8.3953,-8.3953,-8.449,-8.5496,-8.6553,-8.7659,-8.8765,-8.9838,-9.0307,-9.0307,-9.0307,-9.0307,-9.0274,-8.9201,-8.8765,-8.8598,-8.6435,-8.553,-8.5329,-8.3484,-8.2746,-8.2746,-8.2746,-8.2746,-8.2511,-8.0968,-8.0117,-7.9694,-7.862,-7.8285,-7.8285,-7.8285,-7.8285,-7.8285,-7.8285,-7.8553,-7.8889,-7.8889,-7.919,-7.9526,-7.9526,-7.9526,-7.9526,-7.9526,-7.9526,-7.9526,-7.9526,-7.9183,-7.9371,-8.0708,-8.2091,-8.3163,-8.3721,-8.3919,-8.417,-8.4619,-8.4729,-8.4915,-8.5416,-8.5391,-8.5149,-8.4778,-8.4834,-8.4052,-8.2194,-8.1279,-8.025,-7.9046,-7.5721,-7.1597,-6.6754,-6.5462,-6.2742,0.0,0.0,0.0,0.0,0.0,0.0,0.0,0.0,0.0,0.0,0.0,0.0,0.0,0.0,0.0,0.0,0.0,0.0,0.0,0.0,0.0,0.0,0.0,0.0,-6.0,-6.2849,-6.6144,-6.9003,-7.0723,-7.2306,-7.3952,-7.3953,-7.4658,-7.6572,-7.6784,-7.8141,-8.1177,-8.1597,-8.241,-8.392,-8.3953,-8.3987,-8.402,-8.4087,-8.4121,-8.4188,-8.4222,-8.4255,-8.4255,-8.4255,-8.4255,-8.4255,-8.4188,-8.4188,-8.4155,-8.4054,-8.402,-8.3752,-8.08,-7.966,-7.966,-7.966,-7.966,-7.9425,-7.7837,-7.6396,-7.5233,-7.5156,-7.5156,-7.5156,-7.5156,-7.5156,-7.5156,-7.5156,-7.6161,-7.7234,-7.7234,-7.8386,-7.9526,-7.9526,-7.9526,-7.9526,-7.9526,-7.9526,-7.9526,-7.9526,-7.761,-7.63,-7.7504,-7.8176,-7.8951,-8.0258,-8.1707,0.0,-8.303,-8.4273,-8.518,-8.5334,-8.5329,-8.4778,-8.3379,-8.3145,-8.2406,-8.0799,-7.9033,-7.7394,-7.5851,-7.3577,-7.0864,-6.7661,-6.2421,-5.9108,-5.7962,0.0,0.0,0.0,0.0,0.0,0.0,0.0,0.0,0.0,0.0,0.0,0.0,0.0,0.0,0.0,0.0,0.0,0.0,0.0,0.0,0.0,0.0,0.0,0.0,-5.9029,-6.1747,-6.4608,-6.6252,-6.7741,-6.9275,-7.0208,-7.1482,-7.336,-7.3504,-7.4468,-7.6739,-7.693,-7.7735,-7.9379,-7.9446,-8.0432,-8.241,-8.2444,-8.2947,-8.3953,-8.3953,-8.3953,-8.3953,-8.3953,-8.3953,-8.3953,-8.3953,-8.3953,-8.3886,-8.2846,-8.07,-7.7949,-7.6943,-7.6574,-7.6574,-7.6574,-7.6574,-7.6463,-7.5927,-7.5424,-7.5021,-7.5021,-7.5021,-7.5021,-7.5021,-7.5021,-7.5021,-7.5021,-7.5357,-7.5725,-7.5725,-7.6128,-7.6574,-7.6574,-7.6574,-7.6574,-7.6574,-7.6574,-7.6574,-7.6574,-7.5424,-7.4645,-7.5067,-7.669,-7.8081,-7.8519,-8.0158,-8.1351,-8.1447,-8.1938,-8.2292,-8.2232,-8.2268,-8.1986,-8.1417,-8.1351,-8.0206,-7.7481,-7.6163,-7.3902,-7.0326,-6.8321,-6.5685,-6.2188,-5.869,-5.6197,-5.47,0.0,0.0,0.0,0.0,0.0,0.0,0.0,0.0,0.0,0.0,0.0,0.0,0.0,0.0,0.0,0.0,0.0,0.0,0.0,0.0,0.0,0.0,0.0,0.0,0.0,0.0,-6.0174,-6.1747,0.0,-6.4608,-6.5627,-6.7092,-6.9401,-6.9652,-7.0685,-7.2882,-7.3122,-7.391,-7.547,-7.5581,-7.6798,-7.9291,-7.9279,-7.9828,-8.08,-8.08,-8.08,-8.08,-8.08,-8.08,-8.08,-8.08,-8.08,-8.0666,-7.9157,-7.6541,-7.3412,-7.3412,-7.3412,-7.3412,-7.3412,-7.3412,-7.3345,-7.2843,-7.2675,-7.2574,-7.2072,-7.1535,-7.1166,-7.1736,-7.1543,-7.12,-7.1778,-7.2273,-7.2675,-7.2675,-7.3044,-7.3412,-7.3412,-7.3412,-7.3412,-7.3412,-7.3624,-7.3328,-7.1744,-7.1041,-7.1022,-7.211,-7.3728,-7.5021,-7.5233,-7.7387,-7.8927,-7.8869,-7.9928,-8.0678,-8.0625,-8.0596,-8.0314,-7.965,-7.9016,-7.7551,-7.4869,-7.2841,-7.0273,-6.6959,-6.4214,-6.1263,-5.8052,-5.5805,-5.3341,0.0,0.0,0.0,0.0,0.0,0.0,0.0,0.0,0.0,0.0,0.0,0.0,0.0,0.0,0.0,0.0,0.0,0.0,0.0,0.0,0.0,0.0,0.0,0.0,0.0,0.0,0.0,-5.57,-5.7243,0.0,0.0,0.0,0.0,-6.4706,-6.5203,-6.6577,-6.9408,-6.9882,-7.0708,-7.2144,-7.2423,-7.3287,-7.4787,-7.4787,-7.482,-7.4887,-7.4887,-7.4921,-7.5021,-7.5021,-7.5021,-7.5021,-7.5021,-7.4988,-7.483,-7.3153,-7.1577,-7.0228,-7.0161,-7.0127,-7.0127,-7.0127,-7.0127,-6.9926,-6.8552,-6.8082,-6.7848,-6.6445,-6.4931,-6.3993,-6.5401,-6.4831,0.0,0.0,-6.6976,-6.8082,-6.8082,-6.9088,-7.0127,-7.0127,-7.0127,-7.0127,-7.0127,-7.0621,-6.9766,-6.5345,-6.4595,-6.5618,-6.8393,0.0,-6.9721,-7.0412,-7.333,-7.5417,-7.5412,-7.8106,-7.9973,-8.0009,-8.0009,-7.9333,-7.7717,-7.6101,-7.4475,-7.2829,-6.9231,-6.6579,-6.5271,-6.1305,-5.7843,-5.5184,-5.3551,0.0,0.0,0.0,0.0,0.0,0.0,0.0,0.0,0.0,0.0,0.0,0.0,0.0,0.0,0.0,0.0,0.0,0.0,0.0,0.0,0.0,0.0,0.0,0.0,0.0,0.0,-4.7376,-4.9383,-5.1226,-5.1785,-5.2968,0.0,0.0,0.0,0.0,0.0,0.0,-6.3351,-6.3566,-6.4923,-6.7769,-6.7948,-6.9155,-7.1669,-7.1703,-7.2273,-7.3455,-7.3455,-7.4025,-7.5021,-7.5021,-7.5021,-7.5021,-7.5021,-7.4461,-7.3086,-6.8217,-6.6004,-6.5535,-6.4462,-6.4026,-6.4026,-6.4026,-6.4026,-6.3993,-6.3624,-6.349,-6.3255,-6.185,-6.1076,-6.0607,-5.987,0.0,0.0,0.0,0.0,-6.349,-6.349,-6.3758,-6.4026,-6.4026,-6.4026,-6.4026,-6.4026,-6.4174,-6.3258,-5.9703,-6.0327,-6.148,-6.1567,-6.3661,0.0,-6.7239,-6.9246,-7.0999,-7.2125,-7.2917,-7.3338,-7.3235,-7.3243,-7.3036,-7.2494,-7.2044,-7.0587,-6.7767,-6.667,-6.3719,-5.8395,-5.7499,-5.4399,-4.861,0.0,0.0,0.0,0.0,0.0,0.0,0.0,0.0,0.0,0.0,0.0,0.0,0.0,0.0,0.0,0.0,0.0,0.0,0.0,0.0,0.0,0.0,0.0,0.0,0.0,0.0,0.0,-4.3519,-4.5797,-4.6856,-4.8069,-4.945,0.0,0.0,0.0,0.0,0.0,0.0,0.0,0.0,0.0,-6.2099,-6.2981,-6.4429,-6.6708,-6.6742,-6.7479,-6.8954,-6.8954,-6.9759,-7.1208,-7.1208,-7.1208,-7.1208,-7.1208,-6.9665,-6.6814,-6.2719,-6.0708,-6.0004,0.0,0.0,0.0,0.0,-5.7992,-5.7992,-5.7992,-5.7992,-5.7825,-5.7054,0.0,0.0,0.0,0.0,0.0,0.0,0.0,-5.7992,-5.7992,-5.7992,-5.7992,-5.7992,-5.7992,-5.816,-5.8763,-5.7716,-5.6367,-5.5488,-5.6357,-5.7358,-5.7779,-5.9495,0.0,0.0,0.0,-6.6365,-6.8553,-6.9347,-6.993,-7.0599,-7.0706,-7.0615,-7.0531,-6.9247,-6.7642,-6.5822,-6.2934,-5.9667,-5.6061,-5.3981,-5.0876,0.0,0.0,0.0,0.0,0.0,0.0,0.0,0.0,0.0,0.0,0.0,0.0,0.0,0.0,0.0,0.0,0.0,0.0,0.0,0.0,0.0,0.0,0.0,0.0,0.0,0.0,0.0,0.0,0.0,-4.205,-4.2586,0.0,0.0,0.0,0.0,0.0,0.0,0.0,0.0,0.0,0.0,0.0,0.0,0.0,-5.8998,-6.0071,-6.0641,-6.1646,-6.3088,-6.3289,-6.4194,-6.5707,-6.5707,-6.5707,-6.5673,-6.4902,0.0,-5.8697,-5.7121,0.0,0.0,0.0,0.0,0.0,0.0,0.0,0.0,0.0,0.0,0.0,0.0,0.0,0.0,0.0,0.0,0.0,0.0,0.0,0.0,0.0,0.0,-5.2492,-5.2519,-5.2583,-5.2851,-5.3985,-5.1656,-4.9958,-5.1924,-5.2473,-5.3218,0.0,0.0,0.0,0.0,0.0,0.0,-6.4633,-6.641,-6.7971,-6.9461,-6.9604,-6.9604,-6.9604,-6.6821,-6.4895,-6.4502,-5.8943,-5.5612,-5.5432,-5.0776,0.0,0.0,0.0,0.0,0.0,0.0,0.0,0.0,0.0,0.0,0.0,0.0,0.0,0.0,0.0,0.0,0.0,0.0,0.0,0.0,0.0,0.0,0.0,0.0,0.0,0.0,0.0,0.0,0.0,0.0,0.0,0.0,0.0,0.0,0.0,0.0,0.0,0.0,0.0,0.0,0.0,0.0,0.0,0.0,0.0,0.0,0.0,0.0,0.0,0.0,-5.9803,-6.1177,-6.2585,-6.2585,-6.2585,-6.2317,-5.7489,-5.4908,-5.407,-5.2528,0.0,0.0,0.0,0.0,0.0,0.0,0.0,0.0,0.0,0.0,0.0,0.0,0.0,0.0,0.0,0.0,0.0,0.0,0.0,0.0,0.0,0.0,-4.9458,-4.9775,-4.9857,-4.9721,-4.9223,0.0,0.0,0.0,0.0,0.0,0.0,0.0,0.0,0.0,0.0,0.0,-6.0047,-6.2592,-6.4298,-6.4584,-6.4619,-6.4619,-6.4619,-6.2932,-6.0756,-5.8164,-5.6919,-5.4533,0.0,0.0,0.0,0.0,0.0,0.0,0.0,0.0,0.0,0.0,0.0,0.0,0.0,0.0,0.0,0.0,0.0,0.0,0.0,0.0,0.0,0.0,0.0,0.0,0.0,0.0,0.0,0.0,0.0,0.0,0.0,0.0,0.0,0.0,0.0,0.0,0.0,0.0,0.0,0.0,0.0,0.0,0.0,0.0,0.0,0.0,0.0,0.0,0.0,0.0,0.0,0.0,0.0,0.0,0.0,0.0,0.0,0.0,-5.3299,-5.0752,0.0,0.0,0.0,0.0,0.0,0.0,0.0,0.0,0.0,0.0,0.0,0.0,0.0,0.0,0.0,0.0,0.0,0.0,0.0,0.0,0.0,0.0,0.0,0.0,0.0,0.0,0.0,0.0,0.0,0.0,0.0,0.0,0.0,0.0,0.0,0.0,0.0,0.0,0.0,0.0,-5.7492,-5.9637,-6.1231,-6.2076,-6.2148,-6.2148,-6.2148,-6.0007,-5.7974,-5.6488,-5.4085,0.0,0.0,0.0,0.0,0.0,0.0,0.0,0.0,0.0,0.0,0.0,0.0,0.0,0.0,0.0,0.0,0.0,0.0,0.0,0.0,0.0,0.0,0.0,0.0,0.0,0.0,0.0,0.0,0.0,0.0,0.0,0.0,0.0,0.0,0.0,0.0,0.0,0.0,0.0,0.0,0.0,0.0,0.0,0.0,0.0,0.0,0.0,0.0,0.0,0.0,0.0,0.0,0.0,0.0,0.0,0.0,0.0,0.0,0.0,-4.889,-4.6648,0.0,0.0,0.0,0.0,0.0,0.0,0.0,0.0,0.0,0.0,0.0,0.0,0.0,0.0,0.0,0.0,0.0,0.0,0.0,0.0,0.0,0.0,0.0,0.0,0.0,0.0,0.0,0.0,0.0,0.0,0.0,0.0,0.0,0.0,0.0,0.0,0.0,0.0,0.0,0.0,-5.5221,-5.7114,-5.8794,-6.0364,-6.0531,-6.0399,-6.0043,-5.7474,-5.5597,-5.4919,-5.143,0.0,0.0,0.0,0.0,0.0,0.0,0.0,0.0,0.0,0.0,0.0,0.0,0.0,0.0,0.0,0.0,0.0,0.0,0.0,0.0,0.0,0.0,0.0,0.0,0.0,0.0,0.0,0.0,0.0,0.0,0.0,0.0,0.0,0.0,0.0,0.0,0.0,0.0,0.0,0.0,0.0,0.0,0.0,0.0,0.0,0.0,0.0,0.0,0.0,0.0,0.0,0.0,0.0,0.0,0.0,0.0,0.0,0.0,0.0,0.0,0.0,0.0,0.0,0.0,0.0,0.0,0.0,0.0,0.0,0.0,0.0,0.0,0.0,0.0,0.0,0.0,0.0,0.0,0.0,0.0,0.0,0.0,0.0,0.0,0.0,0.0,0.0,0.0,0.0,0.0,0.0,0.0,0.0,0.0,0.0,0.0,0.0,0.0,0.0,0.0,0.0,-5.2123,-5.4806,-5.7202,-5.8758,-5.8937,-5.8366,-5.6916,-5.5262,-5.3071,-5.0216,0.0,0.0,0.0,0.0,0.0,0.0,0.0,0.0,0.0,0.0,0.0,0.0,0.0,0.0,0.0,0.0,0.0,0.0,0.0,0.0,0.0,0.0,0.0,0.0,0.0,0.0,0.0,0.0,0.0,0.0,0.0,0.0,0.0,0.0,0.0,0.0,0.0,0.0,0.0,0.0,0.0,0.0,0.0,0.0,0.0,0.0,0.0,0.0,0.0,0.0,0.0,0.0,0.0,0.0,0.0,0.0,0.0,0.0,0.0,0.0,0.0,0.0,0.0,0.0,0.0,0.0,0.0,0.0,0.0,0.0,0.0,0.0,0.0,0.0,0.0,0.0,0.0,0.0,0.0,0.0,0.0,0.0,0.0,0.0,0.0,0.0,0.0,0.0,0.0,0.0,0.0,0.0,0.0,0.0,0.0,0.0,0.0,0.0,0.0,0.0,0.0,0.0,-5.0311,-5.225,-5.3814,-5.442,-5.4513,-5.4242,-5.36,-5.2123,-5.068,-4.9431,0.0,0.0,0.0,0.0,0.0,0.0,0.0,0.0,0.0,0.0,0.0,0.0,0.0,0.0,0.0,0.0,0.0,0.0,0.0,0.0,0.0,0.0,0.0,0.0,0.0,0.0,0.0,0.0,0.0,0.0,0.0,0.0,0.0,0.0,0.0,0.0,0.0,0.0,0.0,0.0,0.0,0.0,0.0,0.0,0.0,0.0,0.0,0.0,0.0,0.0,0.0,0.0,0.0,0.0,0.0,0.0,0.0,0.0,0.0,0.0,0.0,0.0,0.0,0.0,0.0,0.0,0.0,0.0,0.0,0.0,0.0,0.0,0.0,0.0,0.0,0.0,0.0,0.0,0.0,0.0,0.0,0.0,0.0,0.0,0.0,0.0,0.0,0.0,0.0,0.0,0.0,0.0,0.0,0.0,0.0,0.0,0.0,0.0,0.0,0.0,0.0,0.0,-4.9252,-5.0359,-5.1195,-5.1638,-5.171,-5.1516,-5.1052,-5.0002,-4.9181,-4.8717,0.0,0.0,0.0,0.0,0.0,0.0,0.0,0.0,0.0,0.0,0.0,0.0,0.0,0.0,0.0,0.0,0.0,0.0,0.0,0.0,0.0,0.0,0.0,0.0,0.0,0.0,0.0,0.0,0.0,0.0,0.0,0.0,0.0,0.0,0.0,0.0,0.0,0.0,0.0,0.0,0.0,0.0,0.0,0.0,0.0,0.0,0.0,0.0,0.0,0.0,0.0,0.0,0.0,0.0,0.0,0.0,0.0,0.0,0.0,0.0,0.0,0.0,0.0,0.0,0.0,0.0,0.0,0.0,0.0,0.0,0.0,0.0,0.0,0.0,0.0,0.0,0.0,0.0,0.0,0.0,0.0,0.0,0.0,0.0,0.0,0.0,0.0,0.0,0.0,0.0,0.0,0.0,0.0,0.0,0.0,0.0,0.0,0.0,0.0,0.0,0.0,0.0,-4.8967,-4.9395,-5.0002,-5.1552,-5.171,-5.1088,-4.9538,-4.9395,-4.8717,0.0,0.0,0.0,0.0,0.0,0.0,0.0,0.0,0.0,0.0,0.0,0.0,0.0,0.0,0.0,0.0,0.0,0.0,0.0,0.0,0.0,0.0,0.0,0.0,0.0,0.0,0.0,0.0,0.0,0.0,0.0,0.0,0.0,0.0,0.0,0.0,0.0,0.0,0.0,0.0,0.0,0.0,0.0,0.0,0.0,0.0,0.0,0.0,0.0,0.0,0.0,0.0,0.0,0.0,0.0,0.0,0.0,0.0,0.0,0.0,0.0,0.0,0.0,0.0,0.0,0.0,0.0,0.0,0.0,0.0,0.0,0.0,0.0,0.0,0.0,0.0,0.0,0.0,0.0,0.0,0.0,0.0,0.0,0.0,0.0,0.0,0.0,0.0,0.0,0.0,0.0,0.0,0.0,0.0,0.0,0.0,0.0,0.0,0.0,0.0,0.0,0.0,0.0,-4.7485,-4.7789,-4.7949,-4.8448,-4.8519,-4.8305,-4.7825,-4.7789,-4.7128,-4.554,0.0,0.0,0.0,0.0,0.0,0.0,0.0,0.0,0.0,0.0,0.0,0.0,0.0,0.0,0.0,0.0,0.0,0.0,0.0,0.0,0.0,0.0,0.0,0.0,0.0,0.0,0.0,0.0,0.0,0.0,0.0,0.0,0.0,0.0,0.0,0.0,0.0,0.0,0.0,0.0,0.0,0.0,0.0,0.0,0.0,0.0,0.0,0.0,0.0,0.0,0.0,0.0,0.0,0.0,0.0,0.0,0.0,0.0,0.0,0.0,0.0,0.0,0.0,0.0,0.0,0.0,0.0,0.0,0.0,0.0,0.0,0.0,0.0,0.0,0.0,0.0,0.0,0.0,0.0,0.0,0.0,0.0,0.0,0.0,0.0,0.0,0.0,0.0,0.0,0.0,0.0,0.0,0.0,0.0,0.0,0.0,0.0,0.0,0.0,0.0,0.0,0.0,0.0,-4.7021,-4.7021,-4.7021,-4.7021,-4.7021,-4.7021,-4.7021,-4.6379,-4.4791,0.0,0.0,0.0,0.0,0.0,0.0,0.0,0.0,0.0,0.0,0.0,0.0,0.0,0.0,0.0,0.0,0.0,0.0,0.0,0.0,0.0,0.0,0.0,0.0,0.0,0.0,0.0,0.0,0.0,0.0,0.0,0.0,0.0,0.0,0.0,0.0,0.0,0.0,0.0,0.0,0.0,0.0,0.0,0.0,0.0,0.0,0.0,0.0,0.0,0.0,0.0,0.0,0.0,0.0,0.0,0.0,0.0,0.0,0.0,0.0,0.0,0.0,0.0,0.0,0.0,0.0,0.0,0.0,0.0,0.0,0.0,0.0,0.0,0.0,0.0,0.0,0.0,0.0,0.0,0.0,0.0,0.0,0.0,0.0,0.0,0.0,0.0,0.0,0.0,0.0,0.0,0.0,0.0,0.0,0.0,0.0,0.0,0.0,0.0,0.0,0.0,0.0,0.0,-4.7021,-4.7021,-4.7021,-4.7021,-4.7021,-4.7021,-4.7021,-4.6307,-4.4649,-4.3168,0.0,0.0,0.0,0.0,0.0,0.0,0.0,0.0,0.0,0.0,0.0,0.0,0.0,0.0,0.0,0.0,0.0,0.0,0.0,0.0,0.0,0.0,0.0,0.0,0.0,0.0,0.0,0.0,0.0,0.0,0.0,0.0,0.0,0.0,0.0,0.0,0.0,0.0,0.0,0.0,0.0,0.0,0.0,0.0,0.0,0.0,0.0,0.0,0.0,0.0,0.0,0.0,0.0,0.0,0.0,0.0,0.0,0.0,0.0,0.0,0.0,0.0,0.0,0.0,0.0,0.0,0.0,0.0,0.0,0.0,0.0,0.0,0.0,0.0,0.0,0.0,0.0,0.0,0.0,0.0,0.0,0.0,0.0,0.0,0.0,0.0,0.0,0.0,0.0,0.0,0.0,0.0,0.0,0.0,0.0,0.0,0.0,0.0,0.0,0.0,0.0,0.0,-4.7021,-4.7021,-4.7021,-4.7021,-4.7021,-4.7021,-4.7021,-4.5844,-4.3114,-4.2578,0.0,0.0,0.0,0.0,0.0,0.0,0.0,0.0,0.0,0.0,0.0,0.0,0.0,0.0,0.0,0.0,0.0,0.0,0.0,0.0,0.0,0.0,0.0,0.0,0.0,0.0,0.0,0.0,0.0,0.0,0.0,0.0,0.0,0.0,0.0,0.0,0.0,0.0,0.0,0.0,0.0,0.0,0.0,0.0,0.0,0.0,0.0,0.0,0.0,0.0,0.0,0.0,0.0,0.0,0.0,0.0,0.0,0.0,0.0,0.0,0.0,0.0,0.0,0.0,0.0,0.0,0.0,0.0,0.0,0.0,0.0,0.0,0.0,0.0,0.0,0.0,0.0,0.0,0.0,0.0,0.0,0.0,0.0,0.0,0.0,0.0,0.0,0.0,0.0,0.0,0.0,0.0,0.0,0.0,0.0,0.0,0.0,0.0,0.0,0.0,0.0,0.0,-4.5523,-4.6236,-4.695,-4.7021,-4.7021,-4.7021,-4.6379,-4.4952,-4.2543,-4.0972,0.0,0.0,0.0,0.0,0.0,0.0,0.0,0.0,0.0,0.0,0.0,0.0,0.0,0.0,0.0,0.0,0.0,0.0,0.0,0.0,0.0,0.0,0.0,0.0,0.0,0.0,0.0,0.0,0.0,0.0,0.0,0.0,0.0,0.0,0.0,0.0,0.0,0.0,0.0,0.0,0.0,0.0,0.0,0.0,0.0,0.0,0.0,0.0,0.0,0.0,0.0,0.0,0.0,0.0,0.0,0.0,0.0,0.0,0.0,0.0,0.0,0.0,0.0,0.0,0.0,0.0,0.0,0.0,0.0,0.0,0.0,0.0,0.0,0.0,0.0,0.0,0.0,0.0,0.0,0.0,0.0,0.0,0.0,0.0,0.0,0.0,0.0,0.0,0.0,0.0,0.0,0.0,0.0,0.0,0.0,0.0,0.0,0.0,0.0,0.0,0.0,0.0,0.0,-4.5291,-4.6878,-4.7021,-4.7021,-4.7021,-4.5611,-4.406,-4.2471,0.0,0.0,0.0,0.0,0.0,0.0,0.0,0.0,0.0,0.0,0.0,0.0,0.0,0.0,0.0,0.0,0.0,0.0,0.0,0.0,0.0,0.0,0.0,0.0,0.0,0.0,0.0,0.0,0.0,0.0,0.0,0.0,0.0,0.0,0.0,0.0,0.0,0.0,0.0,0.0,0.0,0.0,0.0,0.0,0.0,0.0,0.0,0.0,0.0,0.0,0.0,0.0,0.0,0.0,0.0,0.0,0.0,0.0,0.0,0.0,0.0,0.0,0.0,0.0,0.0,0.0,0.0,0.0,0.0,0.0,0.0,0.0,0.0,0.0,0.0,0.0,0.0,0.0,0.0,0.0,0.0,0.0,0.0,0.0,0.0,0.0,0.0,0.0,0.0,0.0,0.0,0.0,0.0,0.0,0.0,0.0,0.0,0.0,0.0,0.0,0.0,0.0,0.0,0.0,-4.5291,-4.6878,-4.7021,-4.7021,-4.7021,-4.5611,-4.406,-4.2471,0.0,0.0,0.0,0.0,0.0,0.0,0.0,0.0,0.0,0.0,0.0,0.0,0.0,0.0]}],[{"header":{"parameterUnit":"kt","parameterCategory":2,"dx":1,"dy":1,"la1":29.285339999999998,"la2":30.599998999999997,"lo1":-89.70041500000002,"lo2":-87.6738589999976,"nx":112,"ny":82,"refTime":"2022-10-19T18:00:00:Z","depth":0,"parameterNumber":2,"parameterNumberName":"V-component_of_WINDS"},"data":[5.6775,5.577,5.4742,5.3615,5.3102,5.2541,5.154,5.0488,4.9366,4.808,4.6701,4.5439,4.4411,4.3639,4.2798,4.1769,4.1302,4.0864,0.0,4.1276,4.2881,4.5206,4.8729,5.1808,5.3987,5.5133,5.6422,5.7957,5.9607,6.0857,6.1583,6.4138,6.6173,6.7573,6.9701,7.1267,7.2272,7.3301,7.3838,7.3838,7.3838,7.3838,7.3838,7.3838,7.3838,7.3838,7.3838,7.3838,7.3838,7.3838,7.3838,7.3838,7.3838,7.3838,7.3838,7.3838,7.3838,7.3838,7.3838,7.3425,7.2699,7.2699,7.2282,7.1654,7.1234,7.1129,7.1023,7.0601,7.0601,7.0601,7.0601,7.0601,7.0601,7.0601,7.0812,7.1339,7.1969,7.2491,7.3011,7.3735,7.3838,7.3838,7.3838,7.3838,7.3402,7.1969,7.1759,7.1759,7.1759,7.2387,7.2699,7.2699,7.3425,7.3838,7.3838,7.3838,7.3838,7.3838,7.3838,7.3838,7.3838,7.3838,7.3838,7.3838,7.3838,7.3511,7.2833,7.2483,7.1618,7.0309,6.9584,6.8883,5.4595,5.362,5.2568,5.1468,5.0954,5.0417,4.9436,4.8407,4.7192,4.5573,4.4683,4.3733,4.2354,4.24,4.205,4.0297,4.0601,4.0694,0.0,4.1337,4.3654,4.6521,5.0377,5.3481,5.5253,5.6377,5.7569,5.903,6.0691,6.1957,6.2659,6.519,6.7223,6.8696,7.0402,7.1781,7.281,7.3488,7.3838,7.3838,7.3838,7.3838,7.3838,7.3838,7.3838,7.3838,7.3838,7.3838,7.3838,7.3838,7.3838,7.3838,7.3838,7.3838,7.3838,7.3838,7.3838,7.3838,7.3838,7.3322,7.2595,7.2282,7.1654,7.0918,7.0177,6.9965,6.9859,6.9454,6.9326,6.9326,6.9326,6.9326,6.9326,6.9326,6.9646,7.0155,7.0895,7.1339,7.1864,7.2595,7.2803,7.2803,7.2803,7.2803,7.2282,7.0812,7.0601,7.0601,7.0601,7.1444,7.2073,7.2073,7.3218,7.3838,7.3838,7.3838,7.3838,7.3838,7.3838,7.3838,7.3838,7.3838,7.3838,7.3838,7.3488,7.2974,7.2296,7.1594,7.0566,6.9234,6.8883,6.8345,5.2471,5.1469,5.0371,4.9366,4.8361,4.7356,4.6439,4.5456,4.4449,4.3359,4.3148,4.2541,4.0577,4.1045,4.0717,3.7702,3.8972,0.0,0.0,4.1191,4.4522,4.8796,5.1861,5.4161,5.5333,5.6425,5.7897,5.9991,6.1138,6.2636,6.4652,6.6663,6.8673,7.0706,7.1758,7.2787,7.3815,7.3838,7.3838,7.3838,7.3838,7.3838,7.3838,7.3838,7.3838,7.3838,7.3838,7.3838,7.3838,7.3838,7.3838,7.3838,7.3838,7.3838,7.3838,7.3838,7.3838,7.3838,7.3838,7.3838,7.3632,7.2387,7.1969,7.1549,6.9411,6.8769,6.8555,6.7412,6.7108,6.7108,6.7108,6.7108,6.7108,6.7108,6.7931,6.8769,6.8769,6.973,7.0517,7.0601,7.0601,7.0601,7.0601,7.0495,7.0389,7.0389,7.0389,7.0389,7.0389,7.1339,7.2073,7.2073,7.3115,7.3838,7.3838,7.3838,7.3838,7.3838,7.3838,7.3838,7.3838,7.3792,7.3768,7.3768,7.2763,7.2249,7.2202,7.0192,6.921,6.9164,6.8063,6.7596,5.0558,4.9296,4.8267,4.7262,4.6883,4.6415,4.5385,4.4941,4.4449,4.3359,4.3148,0.0,0.0,0.0,4.3779,4.3724,0.0,4.5205,4.4285,4.6005,4.8415,5.1122,5.284,5.4478,5.6331,5.8131,5.9721,6.1115,6.2894,6.4419,6.5612,6.7714,6.9421,7.073,7.1758,7.2787,7.3815,7.3838,7.3838,7.3838,7.3838,7.3838,7.3838,7.3838,7.3838,7.3838,7.3838,7.3838,7.3838,7.3838,7.3838,7.3838,7.3838,7.3838,7.3838,7.3838,7.3838,7.3838,7.3838,7.3299,7.2282,7.0367,6.909,6.8383,6.7737,6.752,6.752,6.7217,6.7108,6.7108,6.7108,6.7108,6.7108,6.7108,6.7325,6.7823,6.8662,6.909,6.9517,7.0389,7.0601,7.0601,7.0601,6.9112,6.806,6.806,6.806,6.806,6.806,6.8983,7.0049,7.0918,7.1969,7.2907,7.3838,7.3838,7.3838,7.3838,7.3838,7.3838,7.3838,7.3114,7.2716,7.2716,7.1711,7.0823,7.0075,6.9514,6.886,6.8112,6.7737,6.7596,4.787,4.6234,4.4995,4.4411,4.427,4.413,4.3522,4.3709,4.3733,4.2704,0.0,0.0,0.0,0.0,0.0,0.0,4.7122,4.7963,4.6958,4.8548,5.0792,5.3265,5.4555,5.5817,5.743,5.9546,6.1372,6.2759,6.4395,6.5751,6.6663,6.8766,7.0356,7.1384,7.2413,7.3231,7.3838,7.3838,7.3838,7.3838,7.3838,7.3838,7.3838,7.3838,7.3838,7.3838,7.3838,7.3838,7.3838,7.3838,7.3838,7.3838,7.3838,7.3838,7.3838,7.3838,7.3838,7.3838,7.3322,7.2699,7.1864,7.0155,6.8791,6.7737,6.7217,6.7108,6.7108,6.7108,6.7108,6.7108,6.7108,6.7108,6.7108,6.7108,6.7108,6.7217,6.7931,6.8039,6.8254,6.9027,6.9134,6.9134,6.9134,6.7953,6.7108,6.7108,6.7108,6.7108,6.7108,6.8147,6.909,6.973,7.0812,7.1969,7.3011,7.3091,7.3322,7.3815,7.3838,7.3632,7.3115,7.1686,7.095,7.1063,6.9944,6.933,6.9234,6.879,6.818,6.7596,6.7596,6.7596,4.4878,4.2891,4.1419,4.1419,4.1512,4.1629,4.1769,0.0,4.3125,4.2447,0.0,4.4808,4.413,0.0,0.0,4.5813,4.7893,4.9366,4.827,5.0161,5.2638,5.5443,5.6565,5.7593,5.8715,6.0553,6.2566,6.4699,6.5774,6.6686,6.7737,6.9818,7.1361,7.2272,7.3301,7.3838,7.3838,7.3838,7.3838,7.3838,7.3838,7.3838,7.3838,7.3838,7.3838,7.3838,7.3838,7.3838,7.3838,7.3838,7.3838,7.3838,7.3838,7.3838,7.3838,7.3735,7.3632,7.3529,7.2387,7.1864,7.1549,7.0707,6.9539,6.8447,6.7412,6.7108,6.7108,6.7108,6.7108,6.7108,6.7108,6.7108,6.7108,6.7108,6.7108,6.7108,6.7108,6.7108,6.7108,6.7108,6.7108,6.7108,6.7108,6.7108,6.7108,6.7108,6.7108,6.7108,6.7108,6.7931,6.8662,6.8769,6.973,7.0812,7.1864,7.1969,7.2387,7.3402,7.3529,7.2941,7.1786,6.9967,6.8955,6.9025,6.7996,6.7981,6.907,6.804,6.7525,6.7312,6.7312,6.7312,4.2751,4.1255,4.0353,4.0343,4.0998,4.1816,0.0,0.0,0.0,4.621,4.6818,4.7543,4.8992,4.974,5.0301,5.0721,5.1981,5.2541,5.1514,5.4648,5.7219,5.7827,5.8061,5.8926,6.0857,6.1395,6.2759,6.5589,6.6733,6.776,6.8883,7.0893,7.2085,7.2296,7.3301,7.3838,7.3838,7.3838,7.3838,7.3838,7.3838,7.3838,7.3838,7.3838,7.3838,7.3838,7.3838,7.3838,7.3838,7.3838,7.3838,7.3838,7.3838,7.3838,7.3735,7.2803,7.2491,7.2282,7.1234,7.0283,6.9411,6.9197,6.8362,6.7304,6.7108,6.7108,6.7108,6.7108,6.7108,6.7108,6.7108,6.7108,6.7108,6.7108,6.7108,6.7108,6.7108,6.7108,6.7108,6.7108,6.7108,6.7108,6.7108,6.7108,6.7108,6.7108,6.7108,6.7108,6.7108,6.7217,6.7737,6.8769,6.8983,6.9624,7.0707,7.0812,7.0918,7.1129,7.1234,7.0746,6.9706,6.9252,6.864,6.7974,6.6968,6.6923,6.79,6.769,6.6742,6.511,6.511,6.5593,4.0437,3.9674,3.9276,3.9245,4.0834,0.0,0.0,4.4714,4.6444,4.7449,4.8478,4.9529,5.0535,5.161,5.2498,5.2961,5.4415,5.542,5.542,5.764,5.944,6.0038,6.0515,6.145,6.2993,6.3577,6.4489,6.5963,6.7503,6.914,7.0683,7.1735,7.2529,7.3044,7.3558,7.3838,7.3838,7.3838,7.3838,7.3838,7.3838,7.3838,7.3838,7.3838,7.3838,7.3838,7.3838,7.3838,7.3838,7.3838,7.3838,7.3838,7.3838,7.3529,7.2907,7.2387,7.1759,7.1129,7.0071,6.9304,6.8769,6.8147,6.752,6.7108,6.7108,6.7108,6.7108,6.7108,6.7108,6.7108,6.7108,6.7108,6.7108,6.7108,6.7108,6.7108,6.7108,6.7108,6.7108,6.7108,6.7108,6.7108,6.7108,6.7108,6.7108,6.7108,6.7108,6.7108,6.7108,6.7108,6.7325,6.7845,6.7931,6.8362,6.9646,6.973,6.9943,7.0495,7.0109,6.9304,6.8295,6.7301,6.6352,6.5325,6.4801,6.5088,6.6073,6.6073,6.5593,6.4529,6.4529,6.511,3.848,3.834,3.8551,3.8761,4.0975,0.0,4.3896,4.607,4.815,4.869,5.0184,5.1399,5.161,5.3199,5.4485,5.4485,5.6051,5.7687,5.8902,6.0141,6.1325,6.2168,6.2946,6.3881,6.491,6.5891,6.6453,6.6663,6.8486,7.0332,7.2202,7.2483,7.2974,7.3815,7.3838,7.3838,7.3838,7.3838,7.3838,7.3838,7.3838,7.3838,7.3838,7.3838,7.3838,7.3838,7.3838,7.3838,7.3838,7.3838,7.3712,7.3529,7.3529,7.2803,7.1759,7.1549,7.0918,7.0071,6.8876,6.8447,6.834,6.7434,6.7108,6.7108,6.7108,6.7108,6.7108,6.7108,6.7108,6.7108,6.7108,6.7108,6.7108,6.7108,6.7108,6.7108,6.7108,6.7108,6.7108,6.7108,6.7108,6.7108,6.7108,6.7108,6.7108,6.7108,6.7108,6.7108,6.7108,6.7108,6.7108,6.7108,6.7108,6.7304,6.7888,6.8233,6.8682,6.904,6.8692,6.7784,6.6644,6.5103,6.3688,6.265,6.284,6.351,6.4529,6.414,6.3945,6.3945,6.3945,6.4529,3.7352,3.7802,3.8684,3.9642,4.1536,0.0,4.6538,4.8127,4.981,5.2615,5.3386,5.3807,5.4742,5.584,5.6612,5.6612,5.757,5.8996,6.1021,6.2923,6.4232,6.4349,6.4465,6.4933,6.5823,6.685,6.783,6.8813,6.9958,7.108,7.2249,7.3161,7.3722,7.3838,7.3838,7.3838,7.3838,7.3838,7.3838,7.3838,7.3838,7.3838,7.3838,7.3838,7.3838,7.3838,7.3838,7.3838,7.3838,7.3838,7.3218,7.2282,7.2282,7.1654,7.0601,6.9624,6.909,6.8876,6.7629,6.7217,6.7217,6.7108,6.7108,6.7108,6.7108,6.7108,6.7108,6.7108,6.7108,6.7108,6.7108,6.7108,6.7108,6.7108,6.7108,6.7108,6.7108,6.7108,6.7108,6.7108,6.7108,6.7108,6.7108,6.7108,6.7108,6.7108,6.7108,6.7108,6.7108,6.7108,6.7108,6.7108,6.7108,6.6414,6.4929,6.6305,6.6273,6.3972,6.526,6.5258,6.3534,6.3257,6.2624,6.1652,6.2495,6.351,6.4529,6.2649,6.178,6.178,6.178,6.2353,3.7802,3.859,3.9783,4.1442,0.0,0.0,4.8127,5.0231,5.2311,5.3545,5.4835,5.5794,5.6238,5.7149,5.7851,5.7851,6.0235,6.2409,6.3273,6.4652,6.5564,6.5564,6.6616,6.7504,6.783,6.8883,6.9678,7.0099,7.108,7.1828,7.2272,7.3277,7.3838,7.3838,7.3838,7.3838,7.3838,7.3838,7.3838,7.3838,7.3838,7.3838,7.3838,7.3838,7.3838,7.3838,7.3838,7.3838,7.3838,7.3115,7.2595,7.2073,7.1444,7.0495,6.9517,6.8983,6.834,6.7737,6.7217,6.7108,6.7108,6.7108,6.7108,6.7108,6.7108,6.7108,6.7108,6.7108,6.7108,6.7108,6.7108,6.7108,6.7108,6.7108,6.7108,6.7108,6.7108,6.7108,6.7108,6.7108,6.7108,6.7108,6.7108,6.7108,6.6653,6.5628,6.6435,6.6653,6.5628,6.6414,6.6653,6.5628,6.5519,6.473,6.3051,6.4019,6.3766,6.1623,6.3154,6.2885,6.0091,6.0424,6.0477,6.0083,6.0464,6.1341,6.2747,6.1858,6.1461,6.1383,6.0464,6.0142,3.8223,0.0,0.0,0.0,0.0,0.0,5.0137,5.2168,5.3965,5.4625,5.5911,5.7056,5.7313,5.8458,5.9534,6.0118,6.2969,6.512,6.512,6.6218,6.692,6.692,6.8579,6.9654,6.9654,7.0589,7.1197,7.1197,7.2155,7.2716,7.2716,7.3441,7.3838,7.3838,7.3838,7.3838,7.3838,7.3838,7.3838,7.3838,7.3838,7.3838,7.3838,7.3838,7.3838,7.3838,7.3838,7.3735,7.3322,7.2178,7.1549,7.1106,7.0367,6.9304,6.834,6.834,6.7823,6.7108,6.7108,6.7108,6.7108,6.7108,6.7108,6.7108,6.7108,6.7108,6.7108,6.7108,6.7108,6.7108,6.7108,6.7108,6.7108,6.7108,6.7108,6.7108,6.7108,6.7108,6.7108,6.7108,6.7108,6.7108,6.7108,6.6653,6.5847,6.4489,6.508,6.519,6.3827,6.473,6.508,6.3827,6.3605,6.284,6.0933,6.1653,6.1404,5.9174,6.0676,6.0382,5.7697,5.8156,5.865,5.9075,5.9075,5.9882,6.1461,6.0543,6.0121,6.0021,5.8933,5.8122,0.0,0.0,0.0,4.5409,4.7636,4.995,5.3036,5.3755,5.4461,5.6448,5.6916,5.7266,5.8248,6.0178,6.2215,6.4208,6.5424,6.6033,6.6033,6.7783,6.914,6.914,7.0075,7.073,7.073,7.1641,7.2249,7.2249,7.3207,7.3792,7.3792,7.3815,7.3838,7.3838,7.3838,7.3838,7.3838,7.3838,7.3838,7.3838,7.3838,7.3838,7.3838,7.3838,7.3838,7.3838,7.3838,7.3218,7.2073,7.1023,6.9943,6.8876,6.8876,6.8147,6.7108,6.7108,6.7108,6.7108,6.7108,6.7108,6.7108,6.7108,6.7108,6.7108,6.7108,6.7108,6.7108,6.7108,6.7108,6.7108,6.7108,6.7108,6.7108,6.7108,6.7108,6.7108,6.7108,6.7108,6.7108,6.7108,6.7108,6.7108,6.7108,6.5628,6.4379,6.4379,6.294,6.1936,6.1936,6.1936,6.1936,6.1936,6.1936,6.0802,5.8215,5.9541,5.9027,5.5575,5.7123,5.7677,5.6608,5.6652,5.7388,5.9075,5.9075,5.9882,6.1461,5.8285,5.6755,5.6755,5.6632,5.6632,4.0063,4.1582,4.3522,4.7262,4.9202,5.0862,5.3242,5.4952,5.6121,5.6822,5.8038,5.9383,6.0412,6.2759,6.4839,6.5564,6.6429,6.734,6.8017,6.879,6.9491,7.0169,7.115,7.1781,7.1781,7.2716,7.3301,7.3301,7.3628,7.3838,7.3838,7.3838,7.3838,7.3838,7.3838,7.3838,7.3838,7.3838,7.3838,7.3838,7.3838,7.3838,7.3838,7.3838,7.3838,7.3838,7.3011,7.2491,7.1969,7.0155,6.9197,6.8769,6.7931,6.7412,6.7108,6.7108,6.7108,6.7108,6.7108,6.7108,6.7108,6.7108,6.7108,6.7108,6.7108,6.7108,6.7108,6.7108,6.7108,6.7108,6.7108,6.7108,6.7108,6.7108,6.7108,6.7108,6.7108,6.7108,6.6674,6.5519,6.5279,6.495,6.3736,6.3051,6.2271,6.1057,6.1375,6.1375,6.0174,6.1057,6.1375,6.0174,6.0061,5.8948,5.6348,5.708,5.6606,5.3821,5.5744,5.593,5.3409,5.4312,5.5125,5.5745,5.5745,5.6569,5.8183,5.7062,5.653,5.6549,5.5416,5.4917,4.1489,4.3172,4.5135,4.8828,5.0815,5.2311,5.4041,5.5747,5.7056,5.743,5.9136,6.0974,6.2027,6.4349,6.6196,6.6569,6.748,6.8486,6.914,6.9865,7.0589,7.1244,7.2226,7.2857,7.2857,7.3441,7.3838,7.3838,7.3838,7.3838,7.3838,7.3838,7.3838,7.3838,7.3838,7.3838,7.3838,7.3838,7.3838,7.3838,7.3838,7.3838,7.3838,7.3838,7.3838,7.3838,7.2282,7.1339,7.079,6.8983,6.8147,6.8147,6.7304,6.7108,6.7108,6.7108,6.7108,6.7108,6.7108,6.7108,6.7108,6.7108,6.7108,6.7108,6.7108,6.7108,6.7108,6.7108,6.7108,6.7108,6.7108,6.7108,6.7108,6.7108,6.7108,6.7108,6.7108,6.6544,6.5738,6.4599,6.3827,6.3051,6.2047,6.1263,6.0381,5.9286,5.9494,5.9475,5.8278,5.9153,5.9381,5.8278,5.7906,5.6956,5.4938,5.5001,5.431,5.2563,5.3896,5.3914,5.1777,5.2692,5.3495,5.3981,5.3981,5.4312,5.4813,5.4813,5.4813,5.4813,5.3705,5.3199,4.2354,4.4761,4.7141,5.0067,5.2358,5.4158,5.5256,5.6308,5.7336,5.8435,6.0235,6.2074,6.311,6.4933,6.6499,6.7503,6.8603,6.9257,6.9374,7.108,7.2319,7.2366,7.3231,7.3838,7.3838,7.3838,7.3838,7.3838,7.3838,7.3838,7.3838,7.3838,7.3838,7.3838,7.3838,7.3838,7.3838,7.3838,7.3838,7.3838,7.3838,7.3838,7.3838,7.3838,7.3815,7.3609,7.1444,6.9859,6.8769,6.752,6.7108,6.7108,6.7108,6.7108,6.7108,6.7108,6.7108,6.7108,6.7108,6.7108,6.7108,6.7108,6.7108,6.7108,6.7108,6.7108,6.7108,6.7108,6.7108,6.7108,6.7108,6.7108,6.7108,6.7108,6.7108,6.7108,6.7108,6.5628,6.4269,6.4158,6.2717,6.16,6.16,6.0061,5.8944,5.8944,5.7475,5.6341,5.6341,5.6341,5.6341,5.6341,5.5646,5.4862,5.4153,5.3367,5.2509,5.1742,5.1689,5.1689,5.1689,5.1689,5.2394,5.3895,5.3895,5.3181,5.1689,5.1689,5.1689,5.1689,5.1689,5.1671,4.3218,4.6327,4.8992,5.1281,5.2845,5.4368,5.6144,5.736,5.8599,6.0483,6.1824,6.3297,6.5073,6.6359,6.755,6.8673,6.907,6.9771,7.1291,7.1968,7.2576,7.3348,7.3675,7.3838,7.3838,7.3838,7.3838,7.3838,7.3838,7.3838,7.3838,7.3838,7.3838,7.3838,7.3838,7.3838,7.3838,7.3838,7.3838,7.3838,7.3838,7.3838,7.3838,7.3838,7.3402,7.2491,7.0261,6.909,6.8769,6.752,6.7108,6.7108,6.7108,6.7108,6.7108,6.7108,6.7108,6.7108,6.7108,6.7108,6.7108,6.7108,6.7108,6.7108,6.7108,6.7108,6.7108,6.7108,6.7108,6.7108,6.7108,6.7108,6.7108,6.7108,6.7108,6.7108,6.7108,6.5628,6.3605,6.0945,6.0061,5.9381,5.803,5.736,5.7033,5.7033,5.6669,5.6341,5.6341,5.6341,5.6341,5.6341,5.5646,5.4862,5.4153,5.3367,5.2509,5.1742,5.1689,5.1689,5.1689,5.1689,5.1883,5.2288,5.2288,5.2077,5.1689,5.1689,5.1689,5.1689,5.1689,5.135,4.3102,4.6865,5.0371,5.2425,5.3807,5.4976,5.6588,5.7734,5.9066,6.1208,6.2782,6.4465,6.6383,6.7223,6.7878,6.8462,6.9327,7.0309,7.1454,7.2389,7.3184,7.3768,7.3838,7.3838,7.3838,7.3838,7.3838,7.3838,7.3838,7.3838,7.3838,7.3838,7.3838,7.3838,7.3838,7.3838,7.3838,7.3838,7.3838,7.3838,7.3838,7.3838,7.3838,7.3322,7.2259,7.0579,6.9389,6.8555,6.8039,6.7304,6.7108,6.7108,6.7108,6.7108,6.7108,6.7108,6.7108,6.7108,6.7108,6.7108,6.7108,6.7108,6.7108,6.7108,6.7108,6.7108,6.7108,6.7108,6.7108,6.7108,6.7108,6.7108,6.7108,6.7108,6.7108,6.687,6.6087,6.451,6.2382,5.9626,5.8506,5.759,5.6572,5.6341,5.6341,5.6341,5.6341,5.6341,5.6341,5.6341,5.6216,5.5878,5.5129,5.4327,5.3652,5.2758,5.2135,5.1707,5.1689,5.1689,5.1689,5.1689,5.1689,5.1689,5.1689,5.1689,5.1689,5.1689,5.1689,5.1671,5.1315,5.1009,4.2751,4.6748,5.0885,5.3293,5.4648,5.5724,5.6892,5.7851,5.9136,6.1583,6.3437,6.533,6.7223,6.7596,6.7643,6.7878,6.9514,7.0823,7.0963,7.2623,7.3838,7.3838,7.3838,7.3838,7.3838,7.3838,7.3838,7.3838,7.3838,7.3838,7.3838,7.3838,7.3838,7.3838,7.3838,7.3838,7.3838,7.3838,7.3838,7.3838,7.3838,7.3838,7.3632,7.2387,7.0895,6.8983,6.8769,6.8039,6.7108,6.7108,6.7108,6.7108,6.7108,6.7108,6.7108,6.7108,6.7108,6.7108,6.7108,6.7108,6.7108,6.7108,6.7108,6.7108,6.7108,6.7108,6.7108,6.7108,6.7108,6.7108,6.7108,6.7108,6.7108,6.7108,6.6674,6.5868,6.4048,6.2494,6.0945,5.9058,5.7475,5.6341,5.6341,5.6341,5.6341,5.6341,5.6341,5.6341,5.6341,5.6252,5.5931,5.5272,5.4363,5.3652,5.2883,5.2117,5.1689,5.1689,5.1689,5.1689,5.1689,5.1689,5.1689,5.1689,5.1689,5.1689,5.1689,5.1689,5.1618,5.1493,5.0884,5.0455,4.3616,4.6257,4.9109,5.2868,5.4648,5.5911,5.7804,5.8365,5.9557,6.3367,6.4442,6.533,6.7223,6.7596,6.7972,6.8836,6.9982,7.1057,7.1922,7.3067,7.3838,7.3838,7.3838,7.3838,7.3838,7.3838,7.3838,7.3838,7.3838,7.3838,7.3838,7.3838,7.3838,7.3838,7.3838,7.3838,7.3838,7.3838,7.3838,7.3838,7.3838,7.3322,7.2387,7.1339,7.0601,7.0177,6.8168,6.7217,6.7108,6.7108,6.7108,6.7108,6.7108,6.7108,6.7108,6.7108,6.7108,6.7108,6.7108,6.7108,6.7108,6.7108,6.7108,6.7108,6.7108,6.7108,6.7108,6.7108,6.7108,6.7108,6.7108,6.7108,6.7108,6.7108,6.486,6.2179,6.04,5.974,5.9058,5.713,5.6572,5.6341,5.6341,5.6341,5.6341,5.6341,5.6341,5.6341,5.6341,5.5788,5.5343,5.52,5.3881,5.2972,5.2848,5.2117,5.1689,5.1689,5.1689,5.1689,5.1689,5.1689,5.1689,5.1689,5.1689,5.1689,5.1689,5.1689,5.1332,5.0777,5.0616,4.9884,4.4683,4.7332,4.988,5.2378,5.4274,5.5957,5.8014,5.8482,5.951,6.3156,6.4349,6.5143,6.6546,6.7246,6.776,6.825,6.9304,7.0332,7.1361,7.2389,7.3231,7.3768,7.3838,7.3838,7.3838,7.3838,7.3838,7.3838,7.3838,7.3838,7.3838,7.3838,7.3838,7.3838,7.3838,7.3838,7.3838,7.3838,7.3838,7.3838,7.3838,7.3529,7.3011,7.1339,6.9881,6.8706,6.7542,6.7108,6.7108,6.7108,6.7108,6.7108,6.7108,6.7108,6.7108,6.7108,6.7108,6.7108,6.7108,6.7108,6.7108,6.7108,6.7108,6.7108,6.7108,6.7108,6.7108,6.7108,6.7108,6.7108,6.7108,6.6326,6.5628,6.5628,6.2959,6.0174,5.9286,5.8392,5.7475,5.6572,5.6341,5.6341,5.6341,5.6341,5.6341,5.6341,5.6341,5.6341,5.6341,5.5681,5.504,5.4612,5.3525,5.2669,5.2259,5.1885,5.1689,5.1689,5.1689,5.1689,5.1689,5.1689,5.1689,5.1689,5.1689,5.1689,5.1689,5.1689,5.1261,5.0545,5.0152,4.9348,4.5362,4.8244,5.0722,5.1958,5.3825,5.5957,5.8014,5.8482,5.93,6.2222,6.3834,6.5003,6.5893,6.692,6.7596,6.7596,6.8556,6.9584,7.0613,7.1641,7.267,7.3722,7.3838,7.3838,7.3838,7.3838,7.3838,7.3838,7.3838,7.3838,7.3838,7.3838,7.3838,7.3838,7.3838,7.3838,7.3838,7.3838,7.3838,7.3838,7.3838,7.3838,7.3838,7.1864,6.9752,6.7737,6.7325,6.7108,6.7108,6.7108,6.7108,6.7108,6.7108,6.7108,6.7108,6.7108,6.7108,6.7108,6.7108,6.7108,6.7108,6.7108,6.7108,6.7108,6.7108,6.7108,6.7108,6.7108,6.7108,6.7108,6.7108,6.5738,6.4158,6.3384,6.0832,5.8488,5.8488,5.736,5.6341,5.6341,5.6341,5.6341,5.6341,5.6341,5.6341,5.6341,5.6341,5.627,5.6109,5.5414,5.463,5.381,5.3044,5.2331,5.1742,5.1689,5.1689,5.1689,5.1689,5.1689,5.1689,5.1689,5.1689,5.1689,5.1689,5.1689,5.1689,5.1511,5.1012,5.0295,4.9527,4.8759,4.5175,4.773,4.981,5.1771,5.3825,5.5957,5.8014,5.8482,5.9089,6.1349,6.332,6.5003,6.5893,6.692,6.7596,6.7596,6.8556,6.9584,7.0613,7.1641,7.267,7.3722,7.3838,7.3838,7.3838,7.3838,7.3838,7.3838,7.3838,7.3838,7.3838,7.3838,7.3838,7.3838,7.3838,7.3838,7.3838,7.3838,7.3838,7.3838,7.3838,7.3838,7.3838,7.2572,7.1339,7.0071,6.7953,6.7108,6.7108,6.7108,6.7108,6.7108,6.7108,6.7108,6.7108,6.7108,6.7108,6.7108,6.7108,6.7108,6.7108,6.7108,6.7108,6.7108,6.7108,6.7108,6.7108,6.7108,6.7108,6.7108,6.7108,6.5738,6.3495,6.0287,5.8049,5.6572,5.6572,5.6457,5.6341,5.6341,5.6341,5.6341,5.6341,5.6341,5.6341,5.6341,5.6341,5.6091,5.5396,5.4576,5.3885,5.3008,5.2242,5.176,5.1689,5.1689,5.1689,5.1689,5.1689,5.1689,5.1689,5.1689,5.1689,5.1689,5.1689,5.1689,5.1689,5.094,5.0277,4.9491,4.8623,4.7937,4.5315,4.766,4.9716,5.1748,5.3358,5.4859,5.6308,5.7126,5.8154,6.0295,6.2315,6.4091,6.5097,6.6009,6.6873,6.7503,6.8042,6.8673,6.9701,7.073,7.1758,7.2787,7.3441,7.3838,7.3838,7.3838,7.3838,7.3838,7.3838,7.3838,7.3838,7.3838,7.3838,7.3838,7.3838,7.3838,7.3838,7.3838,7.3838,7.3838,7.3838,7.3529,7.2803,7.1654,7.0601,6.9411,6.7737,6.7108,6.7108,6.7108,6.7108,6.7108,6.7108,6.7108,6.7108,6.7108,6.7108,6.7108,6.7108,6.7108,6.7108,6.7108,6.7108,6.7108,6.7108,6.7108,6.7108,6.7108,6.6305,6.5409,6.5409,6.3293,6.0832,5.9399,5.7705,5.6341,5.6341,5.6341,5.6341,5.6341,5.6341,5.6341,5.6341,5.6341,5.6341,5.6341,5.6341,5.6056,5.5289,5.4487,5.3795,5.2901,5.2135,5.1689,5.1689,5.1689,5.1689,5.1689,5.1689,5.1689,5.1689,5.1689,5.1689,5.1689,5.1689,5.1439,5.1063,5.0723,4.9938,4.8623,4.832,4.7732,4.5339,4.7449,4.9319,5.1678,5.3055,5.4082,5.5186,5.5981,5.6986,5.8739,6.1029,6.2923,6.3647,6.4839,6.5963,6.699,6.7153,6.762,6.9047,7.0122,7.115,7.2179,7.3207,7.3838,7.3838,7.3838,7.3838,7.3838,7.3838,7.3838,7.3838,7.3838,7.3838,7.3838,7.3838,7.3838,7.3838,7.3838,7.3838,7.3838,7.3838,7.3218,7.2073,7.0707,6.9624,6.8769,6.752,6.7108,6.7108,6.7108,6.7108,6.7108,6.7108,6.7108,6.7108,6.7108,6.7108,6.7108,6.7108,6.7108,6.7108,6.7108,6.7108,6.7108,6.7108,6.7108,6.7,6.6414,6.53,6.4269,6.3716,6.0945,5.8278,5.8278,5.7245,5.6341,5.6341,5.6341,5.6341,5.6341,5.6341,5.6341,5.6341,5.6341,5.6341,5.6341,5.6341,5.6056,5.5289,5.4487,5.3688,5.2598,5.201,5.1689,5.1689,5.1689,5.1689,5.1689,5.1689,5.1689,5.1689,5.1689,5.1689,5.1689,5.1689,5.1279,5.0563,5.033,4.9545,4.816,4.7928,4.7598,4.5151,4.6935,4.8363,5.1491,5.3055,5.4082,5.5186,5.542,5.5724,5.6775,5.9417,6.1653,6.1653,6.3385,6.505,6.5939,6.6103,6.6803,6.8953,7.0122,7.115,7.2179,7.3207,7.3838,7.3838,7.3838,7.3838,7.3838,7.3838,7.3838,7.3838,7.3838,7.3838,7.3838,7.3838,7.3838,7.3838,7.3838,7.3838,7.3838,7.3838,7.3218,7.2073,6.9836,6.8876,6.8769,6.752,6.7108,6.7108,6.7108,6.7108,6.7108,6.7108,6.7108,6.7108,6.7108,6.7108,6.7108,6.7108,6.7108,6.7108,6.7108,6.7108,6.7108,6.7108,6.7108,6.6653,6.484,6.4379,6.3937,6.2271,5.9134,5.6341,5.6341,5.6341,5.6341,5.6341,5.6341,5.6341,5.6341,5.6341,5.6341,5.6341,5.6341,5.6341,5.6341,5.6341,5.6056,5.5289,5.4487,5.3382,5.1867,5.1689,5.1689,5.1689,5.1689,5.1689,5.1689,5.1689,5.1689,5.1689,5.1689,5.1689,5.1689,5.1689,5.1279,5.0563,4.9795,4.9027,4.816,4.7437,4.7062,4.3359,4.5369,4.7239,4.96,5.1444,5.3031,5.4134,5.4905,5.57,5.6729,5.7734,5.9043,6.1255,6.2191,6.3133,6.4886,6.5636,6.6313,6.6943,6.8626,7.0099,7.1127,7.2155,7.3067,7.3768,7.3838,7.3838,7.3838,7.3838,7.3838,7.3838,7.3838,7.3838,7.3838,7.3838,7.3838,7.3838,7.3838,7.3838,7.3838,7.3011,7.2073,7.1023,6.9517,6.834,6.7629,6.7217,6.7108,6.7108,6.7108,6.7108,6.7108,6.7108,6.7108,6.7108,6.7108,6.6305,6.5389,6.6653,6.6196,6.5409,6.6653,6.7108,6.6891,6.5628,6.5169,6.484,6.3051,6.1712,6.04,5.8583,5.7227,5.6341,5.6341,5.6341,5.6341,5.6341,5.6341,5.6341,5.6341,5.6341,5.6341,5.6341,5.6341,5.6341,5.6341,5.5895,5.5468,5.5236,5.4024,5.3008,5.2509,5.1992,5.1689,5.1689,5.1689,5.1689,5.1689,5.1689,5.1689,5.1689,5.1689,5.1689,5.1689,5.1136,5.0563,4.9777,4.9009,4.8223,4.7419,4.7169,4.7044,4.2587,4.4707,4.6743,4.8711,5.0114,5.1351,5.2451,5.3807,5.5022,5.5677,5.6121,5.7079,5.9393,6.0529,6.1606,6.3227,6.4699,6.5751,6.6033,6.783,6.9608,7.0636,7.1665,7.2693,7.3722,7.3838,7.3838,7.3838,7.3838,7.3838,7.3838,7.3838,7.3838,7.3838,7.3838,7.3838,7.3838,7.3838,7.3838,7.3838,7.2282,7.1129,7.0495,6.8898,6.7715,6.7108,6.7108,6.7108,6.7108,6.7108,6.7108,6.7108,6.7108,6.7108,6.7,6.6305,6.5279,6.4489,6.5628,6.53,6.451,6.5628,6.6087,6.5738,6.3937,6.3384,6.3051,6.1263,5.9948,5.8716,5.6785,5.6341,5.6341,5.6341,5.6341,5.6341,5.6341,5.6341,5.6341,5.6341,5.6341,5.6341,5.6341,5.6341,5.6252,5.5949,5.5503,5.4986,5.438,5.3436,5.2705,5.242,5.1974,5.1689,5.1689,5.1689,5.1689,5.1689,5.1689,5.1689,5.1689,5.1689,5.1546,5.1226,5.0813,5.0045,4.8873,4.8409,4.775,4.7044,4.7044,4.7044,4.2377,4.4543,4.6626,4.8501,4.9085,4.9459,5.0488,5.2311,5.3708,5.3802,5.4648,5.563,5.6635,5.8458,6.0249,6.1349,6.3245,6.4839,6.5823,6.7761,6.9444,7.0636,7.1618,7.2623,7.3722,7.3838,7.3838,7.3838,7.3838,7.3838,7.3838,7.3838,7.3838,7.3838,7.3838,7.3838,7.3838,7.3838,7.3838,7.3838,7.1632,7.0729,7.0623,6.8276,6.7217,6.7217,6.7108,6.7108,6.7108,6.7108,6.7108,6.7108,6.7108,6.7,6.6653,6.484,6.4048,6.4048,6.4269,6.4269,6.4158,6.4269,6.4379,6.4048,6.2159,6.16,6.1263,5.9399,5.8963,5.8488,5.6803,5.6341,5.6341,5.6341,5.6341,5.6341,5.6341,5.6341,5.6341,5.6341,5.6341,5.6341,5.6341,5.6305,5.602,5.5307,5.5093,5.4487,5.3008,5.2776,5.2473,5.176,5.1689,5.1689,5.1689,5.1689,5.1689,5.1689,5.1689,5.1689,5.1689,5.1689,5.1297,5.058,5.0509,4.9759,4.8178,4.8106,4.7696,4.7044,4.7044,4.7044,4.0671,4.2868,4.5385,4.6649,4.8057,4.9459,5.0488,5.175,5.2868,5.3713,5.4064,5.4555,5.5583,5.6822,5.8271,6.0155,6.1536,6.3011,6.4793,6.6125,6.776,7.0449,7.0987,7.1828,7.3651,7.3838,7.3838,7.3838,7.3838,7.3838,7.3838,7.3838,7.3838,7.3838,7.3838,7.3838,7.3838,7.3838,7.3838,7.3838,7.2387,7.1759,7.1654,6.9411,6.8447,6.834,6.7412,6.7108,6.7108,6.7108,6.7108,6.7108,6.7108,6.6196,6.473,6.3051,6.1507,6.0739,6.3384,6.3495,6.2586,6.3937,6.4379,6.3716,6.0626,5.9721,5.9381,5.7475,5.7015,5.69,5.6457,5.6341,5.6341,5.6341,5.6341,5.6341,5.6341,5.6341,5.6341,5.6341,5.6341,5.6341,5.6341,5.5842,5.5396,5.5218,5.4166,5.324,5.2883,5.2313,5.1885,5.1707,5.1689,5.1689,5.1689,5.1689,5.1689,5.1689,5.1689,5.1689,5.1689,5.1689,5.1297,5.058,4.9991,4.9223,4.8178,4.7634,4.7223,4.7044,4.7044,4.7044,4.0647,4.2681,4.4987,4.6017,4.7356,4.8758,4.9787,5.0838,5.1701,5.2311,5.2825,5.3428,5.4455,5.5163,5.6214,5.8271,6.0342,6.2379,6.4419,6.5541,6.7223,7.0402,7.0776,7.1571,7.3628,7.3838,7.3838,7.3838,7.3838,7.3838,7.3838,7.3838,7.3838,7.3838,7.3838,7.3838,7.3838,7.3838,7.3838,7.3838,7.2178,7.1444,7.1339,6.9005,6.8039,6.7931,6.7304,6.6544,6.5868,6.5868,6.5868,6.5868,6.5868,6.5169,6.4269,6.3273,6.1282,5.9399,6.1282,6.1282,6.072,6.1619,6.1955,6.1395,5.8716,5.782,5.759,5.6687,5.6341,5.6341,5.6341,5.6341,5.6341,5.6341,5.6341,5.6341,5.6341,5.6341,5.6341,5.6341,5.6056,5.5806,5.5806,5.5165,5.4505,5.4166,5.3382,5.2705,5.2348,5.1939,5.1689,5.1689,5.1689,5.1689,5.1689,5.1689,5.1689,5.1689,5.1689,5.1689,5.1689,5.1315,5.0848,5.0045,4.9277,4.8509,4.7705,4.7258,4.7044,4.7044,4.7044,4.7044,4.1372,4.3218,4.5222,4.6251,4.7052,4.7873,4.8968,4.988,5.0535,5.0698,5.1469,5.2401,5.3592,5.3802,5.4432,5.6425,5.9043,6.177,6.4138,6.533,6.7083,7.0169,7.0683,7.1524,7.3418,7.3745,7.3838,7.3838,7.3838,7.3838,7.3838,7.3838,7.3838,7.3838,7.3838,7.3838,7.3838,7.3838,7.3735,7.3529,7.1654,7.0707,7.0495,6.8276,6.7304,6.7325,6.7108,6.6087,6.4379,6.4379,6.4158,6.3937,6.3937,6.3827,6.3495,6.3495,6.1487,5.8735,5.8735,5.8849,5.9058,5.9058,5.9058,5.8716,5.69,5.6341,5.6341,5.6341,5.6341,5.6341,5.6341,5.6341,5.6341,5.6341,5.6341,5.6341,5.6341,5.6341,5.6305,5.6181,5.5646,5.5147,5.504,5.4327,5.3688,5.2919,5.2723,5.242,5.176,5.1689,5.1689,5.1689,5.1689,5.1689,5.1689,5.1689,5.1689,5.1689,5.1689,5.1689,5.1689,5.0905,5.0152,4.9259,4.8499,4.7866,4.7044,4.7044,4.7044,4.7044,4.7044,4.7044,4.1559,4.3733,4.6275,4.7192,4.7543,4.7873,4.8968,4.9319,4.967,5.0558,5.0862,5.1563,5.3526,5.3802,5.4274,5.5466,5.6775,5.8996,6.2853,6.4302,6.6055,6.9093,7.0239,7.122,7.2413,7.3324,7.3838,7.3838,7.3838,7.3838,7.3838,7.3838,7.3838,7.3838,7.3838,7.3838,7.3838,7.3838,7.3322,7.2387,7.2073,7.1444,7.0517,6.9197,6.8555,6.8447,6.752,6.6087,6.4379,6.4379,6.3495,6.2159,6.2159,6.1282,5.9834,5.9834,5.8602,5.6785,5.6785,5.782,5.9058,5.9058,5.9058,5.8716,5.69,5.6341,5.6341,5.6341,5.6341,5.6341,5.6341,5.6341,5.6341,5.6341,5.6341,5.6341,5.6341,5.6341,5.6145,5.5503,5.5272,5.4969,5.4273,5.3617,5.2954,5.2848,5.2277,5.1814,5.1689,5.1689,5.1689,5.1689,5.1689,5.1689,5.1689,5.1689,5.1689,5.1689,5.1689,5.1689,5.1689,5.0905,4.9902,4.8374,4.8231,4.7866,4.7044,4.7044,4.7044,4.7044,4.7044,4.7044,4.3102,4.5088,4.7099,4.7543,4.808,4.8618,4.9085,4.9202,4.9342,4.981,4.9903,5.0371,5.189,5.2588,5.3312,5.4415,5.5934,5.7827,6.0281,6.2993,6.5844,6.8883,7.0145,7.1174,7.2202,7.3231,7.3838,7.3838,7.3838,7.3838,7.3838,7.3838,7.3838,7.3838,7.3838,7.3838,7.3838,7.3838,7.3322,7.2073,7.1549,7.0707,6.9517,6.8362,6.737,6.6351,6.5826,6.4068,6.1507,6.1507,6.1057,6.04,6.04,5.9834,5.9058,5.9058,5.7934,5.6341,5.6341,5.69,5.759,5.759,5.759,5.7475,5.6572,5.6341,5.6341,5.6341,5.6341,5.6341,5.6341,5.6341,5.6341,5.6341,5.6341,5.6216,5.5806,5.5717,5.5485,5.4683,5.4202,5.3792,5.3527,5.2705,5.2206,5.2206,5.1921,5.1689,5.1689,5.1689,5.1689,5.1689,5.1689,5.1689,5.1689,5.1123,5.0804,5.0804,5.0146,4.9809,4.9809,4.9103,4.8485,4.7881,4.7633,4.7419,4.7044,4.7044,4.7044,4.7044,4.7044,4.7044,4.5088,0.0,4.7966,4.7966,4.8618,4.9202,0.0,4.9202,4.9202,4.9202,4.9202,4.9506,5.0535,5.161,5.2611,5.3638,5.5396,5.7032,5.8295,6.1637,6.5284,6.8813,7.0145,7.1174,7.2202,7.3231,7.3838,7.3838,7.3838,7.3838,7.3838,7.3838,7.3838,7.3838,7.3838,7.3838,7.3838,7.3632,7.2884,7.1759,7.0707,6.9517,6.834,6.7066,6.5628,6.4269,6.3937,6.1936,5.9058,5.9058,5.883,5.8506,5.8506,5.8506,5.8506,5.8506,5.759,5.6341,5.6341,5.6341,5.6341,5.6341,5.6341,5.6341,5.6341,5.6341,5.6341,5.6341,5.6341,5.6341,5.6341,5.6341,5.6305,5.6109,5.6074,5.586,5.5075,5.4915,5.4666,5.3974,5.324,5.2758,5.2598,5.2063,5.1689,5.1689,5.1689,5.1689,5.1689,5.1689,5.1689,5.1689,5.1689,5.1689,5.1689,5.0591,4.9826,4.9595,4.872,4.8098,4.8039,4.7566,4.7348,4.7399,4.7154,4.7044,4.7044,4.7044,4.6948,4.6641,4.6641,4.6448,0.0,4.8244,4.9085,4.9085,4.9132,4.9202,4.9202,4.9202,0.0,4.9202,4.9202,4.9506,5.0535,5.161,5.2611,5.3638,5.4812,5.6214,5.8201,6.0459,6.3713,6.8649,7.0145,7.1174,7.2202,7.3231,7.3838,7.3838,7.3838,7.3838,7.3838,7.3838,7.3838,7.3838,7.3838,7.3838,7.3838,7.2803,7.1759,7.0601,6.9517,6.8362,6.7108,6.5409,6.4489,6.4269,6.2717,6.0832,5.9058,5.9058,5.8163,5.6572,5.6572,5.6572,5.6572,5.6572,5.6457,5.6341,5.6341,5.6341,5.6341,5.6341,5.6341,5.6341,5.6341,5.6341,5.6341,5.6341,5.6341,5.6341,5.6341,5.6341,5.6163,5.545,5.5272,5.5058,5.4238,5.417,5.3828,5.3061,5.2865,5.2598,5.1885,5.1725,5.1689,5.1689,5.1689,5.1689,5.1689,5.1689,5.1689,5.1689,5.1689,5.1689,5.1689,5.0591,4.9488,4.8397,4.8273,4.7989,4.7355,4.7521,4.7263,4.6524,4.6889,4.7044,4.7044,4.7044,4.6448,4.5445,4.5445,4.4862,4.9646,5.0348,5.1094,5.1094,5.0651,5.0137,5.0137,4.9646,4.9202,4.9202,4.9202,4.9319,4.9693,5.1118,5.2401,5.2798,5.4245,5.6144,5.8201,6.0342,6.2847,6.6031,6.9,7.0917,7.1291,7.2857,7.3838,7.3838,7.3838,7.3838,7.3838,7.3838,7.3838,7.3838,7.3838,7.3529,7.2803,7.2387,7.1234,6.9411,6.7888,6.6459,6.53,6.3605,6.2159,6.1057,6.0381,5.9058,0.0,5.736,5.7015,5.6341,5.6341,5.6341,5.6341,5.6341,5.6341,5.6341,5.6341,5.6341,5.6341,5.6341,5.6341,5.6341,5.6341,5.6341,5.6341,5.6341,5.6341,5.6341,5.6341,5.5985,5.5557,5.5272,5.4808,5.4331,5.3436,5.3367,5.3044,5.2259,5.2117,5.2028,5.1742,5.1689,5.1689,5.1689,5.1689,5.1689,5.1689,5.1689,5.1689,5.1689,5.1689,5.114,4.9595,4.8414,4.755,4.7117,4.6049,4.5359,4.4998,4.4316,4.4087,4.4534,4.4187,4.4294,4.4976,4.4976,4.4765,4.4277,4.4277,4.4081,5.1353,5.1724,5.2285,5.2285,5.1724,5.1236,5.1236,5.0441,4.9693,4.9693,4.9436,4.9296,4.9623,5.1071,5.2401,5.2705,5.4555,5.6518,5.8248,6.0562,6.28,6.4489,6.8299,7.0776,7.0776,7.2623,7.3838,7.3838,7.3838,7.3838,7.3838,7.3838,7.3838,7.3838,7.3505,7.2907,7.2073,7.0873,6.9473,6.7867,6.5785,6.4359,6.3495,6.1712,6.0287,5.9058,5.8506,5.7475,5.6341,5.6341,5.6341,5.6341,5.6341,5.6341,5.6341,5.6341,5.6341,5.6341,5.6341,5.6341,5.6341,5.6341,5.6341,5.6341,5.6341,5.6341,5.6341,5.6341,5.6163,5.5967,5.5967,5.5396,5.4755,5.4505,5.4024,5.351,5.2634,5.2455,5.2313,5.1778,5.1689,5.1689,5.1689,5.1353,5.114,5.114,5.0804,5.0573,5.0573,5.0573,5.0573,5.0573,5.0573,4.9826,4.7858,4.6917,4.6185,4.5621,4.4394,4.3516,4.3083,4.2497,4.2415,4.2984,4.2785,4.3003,4.369,4.369,4.369,4.369,4.3396,4.2986,5.2004,5.2308,5.2308,5.2308,5.2308,5.2308,5.2308,5.1516,5.0745,5.0745,4.9927,4.9529,5.0558,5.1633,5.2635,5.3638,5.5607,5.7313,5.8341,6.1193,6.3554,6.4582,6.8275,7.0753,7.0776,7.2623,7.3815,7.3838,7.3838,7.3838,7.3838,7.3838,7.3838,7.3838,7.2699,7.2073,7.2073,6.806,6.6112,6.6003,6.3142,6.1824,6.1712,5.9948,5.9077,5.8944,5.713,5.6341,5.6341,5.6341,5.6341,5.6341,5.6341,5.6341,5.6341,5.6341,5.6341,5.6341,5.6341,5.6341,5.6341,5.6341,5.6341,5.6341,5.6341,5.6341,5.6341,5.6341,5.5788,5.52,5.52,5.4576,5.3867,5.3008,5.2812,5.2616,5.1849,5.1689,5.1689,5.1689,5.1689,5.1689,5.1689,5.0697,4.9933,4.9933,4.8934,4.8165,4.8165,4.8165,4.8165,4.8165,4.8182,4.7642,4.6482,4.6374,4.5637,4.3854,4.3701,4.3083,4.1653,4.2712,4.2984,4.2148,4.3199,4.369,4.369,4.369,4.369,4.369,4.2625,4.1273,5.3452,5.3895,5.4508,5.4508,5.3895,5.3358,5.3358,5.2541,5.1794,5.1794,5.1561,5.1444,5.1748,5.2658,5.3452,5.3755,5.5607,5.7313,5.8341,6.1193,6.3554,6.4582,6.7644,6.9958,7.0683,7.1968,7.3044,7.3768,7.3838,7.3838,7.3838,7.3838,7.3838,7.3838,7.2699,7.1759,7.1023,6.7759,6.5675,6.4819,6.1507,5.9948,5.9834,5.803,5.713,5.713,5.6572,5.6341,5.6341,5.6341,5.6341,5.6341,5.6341,5.6341,5.6341,5.6341,5.6341,5.6341,5.6341,5.6341,5.6341,5.6341,5.6341,5.6341,5.6341,5.6341,5.6341,5.6341,5.5788,5.52,5.52,5.4184,5.3224,5.2883,5.242,5.1956,5.1742,5.1689,5.1689,5.1689,5.1689,5.1689,5.1689,5.0697,4.9933,4.9933,4.8934,4.8165,4.8165,4.8165,4.8165,4.8165,4.6776,4.5033,4.3482,4.4055,4.3702,4.1888,4.2085,4.2007,4.1607,4.1533,4.1375,4.1057,4.1339,4.1538,4.1538,4.1538,4.1538,4.1553,4.1256,4.0584,5.4555,5.4952,5.542,5.542,5.4952,5.4508,5.4508,5.3615,5.2891,5.2891,5.2565,5.2401,5.2821,5.3405,5.4158,5.4976,5.6495,5.8061,5.957,6.2058,6.4162,6.5167,6.7972,7.0099,7.0706,7.2062,7.3161,7.3792,7.3838,7.3838,7.3838,7.3425,7.3218,7.3218,7.1632,7.0155,6.8747,6.5894,6.3696,6.2179,5.9381,5.8049,5.7934,5.69,5.6341,5.6341,5.6341,5.6341,5.6341,5.6341,5.6341,5.6341,5.6341,5.6341,5.6341,5.6341,5.6341,5.6341,5.6341,5.6341,5.6341,5.6341,5.6341,5.6341,5.6341,5.6127,5.5878,5.5878,5.5307,5.463,5.4327,5.3543,5.2758,5.2438,5.2028,5.1689,5.1689,5.1689,5.1689,5.1689,5.1689,5.1689,5.1689,5.0697,4.9826,4.938,4.8289,4.7318,4.6884,4.6776,4.6776,4.6776,4.4924,4.3391,4.2778,4.2637,4.2295,4.136,4.1417,4.1468,4.1206,4.079,4.0674,4.0674,4.0674,4.0674,4.0674,4.0674,4.0674,4.0659,4.0381,4.0041,5.5163,5.542,5.542,5.542,5.542,5.542,5.542,5.4695,5.3942,5.3942,5.3218,5.2845,5.3778,5.4035,5.4789,5.6635,5.7897,5.93,6.1372,6.3367,6.5073,6.5963,6.8883,7.0776,7.0776,7.2623,7.3838,7.3838,7.3838,7.3712,7.3505,7.2259,7.1527,7.1527,6.9389,6.7543,6.5894,6.3031,6.072,5.9077,5.7245,5.6341,5.6341,5.6341,5.6341,5.6341,5.6341,5.6341,5.6341,5.6341,5.6341,5.6341,5.6341,5.6341,5.6341,5.6341,5.6341,5.6341,5.6341,5.6341,5.6341,5.6341,5.6287,5.6234,5.6234,5.5699,5.5075,5.5075,5.4487,5.3813,5.3008,5.2776,5.2545,5.1849,5.1689,5.1689,5.1689,5.1689,5.1689,5.1689,5.1689,5.1689,5.1689,5.0697,4.9595,4.8505,4.7226,4.6047,4.4955,4.4736,4.4595,4.4424,4.3062,4.245,4.3134,4.1833,4.1193,4.1361,4.1428,4.1222,4.069,4.0674,4.0674,4.0674,4.0674,4.0674,4.0674,4.0413,4.0383,4.0551,3.9676,3.9419,5.535,5.542,5.542,5.542,5.542,5.542,5.542,5.5256,5.5092,5.5092,5.4905,5.4835,5.5046,5.5747,5.6448,5.6869,5.8482,6.0202,6.1466,6.3367,6.5073,6.5963,6.8883,7.0776,7.0776,7.2623,7.3838,7.3838,7.3838,7.3091,7.1166,6.8767,6.7112,6.6658,6.5264,6.4297,6.3967,6.1151,5.9513,5.9077,5.7245,5.6341,5.6341,5.6341,5.6341,5.6341,5.6341,5.6341,5.6341,5.6341,5.6341,5.6341,5.6341,5.6341,5.6341,5.6341,5.6341,5.6341,5.6341,5.6341,5.6341,5.6341,5.5931,5.545,5.545,5.4879,5.4238,5.4238,5.3685,5.3044,5.2865,5.2384,5.1885,5.1725,5.1689,5.1689,5.1689,5.1689,5.1689,5.1689,5.1689,5.1689,5.1689,5.0697,4.9933,4.9595,4.7783,4.6374,4.6047,4.5283,4.3973,4.211,4.2823,4.2122,3.9124,4.0436,4.0956,3.9729,4.036,4.0713,4.0674,4.0674,4.0674,4.0674,4.0674,4.0674,4.0674,3.895,3.8794,3.984,3.7895,3.7422,5.542,5.542,5.542,5.542,5.542,5.542,5.542,5.542,5.542,5.542,5.542,5.542,5.542,5.6261,5.7126,5.7617,5.8996,6.081,6.287,6.4021,6.526,6.6639,6.9187,7.0776,7.0776,7.2623,7.3838,7.3838,7.3838,7.2214,6.8553,6.6571,6.5244,6.4257,6.3193,6.2231,6.1336,5.9834,5.8602,5.782,5.6803,5.6341,5.6341,5.6341,5.6341,5.6341,5.6341,5.6341,5.6341,5.6341,5.6341,5.6341,5.6341,5.6341,5.6341,5.6341,5.6341,5.6341,5.6341,5.6341,5.627,5.5913,5.5521,5.5129,5.4719,5.406,5.3527,5.3527,5.2865,5.2277,5.2277,5.1992,5.1689,5.1689,5.1689,5.1689,5.1689,5.1689,5.1689,5.1689,5.1689,5.1565,5.091,5.0804,5.0271,4.8538,4.7767,4.6901,4.572,4.4784,4.3316,4.1017,4.1507,4.1027,3.8596,3.8868,3.9068,3.8763,3.9237,3.946,3.946,4.026,4.0275,3.956,3.946,3.8996,3.7959,3.7539,3.7609,3.8073,3.7332,3.7226,5.542,5.542,5.542,5.542,5.542,5.542,5.542,5.542,5.542,5.542,5.556,5.5677,5.5677,5.6682,5.7757,5.8622,5.9767,6.152,6.4325,6.4863,6.5634,6.7481,6.9514,7.0776,7.0776,7.2318,7.3299,7.3299,7.2757,7.0467,6.5701,6.4806,6.3706,6.2395,6.1336,6.0155,5.8602,5.8621,5.782,5.6341,5.6341,5.6341,5.6341,5.6341,5.6341,5.6341,5.6341,5.6341,5.6341,5.6341,5.6341,5.6341,5.6341,5.6341,5.6341,5.6341,5.6341,5.6341,5.6341,5.6341,5.6198,5.5289,5.4897,5.4666,5.4081,5.324,5.2634,5.2634,5.217,5.1689,5.1689,5.1689,5.1689,5.1689,5.1689,5.1689,5.1689,5.1689,5.1689,5.1689,5.1689,5.1353,5.0146,5.0804,5.0377,4.7242,4.7442,4.7177,4.5127,4.4071,4.2616,4.0343,4.0194,3.9841,3.8802,3.7581,3.7254,3.8283,3.8038,3.7952,3.8254,3.926,3.91,3.7779,3.798,3.7149,3.5201,3.6293,3.6767,3.6623,3.6936,3.7279,5.542,5.542,5.542,5.542,5.542,5.542,5.542,5.542,5.542,5.542,5.6121,5.6752,5.6752,5.8318,5.9734,5.9874,6.1474,6.3203,6.4512,6.5447,6.6313,6.748,6.9514,7.0776,7.0776,7.0738,7.0873,7.0873,6.8532,6.5919,6.3213,6.1929,6.0266,5.8241,5.7457,5.7015,5.6785,5.6785,5.6572,5.6341,5.6341,5.6341,5.6341,5.6341,5.6341,5.6341,5.6341,5.6341,5.6341,5.6341,5.6341,5.6341,5.6341,5.6341,5.6341,5.6341,5.6341,5.6341,5.6341,5.6341,5.6091,5.4612,5.3685,5.3133,5.3008,5.2438,5.1832,5.1832,5.176,5.1689,5.1689,5.1689,5.1689,5.1689,5.1689,5.1689,5.1689,5.1689,5.1689,5.1689,5.1689,5.1353,5.0146,5.0146,4.9719,4.8182,4.7226,4.6366,4.5541,4.3888,4.2036,3.961,4.0584,4.0007,3.6484,3.7358,3.814,3.8254,3.6927,3.6724,3.8254,3.7129,3.6056,3.5391,3.6692,3.6882,3.615,3.5777,3.6236,3.7493,3.5664,3.5533,5.542,5.542,5.542,5.542,5.542,5.542,5.542,5.542,5.542,5.542,5.6238,5.6962,5.6962,5.8645,6.0108,6.0108,6.1801,6.353,6.4559,6.5541,6.6453,6.748,6.9514,7.0776,7.0776,7.0532,7.0322,7.0322,6.6484,6.2971,6.0249,5.9211,5.8204,5.6785,5.6572,5.6341,5.6341,5.6341,5.6341,5.6341,5.6341,5.6341,5.6341,5.6341,5.6341,5.6341,5.6341,5.6341,5.6341,5.6341,5.6341,5.6341,5.6341,5.6341,5.6341,5.6341,5.6341,5.627,5.5842,5.5396,5.4826,5.3703,5.3097,5.2741,5.2313,5.1956,5.1689,5.1689,5.1689,5.1689,5.1689,5.1689,5.1689,5.1689,5.1689,5.1689,5.1689,5.1689,5.1689,5.1689,5.114,5.036,4.9166,4.872,4.7812,4.5964,4.5536,4.4827,4.3501,4.2622,4.0835,3.7609,3.8778,3.8342,3.479,3.5898,3.6826,3.6826,3.6217,3.6115,3.6826,3.6691,3.6054,3.4899,3.5161,3.4676,3.3198,3.3805,3.378,3.3339,3.4898,3.5489,5.542,5.542,5.542,5.542,5.542,5.542,5.542,5.542,5.542,5.542,5.6238,5.7032,5.729,5.8809,6.0094,6.0459,6.2175,6.3834,6.4606,6.5774,6.6756,6.7503,6.9005,7.0136,7.0654,6.9994,6.9238,6.8726,6.4208,6.0475,5.8278,5.7475,5.69,5.6341,5.6341,5.6341,5.6341,5.6341,5.6341,5.6341,5.6341,5.6341,5.6341,5.6341,5.6341,5.6341,5.6341,5.6341,5.6341,5.6341,5.6341,5.6341,5.6341,5.6341,5.6323,5.6109,5.6056,5.5895,5.4933,5.4184,5.367,5.2794,5.2545,5.2438,5.1867,5.1689,5.1689,5.1689,5.1689,5.1689,5.1689,5.1689,5.1689,5.1689,5.1689,5.1689,5.1689,5.1529,5.1368,5.1368,5.0559,4.9452,4.8271,4.72,4.5889,4.3757,4.3847,4.3305,4.103,4.0719,3.9491,3.6156,3.6927,3.6508,3.3638,3.4879,3.5606,3.5185,3.5052,3.4971,3.4971,3.5093,3.4501,3.3285,3.3143,3.2243,3.0524,3.2136,3.2016,3.0656,3.3951,3.5037,5.542,5.542,5.542,5.542,5.542,5.542,5.542,5.542,5.542,5.542,5.6238,5.7243,5.8225,5.9276,6.0436,6.1395,6.325,6.4652,6.4699,6.6382,6.755,6.7596,6.7564,6.8268,7.0555,6.8494,6.6221,6.4068,6.0513,5.8278,5.8163,5.7033,5.6457,5.6341,5.6341,5.6341,5.6341,5.6341,5.6341,5.6341,5.6341,5.6341,5.6341,5.6341,5.6341,5.6341,5.6341,5.6341,5.6341,5.6341,5.6341,5.6341,5.6341,5.6341,5.6252,5.5521,5.5254,5.504,5.3489,5.2919,5.2758,5.1992,5.1742,5.1742,5.1689,5.1689,5.1689,5.1689,5.1689,5.1689,5.1689,5.1689,5.1689,5.1689,5.1689,5.1689,5.1689,5.1065,5.0616,5.0616,4.9942,4.9019,4.8,4.6101,4.4205,4.2953,4.2802,4.1789,3.8863,3.8514,3.7779,3.5912,3.581,3.5185,3.3536,3.4879,3.5083,3.3638,3.3038,3.2845,3.2845,3.0851,2.9471,2.8889,3.023,3.0593,2.9956,3.1538,3.2273,3.214,3.2415,3.3223,5.5233,5.542,5.542,5.542,5.542,5.542,5.542,5.542,5.542,5.542,5.6238,5.7266,5.8295,5.9323,6.0436,6.1466,6.2782,6.3951,6.4606,6.5868,6.6873,6.7526,6.7018,6.7069,6.8401,6.5683,6.3352,6.2172,6.1379,6.0023,5.7705,5.7245,5.6785,5.6341,5.6341,5.6341,5.6341,5.6341,5.6341,5.6341,5.6341,5.6341,5.6341,5.6341,5.6341,5.6341,5.6341,5.6341,5.6341,5.6341,5.6341,5.6287,5.5806,5.5592,5.5503,5.4701,5.4416,5.4184,5.2634,5.2081,5.2045,5.1778,5.1689,5.1689,5.1689,5.1689,5.1689,5.1689,5.1689,5.1689,5.1689,5.1689,5.1546,5.1134,5.0905,5.0762,5.0263,5.0045,4.983,4.983,4.9598,4.8794,4.7044,4.6001,4.4704,4.242,4.0844,3.9883,3.9821,3.7938,3.6826,3.7332,3.5491,3.4048,3.3433,3.3623,3.3517,3.3,3.2477,3.2578,3.3461,3.1442,3.0571,3.1429,3.0679,3.0572,3.1393,3.1957,3.2245,3.2323,3.4147,3.4766,5.4129,5.4315,5.4315,5.4315,5.4648,5.4905,5.4905,5.5163,5.542,5.542,5.5957,5.6752,5.778,5.8809,5.9921,6.0951,6.2245,6.3414,6.4091,6.4667,6.5264,6.6025,6.4792,6.4408,6.5647,6.2445,6.0071,5.9734,6.0059,5.93,5.7039,5.6733,5.6515,5.6323,5.6341,5.6341,5.6341,5.6341,5.6341,5.6341,5.6341,5.6341,5.6341,5.6341,5.6341,5.6341,5.6341,5.6198,5.5949,5.5949,5.5788,5.5485,5.4986,5.479,5.4683,5.3992,5.3527,5.3061,5.2045,5.1689,5.1689,5.1689,5.1689,5.1689,5.1689,5.1689,5.1618,5.135,5.1279,5.1208,5.0958,5.0887,5.0744,5.0313,5.0188,5.0045,4.9527,4.9122,4.9027,4.9027,4.8395,4.7383,4.5556,4.4949,4.399,4.1618,4.0047,3.936,4.006,3.8038,3.6623,3.671,3.4764,3.3152,3.2363,3.252,3.2331,3.1557,3.1623,3.1804,3.219,3.0574,3.0273,3.1226,2.9921,2.9733,3.0761,3.0761,3.0761,3.0854,3.2753,3.3391,5.2168,5.2215,5.2238,5.2238,5.3008,5.3778,5.3778,5.4648,5.5373,5.5373,5.5396,5.5724,5.6775,5.778,5.8786,5.9921,6.1754,6.311,6.3156,6.306,6.2925,6.2969,6.0869,6.0238,6.2468,5.8742,5.6229,5.6515,5.6044,5.5844,5.5959,5.5468,5.5503,5.6252,5.627,5.627,5.627,5.627,5.627,5.627,5.627,5.627,5.6305,5.6305,5.6305,5.6305,5.627,5.5842,5.5147,5.5147,5.4683,5.4081,5.4063,5.4045,5.3956,5.3079,5.2313,5.1689,5.1689,5.1689,5.1689,5.1689,5.1671,5.1635,5.1635,5.1635,5.1439,5.0759,5.0527,5.0348,4.9616,4.942,4.9402,4.9384,4.9384,4.9384,4.9348,4.8659,4.8124,4.8124,4.6684,4.5057,4.3984,4.2904,4.1934,4.0758,4.0659,4.036,3.9245,3.8642,3.7115,3.3818,3.3382,3.2453,3.0342,3.1579,3.1644,2.9574,3.0394,3.0276,2.8771,2.8169,2.7886,2.7886,2.7886,2.7886,2.7886,2.7886,2.7886,2.798,2.798,2.8712,4.988,5.0605,5.1166,5.1166,5.1911,5.2705,5.2705,5.3498,5.4245,5.4245,5.4905,5.5724,5.6775,5.7173,5.7944,5.9804,6.0515,6.1427,6.2969,6.1967,6.1524,6.2813,5.9854,5.7096,5.5779,5.5991,5.5682,5.4544,5.5293,5.5386,5.4607,5.442,5.451,5.4724,5.4724,5.4724,5.4724,5.4724,5.4724,5.4724,5.4724,5.4933,5.5503,5.5503,5.5503,5.5485,5.4879,5.4617,5.442,5.442,5.4278,5.4028,5.3474,5.326,5.3152,5.2277,5.1867,5.1689,5.1689,5.1689,5.1689,5.1689,5.1279,5.0902,5.0902,5.0406,4.9924,4.9795,4.9741,4.9687,4.9473,4.942,4.9277,4.8623,4.858,4.8419,4.783,4.7526,4.7383,4.7383,4.6897,4.6255,4.5057,4.4667,4.3575,4.101,4.1918,4.2116,3.9915,3.953,3.8137,3.4957,3.2081,3.0713,3.1345,3.0399,2.9913,3.0308,2.9328,2.9504,3.1194,3.0006,2.9362,2.9362,2.9362,2.9362,2.9362,2.9362,2.9918,3.1025,3.21,3.2205,4.6491,4.7426,4.8314,4.8735,4.9623,5.0441,5.0861,5.182,5.2685,5.3078,5.3988,5.4952,5.556,5.6378,5.7336,5.8552,5.9089,5.9954,6.1614,6.0467,5.9735,6.0333,5.7682,5.495,5.2869,5.4199,5.4575,5.3121,5.4066,5.4436,5.3581,5.3599,5.3742,5.4063,5.4081,5.4081,5.4081,5.4081,5.4081,5.4081,5.4081,5.422,5.4683,5.4683,5.4683,5.4648,5.4278,5.3792,5.3599,5.3599,5.3311,5.2972,5.2527,5.2348,5.2259,5.1457,5.1172,5.1223,5.0816,5.0691,5.0691,5.0691,5.0473,5.008,5.008,4.9777,4.9247,4.9027,4.8837,4.8866,4.8527,4.8419,4.8312,4.7866,4.7759,4.7634,4.7151,4.7044,4.7044,4.7044,4.6641,4.6044,4.5445,4.4959,4.3769,4.121,4.1104,4.0413,3.8002,3.7215,3.6297,3.4825,3.2069,3.0436,3.0507,2.9346,2.8879,2.9469,2.8414,2.8527,3.0287,2.9547,2.9084,2.9084,2.9084,2.8973,2.8752,2.8752,2.9098,2.9777,3.0561,3.0561,4.2798,4.3452,4.4411,4.5502,4.6514,4.7566,0.0,4.9576,5.0698,5.1701,5.2751,5.3597,5.3778,5.5373,5.6682,5.6916,5.7549,5.8399,5.9423,5.8644,5.7493,5.6346,5.4991,5.3583,5.2146,5.2976,5.3119,5.1997,5.2556,5.2888,5.2742,5.267,5.3027,5.3795,5.3831,5.3831,5.3831,5.3831,5.3831,5.3831,5.3831,5.3867,5.3956,5.3956,5.3956,5.3956,5.3956,5.34,5.2705,5.2705,5.2295,5.1689,5.1689,5.1582,5.1332,5.0705,5.0438,5.033,4.9652,4.942,4.942,4.942,4.9348,4.9194,4.9194,4.9223,4.9009,4.8231,4.8035,4.7875,4.7241,4.7044,4.7044,4.7044,4.7044,4.7044,4.7044,4.7044,4.7044,4.7044,4.6237,4.5445,4.5445,4.4599,4.3325,4.1524,3.9421,3.7297,3.5239,3.3627,3.3032,3.3795,3.2456,3.0701,2.8652,2.8509,2.8404,2.8003,2.7886,2.7886,2.8073,2.8073,2.8037,2.7885,2.7885,2.7637,2.7118,2.7039,2.6714,2.6268,2.6356,2.6227,0.0,0.0,0.0,0.0,0.0,0.0,0.0,4.6958,4.8548,4.96,5.0628,5.1867,5.3498,5.4204,5.5022,5.6682,5.5957,5.5576,5.6464,5.5895,5.4434,5.1929,5.2522,5.2095,4.9481,5.0958,5.1653,5.0564,5.0709,5.1043,5.1616,5.1236,5.1402,5.2099,5.2135,5.2135,5.2135,5.2135,5.2135,5.2135,5.2135,5.2455,5.3152,5.3152,5.3152,5.3152,5.3152,5.2616,5.1903,5.1903,5.1814,5.1689,5.1689,5.0905,4.9764,4.9705,4.9634,4.9616,4.9473,4.942,4.942,4.942,4.8908,4.8392,4.8392,4.8026,4.7473,4.733,4.7276,4.7258,4.708,4.7044,4.7044,4.7044,4.7044,4.7044,4.7044,4.7044,4.7044,4.7044,4.6851,4.6755,4.6755,4.5936,4.4477,4.2001,4.0971,3.936,3.6565,3.4552,3.2834,3.1826,3.0175,2.8915,2.7993,2.7946,2.8367,2.9455,2.8433,2.834,2.9455,2.9547,2.9243,2.8796,2.8886,2.8612,2.7975,2.694,2.6362,2.6268,2.74,2.6469,0.0,0.0,0.0,0.0,0.0,0.0,0.0,0.0,0.0,0.0,0.0,4.9109,5.1166,0.0,5.2989,5.5092,5.3971,5.3414,5.4867,5.3964,5.1963,4.8696,5.0296,5.0641,4.8157,4.9696,5.038,4.9305,5.0054,5.0473,5.0382,5.0093,5.0188,5.0495,5.0495,5.0495,5.0495,5.0887,5.1065,5.1083,5.1493,5.1885,5.2259,5.2259,5.2259,5.2242,5.1938,5.1527,5.1047,5.0655,5.0495,5.0495,5.0495,5.0014,4.9384,4.8891,4.8748,4.8623,4.7821,4.7536,4.7483,4.709,4.6698,4.6395,4.6395,4.611,4.5789,4.5789,4.5789,4.5789,4.5789,4.5789,4.5789,4.5789,4.5789,4.5789,4.5789,4.5789,4.5789,4.5789,4.5789,4.5789,4.5789,4.331,4.0589,3.8623,3.7709,3.6295,3.3639,3.2524,3.1381,2.962,2.8948,2.8475,2.8202,2.798,2.8352,2.9572,2.8737,2.8325,2.852,2.9136,2.9403,2.9273,2.8844,2.8773,2.8909,2.7162,2.6069,2.5536,2.5326,2.4346,0.0,0.0,0.0,0.0,0.0,0.0,0.0,0.0,0.0,0.0,0.0,0.0,0.0,0.0,0.0,5.2497,5.1661,5.1281,5.2684,5.1306,4.9059,4.6094,4.7985,4.8836,4.7032,4.8339,4.8964,4.8003,4.9103,4.9608,4.9237,4.9055,4.9098,4.9402,4.942,4.942,4.942,5.0027,5.0348,5.0348,5.0905,0.0,5.1226,5.1226,5.1226,5.119,5.0634,5.0348,5.0295,4.967,4.942,4.9348,4.8641,4.8409,4.8338,4.7714,4.7483,4.7286,4.5909,4.5446,4.534,4.4735,4.4521,4.4521,4.4521,4.4521,0.0,4.4521,4.4521,4.4521,4.4521,4.4521,4.4521,4.4521,4.4521,4.4521,4.4521,4.4521,4.4521,4.4521,4.4246,4.3953,4.3844,4.0093,3.6499,3.4717,3.3842,3.2634,3.0103,3.0208,2.9758,2.8166,2.8364,2.8563,2.8458,2.8073,2.8166,2.904,2.8547,2.7889,2.6902,2.7857,2.8768,2.9542,2.8598,2.8449,2.9192,2.7268,2.566,2.4456,2.2613,2.1682,0.0,0.0,0.0,0.0,0.0,0.0,0.0,0.0,0.0,0.0,0.0,0.0,0.0,0.0,0.0,0.0,4.8931,4.8497,4.7344,4.5697,4.4436,4.404,4.5597,4.6268,4.5106,4.6189,4.6837,4.6382,4.6054,4.669,4.8378,4.7699,0.0,0.0,0.0,4.942,4.942,4.9491,4.9545,4.9545,4.9532,4.9687,4.9687,4.9687,4.9687,4.967,4.958,4.9545,4.9545,4.9455,4.942,4.9033,4.614,4.5055,4.5055,4.4948,4.493,4.4895,4.4717,0.0,0.0,4.4557,4.4521,4.4521,4.4521,4.4521,4.4521,4.4521,4.4521,4.4521,4.4521,4.4521,4.4521,4.4521,4.4521,4.4521,4.4521,4.4521,4.4521,4.4521,4.32,4.1946,4.1524,3.9396,3.6718,3.3553,3.2949,3.21,2.9678,2.9505,2.9214,2.8551,2.8551,0.0,2.798,2.7793,2.7886,2.798,2.7463,2.698,2.6374,2.645,2.7501,2.9538,2.8298,2.7803,2.8155,2.6565,2.4833,2.312,2.1275,1.9888,0.0,0.0,0.0,0.0,0.0,0.0,0.0,0.0,0.0,0.0,0.0,0.0,0.0,0.0,0.0,0.0,4.6007,4.5311,4.2977,4.2446,4.2503,4.2996,4.4078,4.463,4.4187,4.5541,4.6116,4.5297,4.5596,4.589,4.6099,4.578,4.5896,4.6556,4.6591,4.6805,4.7251,4.7714,4.8276,4.8659,4.9205,4.942,4.942,4.942,4.942,4.9402,4.8855,4.8659,4.857,4.7625,4.7251,4.7073,0.0,0.0,0.0,0.0,4.4521,4.4468,4.397,4.381,4.3739,4.3294,4.3152,4.3152,4.3152,4.3152,4.3152,4.3152,4.3152,4.3152,4.3152,4.3152,4.3152,4.3152,4.3152,4.3152,4.3152,4.3152,4.3152,4.3152,4.2138,0.0,3.8327,3.541,3.283,3.113,3.1301,3.0933,2.9121,2.9585,2.9665,2.8259,2.8364,2.8458,2.8271,2.798,0.0,0.0,0.0,2.8373,2.706,2.7362,0.0,0.0,0.0,2.7611,2.763,2.5046,0.0,0.0,1.8753,1.7899,0.0,0.0,0.0,0.0,0.0,0.0,0.0,0.0,0.0,0.0,0.0,0.0,0.0,0.0,0.0,0.0,4.318,4.2534,3.9594,3.9765,4.0623,4.1705,4.2559,4.3085,4.3149,4.4431,4.4883,4.4138,4.4708,4.4886,4.4438,4.4292,4.429,4.4521,4.4521,4.4806,4.534,4.6021,4.6609,4.7197,4.7768,4.8017,4.8017,4.8017,4.8017,4.7999,4.7429,4.7197,4.7108,4.5838,4.5357,4.5251,4.4272,4.3881,4.3881,4.3881,4.3881,4.3757,4.2938,4.2599,4.2262,4.1693,4.1515,4.1515,4.1515,4.1515,4.1515,4.1515,4.1658,4.1836,4.1836,4.1996,4.2173,4.2173,4.2173,4.2173,4.2173,4.2173,4.2173,4.2173,4.1111,3.9142,3.5934,3.2855,3.0372,2.9032,2.9614,2.9703,2.8518,2.9485,2.9758,2.8166,2.8364,2.849,2.8161,2.7871,2.7818,2.8101,2.8882,2.8714,2.7218,2.7841,2.8113,2.7736,2.7283,2.6794,0.0,0.0,0.0,0.0,0.0,0.0,0.0,0.0,0.0,0.0,0.0,0.0,0.0,0.0,0.0,0.0,0.0,0.0,0.0,0.0,0.0,0.0,0.0,0.0,3.731,3.7299,3.8285,3.9939,4.0832,4.1431,4.184,4.2375,4.2671,4.2444,4.2453,4.298,4.4075,4.3615,4.3703,4.4504,4.4521,4.4539,4.4557,4.4593,4.461,4.4646,4.4664,4.4681,4.4681,4.4681,4.4681,4.4681,4.4646,4.4646,4.4628,4.4575,4.4557,4.4415,4.2849,4.2245,4.2245,4.2245,4.2245,4.212,4.1387,4.062,3.9897,3.9961,3.9961,3.9961,3.9961,3.9961,3.9961,3.9961,4.0496,4.1066,4.1066,4.1569,4.2173,4.2173,4.2173,4.2173,4.2173,4.2173,4.2173,4.2173,4.0186,3.773,3.4913,3.3285,3.1299,2.8125,2.8234,0.0,2.7882,2.871,2.9226,2.8656,2.8551,2.8161,2.7192,2.7417,2.7473,2.7133,2.7021,2.6649,2.6118,2.6962,2.6848,2.555,2.5696,2.4862,2.3051,0.0,0.0,0.0,0.0,0.0,0.0,0.0,0.0,0.0,0.0,0.0,0.0,0.0,0.0,0.0,0.0,0.0,0.0,0.0,0.0,0.0,0.0,0.0,0.0,3.5032,3.565,3.7301,3.825,3.9012,3.9694,4.0433,4.0959,4.1189,4.1164,4.1385,4.1666,4.1553,4.1659,4.2207,4.2242,4.2654,4.3703,4.3721,4.3988,4.4521,4.4521,4.4521,4.4521,4.4521,4.4521,4.4521,4.4521,4.4521,4.4486,4.3934,4.2796,4.1337,4.0804,4.0608,4.0608,4.0608,4.0608,4.0656,4.0371,4.0104,3.989,3.989,3.989,3.989,3.989,3.989,3.989,3.989,4.0068,4.0264,4.0264,4.0478,4.0608,4.0608,4.0608,4.0608,4.0608,4.0608,4.0608,4.0608,3.6583,3.2747,3.1864,3.0306,2.8902,2.7805,2.7601,2.7516,2.735,2.7317,2.7335,2.7515,2.7527,2.7532,2.7439,2.7516,2.7226,2.6396,2.7627,2.7723,2.6119,2.6483,2.6539,2.6157,2.4385,2.3062,2.2309,0.0,0.0,0.0,0.0,0.0,0.0,0.0,0.0,0.0,0.0,0.0,0.0,0.0,0.0,0.0,0.0,0.0,0.0,0.0,0.0,0.0,0.0,0.0,0.0,0.0,0.0,3.4654,3.565,0.0,3.7301,3.789,3.8541,3.9165,3.9107,3.9282,3.9778,3.9496,3.9713,4.034,4.0293,4.0834,4.2049,4.2153,4.2334,4.2849,4.2849,4.2849,4.2849,4.2849,4.2849,4.2849,4.2849,4.2849,4.2778,4.1978,4.059,3.9034,3.9034,3.9034,3.9034,3.9034,3.9034,3.8998,3.8731,3.8642,3.8588,3.8321,3.8036,3.784,3.8143,3.794,3.7858,3.8065,3.8428,3.8642,3.8642,3.8838,3.9034,3.9034,3.9034,3.9034,3.9034,3.8633,3.7969,3.7149,3.3695,3.0605,2.9685,2.8394,2.7213,2.6734,2.6552,2.6504,2.6677,2.6744,2.6897,2.7173,2.726,2.7263,2.7328,2.7304,2.6892,2.6054,2.7415,2.7328,2.5368,2.6026,2.6005,2.5016,2.3115,2.1822,0.0,0.0,0.0,0.0,0.0,0.0,0.0,0.0,0.0,0.0,0.0,0.0,0.0,0.0,0.0,0.0,0.0,0.0,0.0,0.0,0.0,0.0,0.0,0.0,0.0,0.0,0.0,3.2077,3.3049,0.0,0.0,0.0,0.0,3.6516,3.6329,3.6904,3.8375,3.7746,3.7893,3.9069,3.8711,3.8865,3.9765,3.9765,3.9783,3.9818,3.9818,3.9836,3.989,3.989,3.989,3.989,3.989,3.9872,3.9683,3.8794,3.7958,3.7341,3.7305,3.7287,3.7287,3.7287,3.7287,3.718,3.645,3.62,3.6075,3.5236,3.4525,3.4026,3.4774,3.4471,0.0,0.0,3.5612,3.62,3.62,3.6735,3.7287,3.7287,3.7287,3.7287,3.7287,3.6177,3.4499,3.2047,3.1505,3.0685,2.8242,0.0,2.6328,2.5107,2.516,2.5509,2.5875,2.6799,2.7439,2.7452,2.7452,2.7316,2.676,2.6669,2.6373,2.579,2.6229,2.5724,2.3918,2.5315,2.4926,2.2226,2.1908,0.0,0.0,0.0,0.0,0.0,0.0,0.0,0.0,0.0,0.0,0.0,0.0,0.0,0.0,0.0,0.0,0.0,0.0,0.0,0.0,0.0,0.0,0.0,0.0,0.0,0.0,2.8186,2.8439,2.9575,2.9898,3.0658,0.0,0.0,0.0,0.0,0.0,0.0,3.5206,3.5054,3.5342,3.6223,3.6129,3.677,3.8107,3.8125,3.8428,3.8954,3.8954,3.9256,3.989,3.989,3.989,3.989,3.989,3.9488,3.8758,3.6271,3.5095,3.4845,3.4275,3.4043,3.4043,3.4043,3.4043,3.4026,3.383,3.3758,3.3633,3.28,3.2475,3.2225,3.1833,0.0,0.0,0.0,0.0,3.3758,3.3758,3.3901,3.4043,3.4043,3.4043,3.4043,3.4043,3.3764,3.2231,2.7919,2.6544,2.5387,2.3096,2.3013,0.0,2.2906,2.3253,2.3756,2.422,2.4841,2.5252,2.5664,2.5757,2.5774,2.5939,2.5955,2.5517,2.4498,2.4513,2.4061,2.2782,2.236,2.1428,1.9949,0.0,0.0,0.0,0.0,0.0,0.0,0.0,0.0,0.0,0.0,0.0,0.0,0.0,0.0,0.0,0.0,0.0,0.0,0.0,0.0,0.0,0.0,0.0,0.0,0.0,0.0,0.0,2.693,2.6977,2.7121,2.7753,2.855,0.0,0.0,0.0,0.0,0.0,0.0,0.0,0.0,0.0,3.3542,3.3664,3.4257,3.5469,3.5487,3.5879,3.6664,3.6664,3.7091,3.7762,3.7762,3.7762,3.7762,3.7762,3.6944,3.5432,3.3348,3.2279,3.1905,0.0,0.0,0.0,0.0,3.0835,3.0835,3.0835,3.0835,3.0746,3.0336,0.0,0.0,0.0,0.0,0.0,0.0,0.0,3.0835,3.0835,3.0835,3.0835,3.0835,3.0835,3.0924,3.1245,2.9726,2.7416,2.4343,2.3272,2.2305,2.0745,2.0558,0.0,0.0,0.0,2.2528,2.3521,2.4132,2.4763,2.5261,2.5299,2.544,2.5671,2.5204,2.462,2.3957,2.3452,2.2755,2.166,2.0721,1.9593,0.0,0.0,0.0,0.0,0.0,0.0,0.0,0.0,0.0,0.0,0.0,0.0,0.0,0.0,0.0,0.0,0.0,0.0,0.0,0.0,0.0,0.0,0.0,0.0,0.0,0.0,0.0,0.0,0.0,2.5768,2.5023,0.0,0.0,0.0,0.0,0.0,0.0,0.0,0.0,0.0,0.0,0.0,0.0,0.0,3.137,3.194,3.2243,3.2778,3.3544,3.3651,3.4133,3.4845,3.4845,3.4845,3.4827,3.4418,0.0,3.1128,3.0372,0.0,0.0,0.0,0.0,0.0,0.0,0.0,0.0,0.0,0.0,0.0,0.0,0.0,0.0,0.0,0.0,0.0,0.0,0.0,0.0,0.0,0.0,2.7837,2.7705,2.7665,2.7806,2.8178,2.5125,2.2112,2.1375,2.1134,2.0695,0.0,0.0,0.0,0.0,0.0,0.0,2.2888,2.4007,2.4824,2.5282,2.5334,2.5334,2.5334,2.4321,2.362,2.3477,2.2626,2.1557,2.0313,1.9746,0.0,0.0,0.0,0.0,0.0,0.0,0.0,0.0,0.0,0.0,0.0,0.0,0.0,0.0,0.0,0.0,0.0,0.0,0.0,0.0,0.0,0.0,0.0,0.0,0.0,0.0,0.0,0.0,0.0,0.0,0.0,0.0,0.0,0.0,0.0,0.0,0.0,0.0,0.0,0.0,0.0,0.0,0.0,0.0,0.0,0.0,0.0,0.0,0.0,0.0,3.1798,3.2528,3.3277,3.3277,3.3277,3.3134,3.0487,2.9195,2.875,2.793,0.0,0.0,0.0,0.0,0.0,0.0,0.0,0.0,0.0,0.0,0.0,0.0,0.0,0.0,0.0,0.0,0.0,0.0,0.0,0.0,0.0,0.0,2.6021,2.5157,2.4994,2.4587,2.3084,0.0,0.0,0.0,0.0,0.0,0.0,0.0,0.0,0.0,0.0,0.0,2.0822,2.2396,2.3482,2.3586,2.3599,2.3599,2.3599,2.2906,2.2113,2.1242,2.0999,2.0118,0.0,0.0,0.0,0.0,0.0,0.0,0.0,0.0,0.0,0.0,0.0,0.0,0.0,0.0,0.0,0.0,0.0,0.0,0.0,0.0,0.0,0.0,0.0,0.0,0.0,0.0,0.0,0.0,0.0,0.0,0.0,0.0,0.0,0.0,0.0,0.0,0.0,0.0,0.0,0.0,0.0,0.0,0.0,0.0,0.0,0.0,0.0,0.0,0.0,0.0,0.0,0.0,0.0,0.0,0.0,0.0,0.0,0.0,2.834,2.6985,0.0,0.0,0.0,0.0,0.0,0.0,0.0,0.0,0.0,0.0,0.0,0.0,0.0,0.0,0.0,0.0,0.0,0.0,0.0,0.0,0.0,0.0,0.0,0.0,0.0,0.0,0.0,0.0,0.0,0.0,0.0,0.0,0.0,0.0,0.0,0.0,0.0,0.0,0.0,0.0,2.0077,2.1412,2.2362,2.2594,2.262,2.262,2.262,2.1841,2.1101,2.063,1.9685,0.0,0.0,0.0,0.0,0.0,0.0,0.0,0.0,0.0,0.0,0.0,0.0,0.0,0.0,0.0,0.0,0.0,0.0,0.0,0.0,0.0,0.0,0.0,0.0,0.0,0.0,0.0,0.0,0.0,0.0,0.0,0.0,0.0,0.0,0.0,0.0,0.0,0.0,0.0,0.0,0.0,0.0,0.0,0.0,0.0,0.0,0.0,0.0,0.0,0.0,0.0,0.0,0.0,0.0,0.0,0.0,0.0,0.0,0.0,2.6201,2.4999,0.0,0.0,0.0,0.0,0.0,0.0,0.0,0.0,0.0,0.0,0.0,0.0,0.0,0.0,0.0,0.0,0.0,0.0,0.0,0.0,0.0,0.0,0.0,0.0,0.0,0.0,0.0,0.0,0.0,0.0,0.0,0.0,0.0,0.0,0.0,0.0,0.0,0.0,0.0,0.0,1.9555,2.0576,2.1399,2.1971,2.1957,2.1984,2.1854,2.0919,2.0304,2.0057,1.8655,0.0,0.0,0.0,0.0,0.0,0.0,0.0,0.0,0.0,0.0,0.0,0.0,0.0,0.0,0.0,0.0,0.0,0.0,0.0,0.0,0.0,0.0,0.0,0.0,0.0,0.0,0.0,0.0,0.0,0.0,0.0,0.0,0.0,0.0,0.0,0.0,0.0,0.0,0.0,0.0,0.0,0.0,0.0,0.0,0.0,0.0,0.0,0.0,0.0,0.0,0.0,0.0,0.0,0.0,0.0,0.0,0.0,0.0,0.0,0.0,0.0,0.0,0.0,0.0,0.0,0.0,0.0,0.0,0.0,0.0,0.0,0.0,0.0,0.0,0.0,0.0,0.0,0.0,0.0,0.0,0.0,0.0,0.0,0.0,0.0,0.0,0.0,0.0,0.0,0.0,0.0,0.0,0.0,0.0,0.0,0.0,0.0,0.0,0.0,0.0,0.0,1.8522,1.9812,2.089,2.1386,2.1451,2.1243,2.0786,2.0114,1.9251,1.8215,0.0,0.0,0.0,0.0,0.0,0.0,0.0,0.0,0.0,0.0,0.0,0.0,0.0,0.0,0.0,0.0,0.0,0.0,0.0,0.0,0.0,0.0,0.0,0.0,0.0,0.0,0.0,0.0,0.0,0.0,0.0,0.0,0.0,0.0,0.0,0.0,0.0,0.0,0.0,0.0,0.0,0.0,0.0,0.0,0.0,0.0,0.0,0.0,0.0,0.0,0.0,0.0,0.0,0.0,0.0,0.0,0.0,0.0,0.0,0.0,0.0,0.0,0.0,0.0,0.0,0.0,0.0,0.0,0.0,0.0,0.0,0.0,0.0,0.0,0.0,0.0,0.0,0.0,0.0,0.0,0.0,0.0,0.0,0.0,0.0,0.0,0.0,0.0,0.0,0.0,0.0,0.0,0.0,0.0,0.0,0.0,0.0,0.0,0.0,0.0,0.0,0.0,1.8064,1.8953,1.9653,1.9874,1.9841,1.9809,1.9575,1.8971,1.8383,1.793,0.0,0.0,0.0,0.0,0.0,0.0,0.0,0.0,0.0,0.0,0.0,0.0,0.0,0.0,0.0,0.0,0.0,0.0,0.0,0.0,0.0,0.0,0.0,0.0,0.0,0.0,0.0,0.0,0.0,0.0,0.0,0.0,0.0,0.0,0.0,0.0,0.0,0.0,0.0,0.0,0.0,0.0,0.0,0.0,0.0,0.0,0.0,0.0,0.0,0.0,0.0,0.0,0.0,0.0,0.0,0.0,0.0,0.0,0.0,0.0,0.0,0.0,0.0,0.0,0.0,0.0,0.0,0.0,0.0,0.0,0.0,0.0,0.0,0.0,0.0,0.0,0.0,0.0,0.0,0.0,0.0,0.0,0.0,0.0,0.0,0.0,0.0,0.0,0.0,0.0,0.0,0.0,0.0,0.0,0.0,0.0,0.0,0.0,0.0,0.0,0.0,0.0,1.7866,1.8267,1.8633,1.8859,1.8885,1.875,1.8582,1.8137,1.784,1.7671,0.0,0.0,0.0,0.0,0.0,0.0,0.0,0.0,0.0,0.0,0.0,0.0,0.0,0.0,0.0,0.0,0.0,0.0,0.0,0.0,0.0,0.0,0.0,0.0,0.0,0.0,0.0,0.0,0.0,0.0,0.0,0.0,0.0,0.0,0.0,0.0,0.0,0.0,0.0,0.0,0.0,0.0,0.0,0.0,0.0,0.0,0.0,0.0,0.0,0.0,0.0,0.0,0.0,0.0,0.0,0.0,0.0,0.0,0.0,0.0,0.0,0.0,0.0,0.0,0.0,0.0,0.0,0.0,0.0,0.0,0.0,0.0,0.0,0.0,0.0,0.0,0.0,0.0,0.0,0.0,0.0,0.0,0.0,0.0,0.0,0.0,0.0,0.0,0.0,0.0,0.0,0.0,0.0,0.0,0.0,0.0,0.0,0.0,0.0,0.0,0.0,0.0,1.7762,1.7917,1.8137,1.8763,1.8885,1.8595,1.7969,1.7917,1.7671,0.0,0.0,0.0,0.0,0.0,0.0,0.0,0.0,0.0,0.0,0.0,0.0,0.0,0.0,0.0,0.0,0.0,0.0,0.0,0.0,0.0,0.0,0.0,0.0,0.0,0.0,0.0,0.0,0.0,0.0,0.0,0.0,0.0,0.0,0.0,0.0,0.0,0.0,0.0,0.0,0.0,0.0,0.0,0.0,0.0,0.0,0.0,0.0,0.0,0.0,0.0,0.0,0.0,0.0,0.0,0.0,0.0,0.0,0.0,0.0,0.0,0.0,0.0,0.0,0.0,0.0,0.0,0.0,0.0,0.0,0.0,0.0,0.0,0.0,0.0,0.0,0.0,0.0,0.0,0.0,0.0,0.0,0.0,0.0,0.0,0.0,0.0,0.0,0.0,0.0,0.0,0.0,0.0,0.0,0.0,0.0,0.0,0.0,0.0,0.0,0.0,0.0,0.0,1.7283,1.7335,1.7452,1.7634,1.766,1.7582,1.7348,1.7335,1.7153,1.6632,0.0,0.0,0.0,0.0,0.0,0.0,0.0,0.0,0.0,0.0,0.0,0.0,0.0,0.0,0.0,0.0,0.0,0.0,0.0,0.0,0.0,0.0,0.0,0.0,0.0,0.0,0.0,0.0,0.0,0.0,0.0,0.0,0.0,0.0,0.0,0.0,0.0,0.0,0.0,0.0,0.0,0.0,0.0,0.0,0.0,0.0,0.0,0.0,0.0,0.0,0.0,0.0,0.0,0.0,0.0,0.0,0.0,0.0,0.0,0.0,0.0,0.0,0.0,0.0,0.0,0.0,0.0,0.0,0.0,0.0,0.0,0.0,0.0,0.0,0.0,0.0,0.0,0.0,0.0,0.0,0.0,0.0,0.0,0.0,0.0,0.0,0.0,0.0,0.0,0.0,0.0,0.0,0.0,0.0,0.0,0.0,0.0,0.0,0.0,0.0,0.0,0.0,0.0,1.7114,1.7114,1.7114,1.7114,1.7114,1.7114,1.7114,1.6881,1.6358,0.0,0.0,0.0,0.0,0.0,0.0,0.0,0.0,0.0,0.0,0.0,0.0,0.0,0.0,0.0,0.0,0.0,0.0,0.0,0.0,0.0,0.0,0.0,0.0,0.0,0.0,0.0,0.0,0.0,0.0,0.0,0.0,0.0,0.0,0.0,0.0,0.0,0.0,0.0,0.0,0.0,0.0,0.0,0.0,0.0,0.0,0.0,0.0,0.0,0.0,0.0,0.0,0.0,0.0,0.0,0.0,0.0,0.0,0.0,0.0,0.0,0.0,0.0,0.0,0.0,0.0,0.0,0.0,0.0,0.0,0.0,0.0,0.0,0.0,0.0,0.0,0.0,0.0,0.0,0.0,0.0,0.0,0.0,0.0,0.0,0.0,0.0,0.0,0.0,0.0,0.0,0.0,0.0,0.0,0.0,0.0,0.0,0.0,0.0,0.0,0.0,0.0,0.0,1.7114,1.7114,1.7114,1.7114,1.7114,1.7114,1.7114,1.6855,1.6306,1.5712,0.0,0.0,0.0,0.0,0.0,0.0,0.0,0.0,0.0,0.0,0.0,0.0,0.0,0.0,0.0,0.0,0.0,0.0,0.0,0.0,0.0,0.0,0.0,0.0,0.0,0.0,0.0,0.0,0.0,0.0,0.0,0.0,0.0,0.0,0.0,0.0,0.0,0.0,0.0,0.0,0.0,0.0,0.0,0.0,0.0,0.0,0.0,0.0,0.0,0.0,0.0,0.0,0.0,0.0,0.0,0.0,0.0,0.0,0.0,0.0,0.0,0.0,0.0,0.0,0.0,0.0,0.0,0.0,0.0,0.0,0.0,0.0,0.0,0.0,0.0,0.0,0.0,0.0,0.0,0.0,0.0,0.0,0.0,0.0,0.0,0.0,0.0,0.0,0.0,0.0,0.0,0.0,0.0,0.0,0.0,0.0,0.0,0.0,0.0,0.0,0.0,0.0,1.7114,1.7114,1.7114,1.7114,1.7114,1.7114,1.7114,1.6686,1.5639,1.5445,0.0,0.0,0.0,0.0,0.0,0.0,0.0,0.0,0.0,0.0,0.0,0.0,0.0,0.0,0.0,0.0,0.0,0.0,0.0,0.0,0.0,0.0,0.0,0.0,0.0,0.0,0.0,0.0,0.0,0.0,0.0,0.0,0.0,0.0,0.0,0.0,0.0,0.0,0.0,0.0,0.0,0.0,0.0,0.0,0.0,0.0,0.0,0.0,0.0,0.0,0.0,0.0,0.0,0.0,0.0,0.0,0.0,0.0,0.0,0.0,0.0,0.0,0.0,0.0,0.0,0.0,0.0,0.0,0.0,0.0,0.0,0.0,0.0,0.0,0.0,0.0,0.0,0.0,0.0,0.0,0.0,0.0,0.0,0.0,0.0,0.0,0.0,0.0,0.0,0.0,0.0,0.0,0.0,0.0,0.0,0.0,0.0,0.0,0.0,0.0,0.0,0.0,1.6569,1.6829,1.7088,1.7114,1.7114,1.7114,1.6881,1.6361,1.5432,1.4862,0.0,0.0,0.0,0.0,0.0,0.0,0.0,0.0,0.0,0.0,0.0,0.0,0.0,0.0,0.0,0.0,0.0,0.0,0.0,0.0,0.0,0.0,0.0,0.0,0.0,0.0,0.0,0.0,0.0,0.0,0.0,0.0,0.0,0.0,0.0,0.0,0.0,0.0,0.0,0.0,0.0,0.0,0.0,0.0,0.0,0.0,0.0,0.0,0.0,0.0,0.0,0.0,0.0,0.0,0.0,0.0,0.0,0.0,0.0,0.0,0.0,0.0,0.0,0.0,0.0,0.0,0.0,0.0,0.0,0.0,0.0,0.0,0.0,0.0,0.0,0.0,0.0,0.0,0.0,0.0,0.0,0.0,0.0,0.0,0.0,0.0,0.0,0.0,0.0,0.0,0.0,0.0,0.0,0.0,0.0,0.0,0.0,0.0,0.0,0.0,0.0,0.0,0.0,1.654,1.7062,1.7114,1.7114,1.7114,1.6658,1.6036,1.5406,0.0,0.0,0.0,0.0,0.0,0.0,0.0,0.0,0.0,0.0,0.0,0.0,0.0,0.0,0.0,0.0,0.0,0.0,0.0,0.0,0.0,0.0,0.0,0.0,0.0,0.0,0.0,0.0,0.0,0.0,0.0,0.0,0.0,0.0,0.0,0.0,0.0,0.0,0.0,0.0,0.0,0.0,0.0,0.0,0.0,0.0,0.0,0.0,0.0,0.0,0.0,0.0,0.0,0.0,0.0,0.0,0.0,0.0,0.0,0.0,0.0,0.0,0.0,0.0,0.0,0.0,0.0,0.0,0.0,0.0,0.0,0.0,0.0,0.0,0.0,0.0,0.0,0.0,0.0,0.0,0.0,0.0,0.0,0.0,0.0,0.0,0.0,0.0,0.0,0.0,0.0,0.0,0.0,0.0,0.0,0.0,0.0,0.0,0.0,0.0,0.0,0.0,0.0,0.0,1.654,1.7062,1.7114,1.7114,1.7114,1.6658,1.6036,1.5406,0.0,0.0,0.0,0.0,0.0,0.0,0.0,0.0,0.0,0.0,0.0,0.0,0.0,0.0]}]]]